[[[{"header":{"parameterUnit":"kt","parameterCategory":2,"dx":1,"dy":1,"la1":29.285339999999998,"la2":30.599998999999997,"lo1":-89.70041500000002,"lo2":-87.6738589999976,"nx":112,"ny":82,"refTime":"2022-10-30T06:00:00:Z","depth":0,"parameterNumber":1,"parameterNumberName":"U-component_of_WINDS"},"data":[-0.9331,-0.8766,-0.7624,-0.608,-0.5589,0.0,-0.1077,0.0,0.5773,0.0,0.0,0.0,0.0,1.2068,0.9835,0.9846,0.6296,0.4027,0.0,0.4415,0.0,0.0,0.0,0.0,0.0,0.0,0.0,0.0,0.0,0.0,0.0,0.0,4.7458,4.9773,5.1481,5.2626,5.3238,5.5955,5.7639,5.8315,5.9026,5.936,5.9336,5.9187,5.892,5.858,5.858,5.835,5.7919,5.7919,5.7854,5.7724,5.7724,5.7724,5.7656,5.7065,5.6772,5.6632,5.6413,5.6059,5.5609,5.5618,5.5334,5.4958,5.501,5.4993,5.5013,5.5013,5.4791,5.4611,5.4585,5.4369,5.4232,5.4232,5.4369,5.4482,5.4281,5.4402,5.4334,5.3639,5.3467,5.3233,5.2442,5.231,5.2179,5.1916,5.1883,5.208,5.2606,5.3464,5.4491,5.5544,5.7385,5.873,5.9198,5.8788,5.8295,5.795,5.8254,5.8426,5.8187,5.9068,5.9504,5.9504,5.9504,5.9918,6.0629,5.9711,5.9744,6.0596,5.8252,5.6299,-0.8646,-0.8348,-0.7825,-0.6635,0.0,0.0,0.0,0.0,0.0,0.0,0.0,0.0,0.0,0.8711,0.7846,0.6725,0.4647,0.4062,0.0,0.0,0.0,0.0,0.0,0.0,0.0,0.0,0.0,0.0,0.0,0.0,0.0,4.6629,4.8023,4.9697,5.0801,5.1633,5.2198,5.4937,5.662,5.7274,5.8634,5.9195,5.9089,5.892,5.8553,5.8137,5.8137,5.7887,5.7552,5.7552,5.7443,5.7259,5.7259,5.7259,5.7181,5.6045,5.5645,5.5645,5.5645,5.5279,5.4836,5.4871,5.4619,5.4234,5.4252,5.4256,5.4228,5.4228,5.4037,5.384,5.3811,5.3661,5.343,5.343,5.3661,5.3807,5.3476,5.3634,5.3628,5.2837,5.2672,5.2475,5.2014,5.1883,5.1883,5.1883,5.1621,5.1391,5.1391,5.1916,5.254,5.2969,5.5237,5.6838,5.7308,5.7406,5.6781,5.5419,5.5767,5.59,5.5624,5.6914,5.7662,5.7662,5.8097,5.8491,5.8795,5.8219,5.8153,5.858,5.5721,5.4134,0.0,0.0,0.0,-0.7818,0.0,0.0,0.0,0.0,0.6237,0.0,0.0,0.0,0.0,0.682,0.368,0.05,0.5133,0.0,0.0,0.0,0.0,0.0,0.0,0.0,0.0,0.0,0.0,0.0,0.0,0.0,4.6624,4.728,4.8064,4.9696,4.9629,5.0345,5.2011,5.3704,5.5389,5.7066,5.8536,5.9014,5.8692,5.8405,5.8076,5.7724,5.7724,5.748,5.7134,5.7134,5.6808,5.6359,5.6359,5.6323,5.6141,5.4714,5.4228,5.4228,5.4228,5.4228,5.4228,5.4228,5.4166,5.4184,5.4184,5.4157,5.419,5.419,5.3628,5.3002,5.3002,5.2442,5.1883,5.1883,5.2442,5.2837,5.208,5.2475,5.2837,5.208,5.1883,5.1883,5.1883,5.1883,5.1883,5.185,5.1097,5.0508,5.0507,4.9594,4.9529,5.0933,5.2245,5.3583,5.4946,5.5125,5.4625,5.3266,5.1851,5.1729,5.3074,5.4367,5.5076,5.5135,5.6372,5.6441,5.5157,5.6183,5.5989,5.4655,5.1851,5.1293,-0.7486,0.0,0.0,0.0,0.0,0.0,0.0,0.0,0.0,0.0,0.0,0.0,0.0,0.0,0.1036,0.0143,0.0,0.4183,0.0,0.0,0.0,0.0,0.0,0.0,0.0,0.0,0.0,0.0,0.0,4.488,4.7235,4.8361,4.9128,4.9615,4.948,4.9652,5.012,5.1728,5.3397,5.5165,5.6338,5.7402,5.8415,5.8076,5.769,5.7294,5.7294,5.7018,5.6589,5.6589,5.6501,5.6278,5.5754,5.5229,5.4767,5.4392,5.4228,5.4228,5.4228,5.4228,5.4117,5.3571,5.3019,5.2531,5.2531,5.2569,5.2573,5.2573,5.2376,5.2179,5.2179,5.208,5.1883,5.1883,5.208,5.2146,5.1916,5.208,5.2146,5.1916,5.1883,5.1883,5.1883,5.1883,5.1654,5.1031,5.0737,5.0291,4.9484,4.9123,4.9123,4.9526,5.083,5.1795,5.2171,5.3217,5.3188,5.1795,5.136,5.095,5.0458,5.1824,5.2501,5.2513,5.377,5.4243,5.3759,5.399,5.3951,5.3629,5.0738,5.0034,0.0,0.0,0.0,0.0,0.0,0.0,0.2744,0.0,0.5223,0.0,0.0,0.0,0.0,0.0,0.0,0.0,0.2713,0.0,0.0,0.0,0.0,0.0,0.0,0.0,0.0,0.0,0.0,0.0,4.5922,4.6178,4.8216,4.9113,4.9544,4.9484,4.9353,4.9221,4.9045,5.0647,5.2234,5.3797,5.5091,5.6466,5.7789,5.7623,5.7256,5.6808,5.6445,5.6136,5.5884,5.5596,5.5498,5.5414,5.4592,5.4048,5.3687,5.3338,5.3253,5.3253,5.3253,5.3253,5.316,5.2707,5.2302,5.1883,5.1883,5.1883,5.1883,5.1883,5.1883,5.1883,5.1883,5.1883,5.1883,5.1883,5.1883,5.1883,5.1883,5.1883,5.1883,5.1883,5.1883,5.1621,5.0802,5.0639,5.0508,4.9986,4.9487,4.9004,4.8443,4.7966,4.7705,4.7705,4.8867,4.9709,4.9787,5.0494,5.06,4.9747,4.9244,4.8604,4.7937,4.9244,4.9917,4.999,5.1208,5.1601,5.0968,5.1313,5.1055,5.0119,4.8938,4.8665,0.0,0.0,0.0,0.0,-0.4358,0.0,0.0,0.0,0.0577,0.0575,0.0,0.0,0.0,0.0,0.0,0.0,0.0,0.0,0.0,0.0,0.0,0.0,0.0,0.0,0.0,3.6047,4.0204,4.6567,4.3262,4.3447,4.9279,4.9529,4.9453,4.9353,4.9183,4.8891,4.8617,5.0051,5.1499,5.2881,5.4348,5.5729,5.7018,5.7054,5.6724,5.6095,5.5477,5.5194,5.5042,5.4466,5.4228,5.4173,5.3312,5.2952,5.283,5.2045,5.1818,5.1883,5.1752,5.1818,5.1883,5.1752,5.1752,5.1752,5.1587,5.1587,5.1587,5.1587,5.1587,5.1555,5.1555,5.1588,5.1588,5.1588,5.1588,5.1588,5.1588,5.1588,5.1588,5.1588,5.1588,5.0998,4.9261,4.8998,4.8966,4.8802,4.8038,4.736,4.7301,4.6466,4.5864,4.5864,4.6898,4.7562,4.7562,4.7562,4.7562,4.7562,4.6496,4.5864,4.5864,4.6957,4.7562,4.7562,4.8837,4.8923,4.7577,4.8689,4.8025,4.5894,4.6868,4.7301,-0.7671,-0.7163,-0.7011,0.0,0.0,0.2114,0.0,0.0,0.0,0.0,0.0,0.0,0.0,0.0,0.0,0.0,0.0,0.0,0.0,0.0,0.0,0.0,0.0,0.0,4.1046,4.1415,4.2956,4.6921,4.7424,4.8204,4.9659,4.9209,4.9108,4.9391,4.8718,4.8472,4.8617,4.8715,5.0144,5.2881,5.2892,5.4053,5.6223,5.6394,5.5801,5.4661,5.5042,5.494,5.4412,5.4283,5.4228,5.4117,5.2645,5.2143,5.1981,5.1085,5.1253,5.1818,5.1049,5.1253,5.1752,5.1049,5.0774,5.0603,4.9759,4.9542,4.9542,4.9542,4.9542,4.9578,4.9558,4.9563,4.9563,4.9563,4.9563,4.9563,4.9563,4.9563,4.9563,4.9563,4.9563,4.9475,4.9079,4.8938,4.8675,4.7841,4.754,4.7129,4.6295,4.6036,4.5864,4.5864,4.6094,4.6265,4.6265,4.6265,4.6265,4.6265,4.6036,4.5864,4.5864,4.6094,4.6265,4.6265,4.7532,4.757,4.6278,4.754,4.733,4.5864,4.6094,4.6667,-0.8276,-0.7977,-0.7635,-0.5727,0.0,0.0,0.0,0.1316,0.2039,0.0,0.0,-0.0908,-0.4049,-0.317,-0.232,-0.352,0.3693,1.0645,0.0,0.0,0.0,0.0,0.0,0.0,4.1912,4.1914,4.3041,4.6471,4.8394,4.9463,4.964,4.9108,4.8865,4.8966,4.8483,4.8178,4.8114,4.7977,4.8833,5.0656,5.1551,5.2723,5.4065,5.527,5.5229,5.4228,5.4159,5.3937,5.3629,5.3219,5.2763,5.2295,5.1555,5.088,5.0431,4.9935,5.0078,5.0329,4.9935,5.0046,5.0329,4.9935,4.9791,4.9677,4.9155,4.9021,4.896,4.9001,4.8965,4.897,4.8987,4.8951,4.8951,4.8951,4.8951,4.8951,4.8951,4.8951,4.8951,4.8951,4.8168,4.7457,4.7404,4.7473,4.7271,4.6726,4.6667,4.6466,4.5894,4.5864,4.5864,4.5864,4.5864,4.5864,4.5864,4.5864,4.5864,4.5864,4.5864,4.5864,4.5864,4.5864,4.5864,4.5864,4.6496,4.6496,4.5864,4.6525,4.6496,4.5864,4.5864,4.6123,-0.8802,-0.88,-0.8426,-0.4787,-0.5255,0.0,-0.2883,-0.1558,-0.2015,0.0,-0.4047,-0.4133,-1.0831,-0.8862,-0.6368,-0.6812,0.1364,0.9615,1.5055,2.0596,2.5983,3.0866,3.4407,3.7733,4.1114,4.1392,4.2698,4.6065,4.792,4.9049,4.9372,4.8758,4.8394,4.8522,4.7926,4.7634,4.7614,4.7307,4.7554,4.8404,5.0337,5.1479,5.1954,5.4037,5.4538,5.3744,5.3312,5.3013,5.2769,5.2174,5.1253,5.0252,5.0252,4.9718,4.8951,4.877,4.8801,4.8951,4.877,4.8801,4.8951,4.8725,4.8694,4.8636,4.8416,4.838,4.8373,4.836,4.8371,4.8371,4.8371,4.8371,4.8371,4.8371,4.8371,4.8371,4.8371,4.8371,4.8371,4.8371,4.707,4.5864,4.5864,4.5864,4.5864,4.5864,4.5864,4.5864,4.5864,4.5864,4.5864,4.5864,4.5864,4.5864,4.5864,4.5864,4.5864,4.5864,4.5864,4.5864,4.5864,4.5864,4.5864,4.5864,4.5864,4.5864,4.5864,4.5864,4.5864,4.5864,4.5864,4.5864,-0.8963,-0.8765,-0.8756,-0.9811,-0.8332,0.0,-0.9514,-0.7148,-0.5655,0.0,-0.9936,-0.9585,-1.0494,-0.9322,-0.6624,-0.1784,0.2264,0.7494,1.545,2.3556,2.9955,3.3455,3.7234,4.0427,4.2714,4.302,4.3997,4.6268,4.6977,4.7753,4.883,4.7605,4.7324,4.8206,4.6405,4.6159,4.7614,4.6119,4.6411,4.8404,4.9333,5.0254,5.1124,5.3375,5.3513,5.2174,5.283,5.2645,5.1981,5.1949,5.0779,4.9174,4.9174,4.91,4.8876,4.7929,4.8161,4.8845,4.7929,4.8161,4.8876,4.7851,4.7646,4.7409,4.6476,4.6257,4.6203,4.6207,4.6236,4.6236,4.6236,4.6236,4.6236,4.6236,4.6236,4.6236,4.6236,4.6236,4.6236,4.6236,4.6036,4.5864,4.5864,4.5864,4.5864,4.5864,4.5864,4.5864,4.5864,4.5864,4.5864,4.5864,4.5864,4.5864,4.5864,4.5864,4.5864,4.5864,4.5864,4.5864,4.5864,4.5864,4.5864,4.5864,4.5864,4.5864,4.5864,4.5864,4.5864,4.5864,4.5864,4.5864,-0.8556,-0.9075,-0.9142,-0.9615,0.0,0.0,-0.9319,-1.1535,0.0,0.0,-1.6943,-1.7228,-1.6681,-1.4172,-1.0048,-0.3588,-0.01,0.4675,1.3036,2.2936,3.0555,3.3826,3.8455,4.2173,4.4107,4.459,4.5566,4.7352,4.6707,4.6997,4.8687,4.7422,4.6847,4.7298,4.5879,4.54,4.6119,4.5479,4.5373,4.5897,4.7553,4.8537,4.9037,5.0693,5.134,5.1117,5.0783,5.0475,5.0188,5.0188,4.9364,4.8084,4.8084,4.7694,4.709,4.6715,4.6797,4.712,4.6634,4.6797,4.709,4.6634,4.647,4.6417,4.6032,4.5864,4.5864,4.5864,4.5864,4.5864,4.5864,4.5864,4.5864,4.5864,4.5864,4.5864,4.5864,4.5864,4.5864,4.5864,4.5864,4.5864,4.5864,4.5864,4.5864,4.5864,4.5864,4.5864,4.5864,4.5265,4.4866,4.4866,4.4866,4.4525,4.3844,4.4439,4.4866,4.4866,4.4866,4.5123,4.5864,4.5864,4.5864,4.5864,4.5864,4.5864,4.5864,4.5864,4.5864,4.5864,4.5864,4.5864,-0.8672,0.0,0.0,0.0,0.0,0.0,0.0,0.0,-2.0311,-2.0032,-2.1031,-2.1624,-2.064,-1.8317,-1.4162,-0.7116,-0.2342,0.3413,1.1756,2.2229,3.0498,3.462,3.9987,4.3963,4.5618,4.6344,4.7178,0.0,4.7117,4.683,4.7951,4.6976,4.6328,4.6247,4.4892,4.4393,4.4775,4.4213,4.3762,4.3485,4.5321,4.6421,4.6871,4.8168,4.9261,5.0078,4.9322,4.8619,4.8114,4.8114,4.7458,4.6604,4.6848,4.6111,4.4871,4.5243,4.5357,4.5357,4.5357,4.5612,4.5864,4.5864,4.5864,4.5864,4.5864,4.5864,4.5864,4.5864,4.5864,4.5864,4.5864,4.5864,4.5835,4.5464,4.5406,4.5406,4.5406,4.5094,4.4898,4.4863,4.4828,4.4894,4.4897,4.4866,4.4866,4.4866,4.4866,4.4866,4.4866,4.4099,4.3563,4.3543,4.3626,4.324,4.2295,4.3017,4.3626,4.3626,4.3591,4.3929,4.4837,4.4866,4.5036,4.5406,4.5406,4.5522,4.5864,4.5236,4.5236,4.5864,4.5522,4.5522,0.0,0.0,0.0,-1.6693,-1.7492,-1.8094,-2.154,0.0,-2.1094,-2.0065,-2.0489,-2.064,-1.9363,-2.0046,-1.8475,-1.1474,-0.3433,0.4739,1.3002,2.2143,3.0339,3.6692,4.2361,4.6224,4.7406,4.8352,4.8922,4.8956,4.8319,4.7435,4.6202,4.589,4.5529,4.5166,4.3147,4.2677,4.3929,4.1966,4.1261,4.1876,4.2711,4.3738,4.5039,4.6417,4.779,4.9025,4.9025,4.7881,4.5948,4.5948,4.5243,4.4378,4.5498,4.4381,4.245,4.3732,4.4202,4.4202,4.4202,4.4899,4.5864,4.5864,4.5864,4.5864,4.5864,4.5864,4.5864,4.5864,4.5864,4.5864,4.5864,4.5864,4.5606,4.4468,4.4212,4.4212,4.4212,4.3167,4.2277,4.2265,4.2239,4.2269,4.2318,4.2323,4.2323,4.2323,4.2323,4.2323,4.2323,4.2239,4.2268,4.2252,4.2213,4.2223,4.221,4.2178,4.2213,4.2213,4.2234,4.2239,4.2323,4.2323,4.2913,4.4128,4.4212,4.4695,4.5864,4.3476,4.3505,4.5864,4.4695,4.4808,-1.287,-1.4158,-1.5747,-1.9899,-2.2176,-2.3272,-2.2854,-2.2558,-2.2442,-2.2391,-2.0872,-1.9954,-2.1395,-1.9779,-1.6424,-1.138,-0.1208,0.854,1.613,2.7072,3.5803,4.004,4.436,4.7206,4.7597,4.819,4.848,4.8095,4.6677,0.0,4.5218,4.4354,4.3577,4.2928,4.27,4.2398,4.185,4.1171,4.0927,4.1171,4.1426,4.27,4.487,4.467,4.5782,4.7959,4.717,4.5551,4.3471,4.3471,4.3202,4.2868,4.3292,4.2904,4.2293,4.2659,4.2868,4.2868,4.2868,4.3112,4.3471,4.3471,4.3471,4.3471,4.3471,4.3471,4.3436,4.3378,4.3396,4.3405,4.3464,4.3471,4.3367,4.2953,4.2831,4.2831,4.2831,4.188,4.1206,4.2044,4.219,4.2132,4.2171,4.2228,4.2228,4.2228,4.2228,4.2228,4.2228,4.1507,4.104,4.0979,4.098,4.0672,3.9764,4.0494,4.098,4.098,4.1002,4.136,4.2107,4.2228,4.2429,4.2831,4.2867,4.301,4.341,4.2613,4.2581,4.345,4.307,4.3082,-1.4654,-1.6431,-1.8417,-2.4001,-2.7126,-2.8216,-2.5799,-2.5304,-2.4705,-2.2472,-2.0779,-2.0053,-2.1297,-1.9514,-1.6418,-1.1943,-0.1387,0.9224,1.8091,2.944,3.825,4.1754,4.5213,4.7181,4.6887,4.7147,4.7317,4.7222,4.5165,4.3917,4.3847,4.281,4.1792,4.0985,4.1402,4.1227,4.0331,4.0041,3.9911,3.9911,3.9911,4.1077,4.3257,4.3009,4.3865,4.5493,4.4814,4.3649,4.2175,4.2175,4.1924,4.1552,4.2017,4.1619,4.0893,4.1391,4.1579,4.1579,4.1579,4.1832,4.2175,4.2175,4.2175,4.2175,4.2175,4.2175,4.2136,4.2151,4.2163,4.2231,4.2191,4.2138,4.2149,4.2158,4.1862,4.1458,4.0955,4.0272,3.9932,4.0723,4.0904,4.0904,4.0904,4.0904,4.0904,4.0904,4.0904,4.0904,4.0904,4.0227,3.9727,3.9727,3.9727,3.9378,3.8534,3.9204,3.9727,3.9727,3.9727,4.0077,4.0779,4.0904,4.1105,4.1509,4.1593,4.1593,4.1509,4.1075,4.13,4.2165,4.1712,4.181,-1.5342,-1.7714,-2.0743,-2.9143,-3.2193,-3.2573,-3.0355,-2.9614,-2.7523,-2.0727,-2.0145,-2.0526,-1.9148,-1.9265,-1.7998,-1.3465,-0.3446,0.7722,1.8837,2.9704,3.8044,4.2264,4.5023,4.6274,4.5341,4.5343,4.555,4.5903,4.3689,4.2261,4.2003,4.1009,4.0108,3.9258,3.9109,3.9109,3.9258,3.8465,3.8104,3.8104,3.8104,3.8837,4.0118,4.1404,4.1901,4.1818,4.1964,4.199,4.199,4.1898,4.1297,4.0423,4.1579,4.0512,3.8685,3.9842,4.0352,4.0352,4.0352,4.104,4.199,4.199,4.199,4.199,4.199,4.199,4.199,4.199,4.199,4.2004,4.196,4.197,4.1963,4.1933,4.1131,4.0027,3.8807,3.8485,3.8485,3.836,3.8333,3.8406,3.8406,3.8433,3.8485,3.8485,3.8485,3.8485,3.8485,3.8485,3.8485,3.8485,3.8485,3.8485,3.8485,3.8485,3.8485,3.8485,3.8485,3.8485,3.8485,3.8485,3.903,4.0277,4.0377,4.0377,4.0377,3.9055,3.9703,4.2013,4.0804,4.0929,-2.0179,-2.4984,-2.8949,-3.4318,-3.51,-3.3926,-3.1733,-2.8372,-2.5289,-2.3827,-2.1281,-1.9002,-1.7606,-1.4904,-1.3795,-1.6618,0.1577,1.6468,1.7559,3.4222,4.6046,4.5272,4.5824,4.5086,4.2268,4.3159,4.2367,3.8788,3.9336,3.8875,3.6705,3.6311,3.6204,3.6244,3.594,3.5912,3.6244,3.6076,3.5954,3.5954,3.5954,3.6645,3.799,3.9054,3.8593,3.7022,3.8561,3.9326,3.9303,3.8263,3.8287,3.8958,3.9328,3.9057,3.8485,3.8884,3.8983,3.8983,3.8983,3.9156,3.9426,3.9426,3.9426,3.9426,3.9426,3.9426,3.9426,3.9426,3.9426,3.9426,3.9453,3.9404,3.9429,3.9429,3.9204,3.8856,3.8534,3.8485,3.8163,3.7129,3.6897,3.6907,3.6907,3.7771,3.8485,3.8485,3.8485,3.8485,3.8485,3.8485,3.8485,3.8485,3.8485,3.8485,3.8485,3.8485,3.8485,3.8485,3.8485,3.8485,3.8485,3.8485,3.8658,3.9006,3.9006,3.9006,3.9006,3.8658,3.8832,3.9378,3.9155,3.9179,-1.975,-2.532,-3.0258,-3.3903,-3.4239,-3.2974,-3.0738,-2.8091,-2.5721,-2.4415,-2.4379,-2.3986,-2.2191,-2.2244,-2.1134,-1.6823,-0.4656,1.0547,2.8771,3.5787,3.7837,3.4688,3.9532,4.1913,3.8829,3.8141,3.7081,3.5232,3.4377,3.3928,3.3813,3.2959,3.2876,3.3659,3.3003,3.2924,3.3685,3.3207,3.3207,3.3685,3.3685,3.4036,3.4854,3.6946,3.6047,3.3029,3.4772,3.5692,3.6035,3.5198,3.5985,3.7428,3.6893,3.7019,3.7529,3.7529,3.7529,3.7655,3.8284,3.8485,3.8385,3.7756,3.7529,3.7529,3.7529,3.7529,3.7631,3.8284,3.8059,3.7655,3.8284,3.7529,3.6791,3.7428,3.7529,3.7326,3.6688,3.6598,3.639,3.5596,3.5453,3.546,3.5406,3.6607,3.7561,3.7561,3.8085,3.8287,3.7645,3.7521,3.7301,3.6662,3.6639,3.6639,3.6639,3.7153,3.7521,3.7521,3.8139,3.8485,3.8485,3.8485,3.8485,3.8485,3.8485,3.8485,3.8485,3.8485,3.8485,3.8485,3.8485,3.8485,-1.766,-2.2676,-2.7773,-3.0242,-3.0548,-2.9707,-2.8222,-2.7823,-2.695,-2.3885,-2.7535,-3.0462,-2.8003,-3.2532,-3.1936,-1.7488,-1.4757,-0.1453,3.5884,2.9913,2.174,2.1819,3.2128,3.791,3.4499,3.2012,3.1042,3.2185,2.9185,2.843,3.1083,2.9714,2.9429,3.069,2.968,2.9766,3.0989,3.0154,3.0177,3.1287,3.1287,3.1306,3.1412,3.4263,3.355,3.0153,3.1249,3.2307,3.3159,3.2953,3.4159,3.5963,3.4702,3.5019,3.6067,3.6067,3.6067,3.6275,3.7428,3.7958,3.7756,3.6482,3.6067,3.6067,3.6067,3.6067,3.6378,3.7529,3.7019,3.6378,3.7631,3.6067,3.4467,3.5755,3.5963,3.5418,3.4169,3.4062,3.4126,3.3908,3.389,3.3905,3.3954,3.5076,3.6031,3.6031,3.7182,3.7482,3.622,3.6058,3.5629,3.436,3.4213,3.4213,3.4213,3.5334,3.6152,3.6344,3.7497,3.8312,3.8485,3.8485,3.836,3.8187,3.836,3.8485,3.8485,3.8485,3.8485,3.8485,3.8485,3.8485,-2.1876,-2.4471,-2.6064,-2.6596,-2.4439,-2.2657,-2.4535,-2.4957,-2.491,-2.4717,-2.7005,-2.774,-2.3922,-2.697,-2.9427,-2.7477,-1.3492,-0.3317,-0.4537,0.046,1.1939,3.2541,3.707,3.5432,2.7604,2.8055,2.695,2.2493,2.3764,2.4237,2.2962,2.3593,2.4602,2.5852,2.4621,2.5142,2.7463,2.7325,2.7906,2.9123,2.9123,2.9146,2.9079,2.8519,2.881,2.973,3.0664,3.2208,3.393,3.2773,3.3181,3.4595,3.4276,3.4382,3.4595,3.4595,3.4595,3.4595,3.4914,3.4891,3.4914,3.468,3.4595,3.4595,3.4595,3.4595,3.4702,3.4891,3.4808,3.4702,3.4914,3.4595,3.4276,3.4467,3.3632,3.2676,3.2478,3.3372,3.3825,3.265,3.2422,3.2434,3.2394,3.358,3.4542,3.4542,3.4781,3.4907,3.4596,3.4617,3.4461,3.4287,3.4154,3.4154,3.4154,3.4461,3.5101,3.6314,3.6615,3.7277,3.846,3.8485,3.7966,3.6786,3.7842,3.8485,3.8485,3.8485,3.8485,3.8485,3.8485,3.8485,-2.0145,-2.1668,-2.271,-2.2931,-2.0738,-1.8793,-2.0025,-2.1544,-2.3041,-2.4431,-2.8988,-3.2171,-3.0249,-3.3108,-3.5383,-3.4269,-2.4587,-1.6535,-1.454,-0.8603,-0.0956,0.8276,1.5926,2.1575,2.4751,2.0806,1.8064,1.8182,1.8773,1.9408,2.0145,1.913,1.9225,2.0633,2.0729,2.1345,2.2581,2.332,2.4038,2.4623,2.4623,2.4623,2.4623,2.3864,2.4294,2.5675,2.694,2.848,3.0183,3.0261,3.1394,3.3004,3.2238,3.2458,3.3112,3.3112,3.3112,3.3221,3.3955,3.4169,3.4062,3.3329,3.3112,3.3112,3.3112,3.3112,3.3221,3.3955,3.3632,3.3329,3.4062,3.3091,3.2128,3.2895,3.2039,3.0948,3.0948,3.1465,3.1798,3.106,3.0948,3.1007,3.0977,3.1513,3.2258,3.3046,3.3704,3.3905,3.3225,3.3091,3.2759,3.2105,3.1972,3.1972,3.1972,3.2718,3.3361,3.4083,3.48,3.5539,3.6197,3.6251,3.5891,3.5246,3.5856,3.6297,3.6297,3.7005,3.7349,3.7449,3.8139,3.8485,-1.7301,-1.8192,-1.8933,-1.864,-1.6756,-1.5119,-1.5549,-1.7684,-2.0429,-2.3137,-2.9724,-3.5089,-3.5705,-3.8914,-4.0369,-3.7001,-3.4869,-2.9339,-1.6872,-1.2804,-1.2673,-1.6658,-0.5739,0.6558,1.7699,1.1479,0.8536,1.2902,1.2396,1.374,1.7939,1.5932,1.5231,1.631,1.7109,1.7815,1.8431,1.9573,2.0411,2.1019,2.1019,2.1019,2.1019,2.0411,2.0607,2.1475,2.3667,2.5314,2.6846,2.8437,3.003,3.1505,3.0407,3.0612,3.1616,3.1616,3.1616,3.1818,3.2874,3.3308,3.3091,3.1928,3.1616,3.1616,3.1616,3.1616,3.1818,3.2983,3.2458,3.1928,3.2983,3.1576,3.0181,3.1394,3.0724,2.9955,2.9955,2.9955,2.9955,2.9955,2.9955,2.9955,2.9955,2.9955,3.0277,3.1473,3.2585,3.2892,3.1799,3.1646,3.1188,3.0106,2.9955,2.9955,2.9955,3.1016,3.1779,3.2105,3.3141,3.3835,3.4152,3.3883,3.3706,3.3709,3.4107,3.4254,3.4254,3.5701,3.6338,3.6344,3.7497,3.799,-1.6283,-1.6402,-1.5756,-1.269,-1.0303,-0.9219,-1.1747,-1.3908,-1.647,-2.0326,-2.5398,-2.9701,-3.1629,-3.5262,-3.6773,-3.3035,-3.4134,-3.2728,-2.4676,-2.1467,-1.9196,-1.7337,-0.9126,-0.3022,-0.1726,-0.0108,0.0967,0.1506,0.2888,0.6635,1.3069,1.4087,1.4476,1.457,1.3761,1.453,1.7073,1.7175,1.8488,2.1019,2.1019,2.1019,2.0921,1.8387,1.804,1.9525,2.3559,2.6212,2.7638,2.9143,2.9992,3.0068,2.9955,3.0068,3.0181,3.0181,3.0181,3.0181,3.0275,3.0275,3.0275,3.0181,3.0181,3.0181,3.0181,3.0181,3.0181,3.0275,3.0181,3.0181,3.0275,3.0181,2.9955,3.0068,3.0068,2.9955,2.9955,2.9955,2.9955,2.9955,2.9955,2.9955,2.9955,2.9955,2.9974,3.0106,3.0257,3.0277,3.0125,3.0125,3.0106,2.9955,2.9955,2.9955,2.9955,3.0106,3.0712,3.1972,3.221,3.2873,3.4163,3.2944,3.2311,3.2262,3.3527,3.4163,3.4163,3.5642,3.6301,3.6344,3.6491,3.6515,-1.0872,-1.1283,-1.1529,-0.9593,-0.7636,-0.6677,-0.8497,-1.0376,-1.4159,-2.2778,-2.8248,-3.2201,-3.4673,-3.509,-3.431,-3.2021,-3.0339,-2.8033,-2.4204,-2.1488,-1.9527,-1.8875,-1.375,-1.0159,-0.9448,-0.6938,-0.5311,-0.5319,-0.1293,0.2259,0.4968,0.7126,0.9077,1.0954,1.1681,1.2385,1.3156,1.4841,1.6307,1.7316,1.7316,1.6895,1.6065,1.5884,1.6298,1.7303,2.0276,2.2487,2.4414,2.6362,2.7147,2.7147,2.7147,2.7744,2.855,2.855,2.9141,2.9955,2.9955,2.9955,2.9955,2.9955,2.9955,2.9955,2.9955,2.9955,2.9955,2.9955,2.9955,2.9955,2.9955,2.9955,2.9955,2.9955,2.9955,2.9955,2.9955,2.9955,2.9955,2.9955,2.9955,2.9955,2.9955,2.9955,2.9955,2.9955,2.9955,2.9955,2.9955,2.9955,2.9955,2.9955,2.9955,2.9955,2.9955,2.9955,3.0125,3.0732,3.0751,3.1036,3.1646,3.1036,3.0751,3.0751,3.1341,3.1646,3.1646,3.3067,3.3758,3.3797,3.4692,3.5061,-0.6909,-0.7545,-0.842,-0.7069,-0.5734,-0.504,-0.6437,-0.9312,-1.4246,-2.3222,-2.8001,-3.1225,-3.3551,-3.2612,-3.1202,-3.0377,-2.7674,-2.5004,-2.3094,-2.0692,-1.8803,-1.839,-1.5742,-1.3423,-1.2285,-1.0443,-0.9147,-0.8729,-0.4879,-0.2163,-0.1298,0.1406,0.4007,0.607,0.9105,1.0724,1.0895,1.2797,1.3949,1.4377,1.4377,1.3855,1.2807,1.3426,1.4204,1.534,1.7315,1.9317,2.1359,2.3674,2.4797,2.5287,2.5287,2.5995,2.6914,2.6914,2.7628,2.855,2.855,2.855,2.8683,2.9141,2.9255,2.9369,2.9842,2.9955,2.9955,2.9955,2.9955,2.9955,2.9955,2.9615,2.9141,2.8665,2.855,2.855,2.855,2.8912,2.9255,2.9255,2.9615,2.9955,2.9955,2.9955,2.9955,2.9955,2.9955,2.9955,2.9955,2.9955,2.9955,2.9955,2.9955,2.9955,2.9955,2.9955,2.9955,2.9955,2.9955,2.9955,2.9955,2.9955,2.9955,2.9955,2.9955,2.9955,2.9955,3.1341,3.2108,3.2121,3.3088,3.3611,-0.5723,-0.6288,-0.6931,-0.4844,-0.3927,-0.3967,-0.5621,-1.1449,-1.7216,-1.9912,-2.2248,-2.4171,-2.5373,-2.6282,-2.6931,-2.7175,-2.7121,-2.6012,-2.3117,-2.0483,-1.7943,-1.5312,-1.3751,-1.227,-1.0879,-1.0667,-1.0151,-0.881,-0.8702,-0.7385,-0.4446,-0.1514,-0.0,0.0108,0.5742,0.967,1.1486,1.101,1.1417,1.2807,1.2807,1.2807,1.2807,1.1417,1.1724,1.356,1.5829,1.7788,1.9686,2.1982,2.3844,2.5287,2.5287,2.5287,2.5287,2.5287,2.5287,2.5287,2.5287,2.5287,2.5507,2.7147,2.7611,2.7975,2.9482,2.9955,2.9955,2.9955,2.9955,2.9955,2.9955,2.8798,2.7263,2.5625,2.5287,2.5287,2.5287,2.6581,2.7611,2.7611,2.8894,2.9955,2.9955,2.9955,2.9955,2.9955,2.9955,2.9955,2.9955,2.9955,2.9955,2.9955,2.9955,2.9955,2.9955,2.9955,2.9955,2.9955,2.9955,2.9955,2.9955,2.9955,2.9955,2.9955,2.9955,2.9955,2.9955,3.1341,3.2105,3.2085,3.2085,3.2085,-0.5931,-0.613,-0.6328,-0.5851,-0.5638,-0.6859,-1.2132,-1.6362,-1.9751,-2.1714,-2.334,-2.468,-2.5654,-2.6027,-2.6105,-2.5942,-2.5795,-2.5024,-2.3094,-1.9741,-1.7263,-1.6385,-1.3385,-1.1196,-1.0773,-0.9931,-0.9205,-0.879,-0.8696,-0.8373,-0.7385,-0.6521,-0.4118,-0.0108,0.1837,0.4975,0.9562,1.1307,1.1921,1.1302,1.0486,1.0083,1.0091,1.0726,1.1571,1.2621,1.5713,1.7512,1.8622,2.0535,2.1592,2.2079,2.2079,2.2777,2.3724,2.3724,2.4321,2.5287,2.5287,2.5287,2.5405,2.5877,2.5978,2.6347,2.7842,2.8321,2.855,2.9615,2.9955,2.9501,2.7263,2.6347,2.586,2.5405,2.5287,2.5287,2.5287,2.5641,2.5978,2.5978,2.728,2.8321,2.8321,2.9255,2.9955,2.9955,2.9955,2.9955,2.9955,2.9955,2.9955,2.9955,2.9955,2.9955,2.9955,2.9955,2.9955,2.9955,2.9955,2.9955,2.9955,2.9955,2.9955,2.9955,2.9955,2.9955,2.9955,3.0409,3.058,3.058,3.058,3.058,-0.5712,-0.6002,-0.6534,-0.7342,-0.8109,-1.0396,-1.6951,-1.9044,-2.0082,-2.1846,-2.2833,-2.3359,-2.3263,-2.3979,-2.4488,-2.4151,-2.4247,-2.3605,-2.1553,-1.8731,-1.6781,-1.6282,-1.3917,-1.2357,-1.2357,-1.1628,-1.0895,-1.0372,-0.9747,-0.9433,-0.9433,-0.9032,-0.7067,-0.3461,-0.1189,0.1729,0.5414,0.9355,1.0221,0.8303,0.8588,0.8781,0.899,1.0043,1.0817,1.1365,1.4101,1.5676,1.6241,1.7992,1.901,1.9653,1.9653,2.0613,2.2065,2.2065,2.2656,2.3514,2.3514,2.3514,2.3619,2.4202,2.444,2.4678,2.6213,2.6698,2.6914,2.7842,2.8205,2.7611,2.5034,2.444,2.4202,2.3619,2.3514,2.3514,2.3514,2.3978,2.444,2.444,2.5625,2.6698,2.6698,2.7975,2.9026,2.9026,2.9615,2.9955,2.9955,2.9955,2.9728,2.9141,2.9026,2.9026,2.9026,2.9615,2.9955,2.9955,2.9955,2.9955,2.9955,2.9955,2.9955,2.9955,2.9955,2.9955,2.9955,2.9955,2.9955,2.9955,2.9955,2.9955,-0.5279,-0.6141,-0.7449,-0.9187,-1.1363,-1.4445,-1.9857,-1.9668,-1.878,-2.0248,-2.0651,-2.0195,-1.8521,-2.0364,-2.2092,-2.2033,-2.2607,-2.2005,-1.9077,-1.7627,-1.6332,-1.5117,-1.4931,-1.4839,-1.4805,-1.4805,-1.4273,-1.2912,-1.1628,-1.0879,-1.0879,-0.964,-0.8918,-0.8924,-0.3569,-0.0433,-0.0,0.4994,0.631,0.4013,0.7207,0.8907,0.9277,0.9297,0.9591,0.9975,1.1705,1.263,1.3188,1.4836,1.6492,1.7891,1.8027,1.9022,2.0406,2.0529,2.0652,2.0652,2.0652,2.0652,2.0885,2.2293,2.2762,2.3003,2.4678,2.505,2.5168,2.5287,2.5168,2.4575,2.3124,2.2762,2.2414,2.1007,2.0652,2.0652,2.0652,2.1714,2.2762,2.2762,2.4083,2.505,2.505,2.6447,2.7379,2.7379,2.8683,2.9615,2.9615,2.9615,2.9026,2.7611,2.7379,2.7379,2.7379,2.8779,2.9615,2.9615,2.9728,2.9728,2.9728,2.9842,2.9955,2.9955,2.9955,2.9955,2.9955,2.9955,2.9955,2.9955,2.9955,2.9955,-0.5716,-0.7492,-0.9853,-1.1941,-1.5739,-1.9195,-1.9973,-1.9776,-1.8888,-1.6794,-1.6215,-1.565,-1.419,-1.5873,-1.8287,-2.0753,-2.1603,-2.1243,-1.92,-1.7387,-1.585,-1.5058,-1.4385,-1.3923,-1.3362,-1.3332,-1.3227,-1.2807,-1.2481,-1.2376,-1.2376,-1.0993,-1.038,-1.0847,-0.8145,-0.4554,-0.0,-0.3043,-0.2722,0.1088,0.6225,0.8809,0.8862,0.9524,0.9804,1.0008,1.2078,1.2987,1.3188,1.4836,1.5728,1.6231,1.7516,1.8276,1.8773,2.0147,2.0652,2.0652,2.0652,2.0652,2.0639,2.1007,2.1117,2.1483,2.3003,2.3484,2.3724,2.4931,2.3514,2.1605,2.1239,2.1117,2.0994,2.0652,2.0652,2.0652,2.0652,2.0885,2.1117,2.1117,2.2414,2.3484,2.3484,2.4797,2.5877,2.5877,2.6095,2.633,2.633,2.633,2.6229,2.5877,2.5877,2.5877,2.5877,2.6095,2.633,2.633,2.7495,2.8205,2.8205,2.9255,2.9955,2.9955,2.9955,2.9955,2.9955,2.9955,2.9955,2.9955,2.9955,2.9955,-0.4629,-0.7542,-1.1175,-1.4195,-1.6845,-1.8713,-1.8519,-1.7001,-1.5214,-1.3815,-1.2895,-1.241,-1.2479,-1.3668,-1.5415,-1.8007,-1.8191,-1.7622,-1.6222,-1.5082,-1.4525,-1.4909,-1.4607,-1.4535,-1.5143,-1.4929,-1.4805,-1.4805,-1.4169,-1.3855,-1.3855,-1.183,-1.0781,-1.1124,-0.9562,-0.6516,-0.2056,-0.6443,-0.712,-0.3926,0.1879,0.6367,0.9551,0.9958,1.0221,1.0219,1.1373,1.1816,1.1937,1.2823,1.3705,1.4457,1.535,1.6241,1.7005,1.8004,1.8253,1.8377,1.9146,1.99,2.0652,2.0652,2.0652,2.0762,2.1592,2.1822,2.2065,2.2912,2.1957,2.0652,2.0652,2.0652,2.0652,2.0652,2.0652,2.0652,2.0652,2.0652,2.0652,2.0652,2.1239,2.1822,2.1822,2.3138,2.4202,2.4202,2.4797,2.5287,2.5287,2.5287,2.505,2.4321,2.4202,2.4202,2.4202,2.4202,2.4559,2.5287,2.5373,2.6079,2.7495,2.7744,2.809,2.8798,2.8912,2.8912,2.8912,2.9615,2.9955,2.9955,2.9955,2.9955,-0.2226,-0.6872,-1.216,-1.4838,-1.5926,-1.6303,-1.6018,-1.3153,-1.0737,-1.1306,-1.0403,-1.0036,-1.1769,-1.2299,-1.3065,-1.4693,-1.4137,-1.3269,-1.2588,-1.2758,-1.3482,-1.4956,-1.5347,-1.6037,-1.7691,-1.753,-1.7283,-1.7374,-1.6127,-1.5441,-1.5441,-1.2606,-1.0985,-1.0985,-0.9541,-0.7498,-0.4987,-0.7527,-0.8788,-0.8731,-0.3728,0.2217,0.8881,1.0001,1.0238,0.9661,1.032,1.0443,1.0552,1.0552,1.1303,1.2687,1.2934,1.395,1.5214,1.5476,1.5602,1.5728,1.713,1.8637,1.9888,2.0147,2.027,2.027,2.0529,2.0652,2.0652,2.0652,2.0652,2.0652,2.0652,2.0652,2.0652,2.0652,2.0652,2.0652,2.0652,2.0652,2.0652,2.0652,2.0652,2.0652,2.0652,2.1714,2.2642,2.2642,2.3739,2.4575,2.4575,2.4575,2.4098,2.2762,2.2642,2.2642,2.2642,2.2642,2.3124,2.4456,2.3259,2.3828,2.6797,2.5625,2.5625,2.7263,2.7263,2.7263,2.7263,2.855,2.9255,2.9255,2.935,2.9464,0.2157,-0.5878,-1.3647,-1.0699,-1.3738,-1.6405,-1.2541,-1.083,-0.9927,-0.9608,-0.9023,-0.881,-0.9555,-0.9968,-1.0705,-1.2173,-1.1749,-1.1564,-1.2622,-1.3996,-1.517,-1.6044,-1.6934,-1.7533,-1.7838,-1.7773,-1.8036,-1.853,-1.7884,-1.7388,-1.7388,-1.4278,-1.2481,-1.2481,-1.0075,-0.8487,-0.8049,-0.8493,-0.8751,-0.8685,-0.78,-0.4251,0.1746,0.7797,0.8819,0.6246,0.926,1.0443,1.0552,1.0552,1.0681,1.1053,1.2432,1.3188,1.357,1.4962,1.5602,1.5602,1.5854,1.6105,1.6618,1.8015,1.8525,1.8773,2.0147,2.0652,2.0652,2.0652,2.0652,2.0652,2.0652,2.0652,2.0652,2.0652,2.0652,2.0652,2.0652,2.0652,2.0652,2.0652,2.0652,2.0652,2.0652,2.0762,2.1007,2.1007,2.1117,2.1361,2.1361,2.1361,2.1239,2.1007,2.1007,2.1007,2.1007,2.1007,2.113,2.1252,2.113,2.1714,2.3589,2.3469,2.4083,2.5641,2.5641,2.5641,2.5641,2.5877,2.5995,2.5978,2.6829,2.7257,0.7138,0.1912,-0.391,-0.6424,-1.0054,-1.242,-1.0343,-0.9653,-0.9362,-0.8838,-0.8305,-0.8094,-0.8712,-0.875,-0.8865,-0.9537,-0.9581,-0.9541,-0.9673,-1.1915,-1.4095,-1.5456,-1.6928,-1.798,-1.84,-1.8426,-1.853,-1.8802,-1.8582,-1.8296,-1.7863,-1.5764,-1.4012,-1.2816,-1.0904,-0.9505,-0.8926,-0.9057,-0.9111,-0.9207,-0.9493,-0.6247,0.0126,0.3319,0.5953,0.824,0.9827,1.0469,1.0436,1.0436,1.0436,1.0565,1.131,1.1688,1.1703,1.2584,1.2831,1.295,1.3823,1.4204,1.4457,1.6116,1.6743,1.7005,1.8773,1.9282,1.9022,1.8128,1.9134,2.0393,1.9529,1.99,2.0652,2.0652,2.0652,2.0652,2.0652,2.0652,2.0652,2.0652,2.0652,2.0652,2.0652,2.0652,2.0652,2.0652,2.0652,2.0652,2.0652,2.0652,2.0652,2.0652,2.0652,2.0652,2.0652,2.0652,2.0652,2.0652,2.0652,2.0885,2.1714,2.2535,2.2883,2.2791,2.3619,2.3963,2.3963,2.4813,2.5002,2.4435,2.4961,2.452,0.9812,0.0,0.3127,-0.4124,-0.7438,-0.8991,0.0,-0.9057,-0.8843,-0.8447,-0.7828,-0.7596,-0.8194,-0.7909,-0.7548,-0.7526,-0.7645,-0.7588,-0.7073,-0.9195,-1.1756,-1.4217,-1.6291,-1.7841,-1.8556,-1.8867,-1.9075,-1.9218,-1.9101,-1.859,-1.7699,-1.6221,-1.4491,-1.2536,-1.1427,-1.0404,-0.9223,-0.9357,-0.9408,-0.9597,-0.9345,-0.694,-0.2409,-0.0778,0.3797,1.0522,1.0522,0.9963,0.9266,1.0191,1.0463,1.0463,0.9642,0.9778,1.0449,1.0436,1.0552,1.0674,1.1937,1.2432,1.2687,1.3959,1.4592,1.5214,1.7005,1.7255,1.6743,1.5854,1.7369,1.9134,1.7766,1.8389,1.9381,1.9381,1.9764,2.0024,2.0024,2.027,2.0652,2.0652,2.0652,2.0652,2.0652,2.0652,2.0652,2.0652,2.0652,2.0652,2.0652,2.0652,2.0652,2.0652,2.0652,2.0652,2.0652,2.0652,2.0652,2.0652,2.0652,2.0652,2.0652,2.17,2.1822,2.0652,2.1822,2.2414,2.2414,2.3619,2.3798,2.2962,2.3008,2.2138,0.0,0.3482,-0.1295,-0.5653,-0.787,-0.9022,-0.9266,-0.8826,0.0,-0.8384,-0.7562,-0.702,-0.7538,-0.7238,-0.689,-0.6864,-0.608,-0.5816,-0.6879,-0.7123,-0.8642,0.0,-1.5038,-1.6829,-1.7812,-1.8984,-1.9828,-2.0482,-1.9906,-1.885,-1.7232,-1.5118,-1.321,-1.1402,-1.1513,-1.0892,-0.9526,-0.9533,-0.9685,-0.9851,-0.6996,-0.7121,-0.9561,-0.3007,0.3797,1.0522,1.0522,0.864,0.5857,0.9154,1.0482,1.0216,0.6907,0.7556,1.0456,1.0449,1.0436,1.0552,1.0674,1.0674,1.0674,1.0803,1.1937,1.357,1.5224,1.4583,1.3697,1.5098,1.5728,1.5854,1.5728,1.5854,1.5854,1.5854,1.713,1.8276,1.8276,1.9529,2.0652,2.0652,2.0652,2.0652,2.0652,2.0652,2.0652,2.0652,2.0652,2.0652,2.0652,2.0652,2.0652,2.0652,2.0652,2.0652,2.0652,2.0652,2.0652,2.0652,2.0652,2.0652,2.0652,2.0639,2.0762,2.0652,2.0762,2.0775,2.0775,2.0885,2.0885,2.0858,2.0876,2.0742,0.5533,0.3154,0.0746,-0.4053,-0.7135,-0.8896,-0.8349,-0.8607,-0.8692,-0.7596,-0.7319,-0.7252,-0.7129,-0.6679,-0.6322,-0.633,-0.5707,-0.5456,-0.6034,-0.7009,-0.8859,-1.218,-1.5694,0.0,-1.8945,-1.9413,-1.9906,-2.06,-2.0322,-1.9795,-1.8701,-1.6874,-1.4686,-1.2124,-1.088,-1.0108,-0.9816,-0.9816,-0.9975,-1.0285,-0.9126,-0.8012,-0.7181,-0.4434,-0.2997,-0.2605,-0.2605,0.1692,0.0,0.9976,0.798,0.4036,0.4945,0.7436,1.0496,1.0482,1.0469,1.0463,1.0449,1.0443,1.0443,1.0552,1.0925,1.1552,1.2192,1.1937,1.156,1.2192,1.3968,1.535,1.4204,1.471,1.5602,1.5602,1.598,1.6743,1.7891,1.8525,1.9393,2.0393,2.0652,2.0652,2.0652,2.0652,2.0652,2.0652,2.0652,2.0652,2.0652,2.0652,2.0652,2.0652,2.0652,2.0652,2.0652,2.0652,2.0652,2.0652,2.0652,2.0652,2.0652,2.0652,2.0652,2.0652,2.0652,2.0652,2.0652,2.0652,2.0652,2.0652,2.0548,2.0552,0.7257,0.56,0.3631,-0.1598,-0.4997,-0.7247,-0.7925,-0.8436,-0.8376,-0.7064,-0.6953,-0.6994,-0.6638,-0.613,-0.5756,-0.5622,-0.5321,-0.523,-0.57,-0.6886,0.0,-1.1084,-1.469,-1.7254,0.0,-1.9254,-2.0101,-2.0626,-2.0652,-2.0225,-1.9226,-1.7439,-1.5482,-1.3437,-1.1147,-0.9929,-1.0113,-1.0113,-1.0225,-1.0443,-1.0449,-0.926,-0.6903,-0.6912,-0.8245,-1.0385,-0.813,-0.1697,0.7208,0.7208,0.4312,0.0261,0.2607,0.6404,1.0515,1.0502,0.9827,0.8883,0.8872,0.9531,1.0449,1.0436,1.0559,1.0552,1.0552,1.0552,1.0552,1.0552,1.2277,1.3733,1.2592,1.3161,1.4119,1.3995,1.4439,1.5133,1.6272,1.6997,1.782,1.9554,1.9777,2.0024,2.0516,2.0652,2.0652,2.0652,2.0652,2.0652,2.0652,2.0652,2.0652,2.0652,2.0652,2.0652,2.0652,2.0652,2.0652,2.0652,2.0652,2.0652,2.0652,2.0652,2.0652,2.0652,2.0652,2.0652,2.0652,2.0652,2.0652,2.0652,2.0652,2.0561,1.3247,1.0766,0.6755,0.1422,-0.1185,-0.3646,-0.8073,-0.8254,-0.7417,-0.6898,-0.6407,-0.6005,-0.6005,-0.5588,-0.5133,-0.4704,-0.4673,-0.4963,-0.5861,-0.6407,-0.7266,0.0,-1.1379,-1.3514,-1.5252,-1.8553,-2.0652,-2.0652,-2.0652,-1.99,-1.8151,-1.6164,-1.5137,-1.5466,-1.22,-1.0552,-1.0552,-1.0552,-1.0552,-1.0552,-1.0443,-1.0456,-1.0456,-1.0502,-1.0522,-1.0125,-0.3141,-0.0131,-0.0131,-0.0131,-0.0131,-0.0,-0.0,0.432,1.0385,1.0385,0.8245,0.5205,0.5335,0.7556,1.0456,1.0456,1.0443,1.0552,1.0552,1.0552,1.0552,1.0552,1.0634,1.0799,1.0502,1.0647,1.0799,1.0632,1.194,1.3394,1.3024,1.4528,1.6398,1.7741,1.8027,1.8649,2.027,2.0529,2.0652,2.0652,2.0652,2.0652,2.0652,2.0652,2.0652,2.0652,2.0529,2.0529,2.0529,2.0529,2.0652,2.0652,2.0652,2.0652,2.0652,2.0652,2.0652,2.0652,2.0652,2.0652,2.0652,2.0652,2.0652,2.0652,2.0652,2.0652,1.3182,1.4002,1.3981,0.761,0.2996,-0.0407,-0.2291,-0.4293,-0.5893,-0.6182,-0.613,-0.6005,-0.6005,-0.5243,-0.4603,-0.4657,-0.4908,-0.5306,-0.5947,-0.7527,-0.9647,-1.2386,0.0,-1.6133,-1.8157,-1.9731,-2.0652,-2.0652,-2.0652,-2.0393,-1.99,-1.6978,-1.4829,-1.3815,-1.1688,-1.0552,-1.0552,-1.0552,-1.0552,-1.0552,-1.0559,-1.0559,-1.0559,-1.0443,-1.0456,-1.034,-0.8359,-0.745,-0.7343,-0.7343,-0.4451,-0.0,-0.0,0.1309,0.3141,0.3141,0.2486,0.2221,0.7194,0.9573,1.0496,1.0463,1.0449,1.0443,1.0443,1.0436,1.0552,1.0552,1.0634,1.0845,1.0759,1.0944,1.1135,1.1043,1.1493,1.2214,1.3333,1.3859,1.464,1.6227,1.7369,1.8276,1.8773,1.9777,2.0652,2.0652,2.0652,2.0652,2.0652,2.0652,2.0652,2.0652,1.9529,1.8773,1.8773,1.99,2.0652,2.0652,2.0652,2.0652,2.0652,2.0652,2.0652,2.0652,2.0652,2.0652,2.0652,2.0652,2.0652,2.0652,2.0652,2.0652,1.449,1.5858,1.6784,1.164,0.7137,0.3423,0.1452,-0.1209,-0.3672,-0.5171,-0.5483,-0.5493,-0.5482,-0.4664,-0.4208,-0.4919,-0.5189,-0.5617,-0.6693,-0.8207,-1.0239,-1.311,-1.5011,0.0,0.0,0.0,-2.0652,-2.0652,-2.0652,-2.0652,-2.0652,-1.8004,-1.5728,-1.4077,-1.244,-1.1182,-1.0552,-1.0552,-1.0552,-1.0552,-1.0552,-1.0552,-1.0552,-1.0559,-1.0443,-1.0456,-1.0463,-1.0482,-1.0509,-1.0515,-0.8,-0.3928,-0.1048,-0.0,-0.0,-0.0,-0.0,0.0655,0.4846,0.813,1.0515,1.0489,1.0482,1.0476,1.0469,1.0449,1.0436,1.0436,1.0561,1.0746,1.097,1.1069,1.1142,1.1247,1.1366,1.1701,1.2549,1.264,1.2984,1.4579,1.5659,1.6458,1.7037,1.8038,1.8748,1.8661,1.8626,1.8626,1.8626,1.8626,1.8626,1.8626,1.763,1.713,1.713,1.8637,1.9653,1.9653,2.027,2.0652,2.0652,2.0652,2.0652,2.0652,2.0652,2.0652,2.0652,2.0652,2.0652,2.0652,2.0652,2.077,1.6506,1.6618,1.6549,1.4161,1.1007,0.7617,0.3881,0.1261,-0.1226,-0.3904,-0.4578,-0.4646,-0.4657,-0.4093,-0.4098,-0.5465,-0.5577,-0.6158,-0.797,-0.873,-1.0019,-1.2464,0.0,0.0,-1.814,-1.9653,-2.0652,-2.0652,-2.0652,-2.0652,-2.0652,-1.9022,-1.7255,-1.5602,-1.4077,-1.244,-1.0803,-1.0674,-1.0681,-1.0552,-1.0552,-1.0552,-1.0552,-1.0443,-1.0449,-1.0449,-1.0476,-1.0482,-1.0489,-1.0509,-1.0255,-0.9319,-0.3009,-0.0655,-0.0917,-0.0917,-0.0524,-0.0,-0.0,0.419,0.9591,1.0255,1.0522,1.0515,1.0496,1.0476,1.0456,1.0456,1.0476,1.0621,1.1142,1.1135,1.1049,1.13,1.1564,1.1689,1.1418,1.1339,1.1651,1.2984,1.3401,1.3772,1.5086,1.5701,1.5808,1.5535,1.5602,1.5602,1.5602,1.5602,1.5476,1.5098,1.5224,1.535,1.535,1.6869,1.7891,1.8027,1.9517,2.0406,2.0652,2.0652,2.0652,2.0652,2.0393,2.0393,2.0652,2.0393,2.0393,2.0652,2.0705,2.088,1.6345,1.7159,1.8191,1.6663,1.3875,1.0746,0.7918,0.37,-0.0322,-0.2508,-0.3889,-0.4646,-0.4657,-0.4584,-0.4872,-0.5815,-0.6811,-0.782,-0.8808,-1.0732,-1.2811,0.0,-1.643,0.0,-1.99,-2.0393,0.0,-2.0652,-2.0652,-2.0652,-2.0652,-1.9022,-1.7255,-1.5602,-1.5214,-1.4204,-1.256,-1.2432,-1.1808,-1.0552,-1.0552,-1.0552,-1.0552,-1.0552,-1.0559,-1.0559,-1.0436,-1.0443,-1.0463,-1.0469,-0.8883,-0.6254,-0.4689,-0.5876,-0.8266,-0.8266,-0.4712,-0.0,-0.0,0.1048,0.3141,0.8662,1.0522,1.0522,1.0515,1.0482,1.0456,1.0456,1.0766,1.1122,1.1247,1.1583,1.1906,1.1966,1.2032,1.2058,1.1992,1.1788,1.1603,1.1965,1.2792,1.346,1.3772,1.487,1.5584,1.5612,1.5602,1.5602,1.5602,1.5602,1.4592,1.1816,1.2815,1.357,1.357,1.5088,1.6618,1.8027,1.84,1.927,2.0529,2.0652,2.0652,2.0652,1.9282,1.927,2.0652,1.927,1.9282,2.0665,2.0984,2.1256,1.4959,1.5262,1.5781,1.4344,1.2819,1.1108,0.9095,0.5791,0.2543,0.0326,-0.2229,-0.4151,-0.4337,-0.4774,-0.5379,-0.6329,-0.7397,-0.8451,-0.9408,-1.1369,-1.3496,-1.5321,-1.7005,-1.8773,-2.0406,-2.0652,-2.0652,-2.0652,-2.0652,-2.0652,-2.0652,-1.9777,-1.8513,-1.6869,-1.6754,-1.5602,-1.3061,-1.3061,-1.2185,-1.0552,-1.0552,-1.0552,-1.0552,-1.0552,-1.0552,-1.0552,-1.0552,-1.0559,-1.0436,-1.0449,-0.9396,-0.782,-0.783,-0.89,-1.0522,-1.0522,-0.8145,-0.4596,-0.1179,-0.0,0.0655,0.432,0.5503,0.5503,0.5503,0.7854,1.0482,1.0476,1.0772,1.1259,1.1247,1.161,1.1992,1.2137,1.2321,1.2321,1.2321,1.1933,1.1722,1.1722,1.2173,1.2584,1.2428,1.3056,1.3402,1.3377,1.3194,1.3078,1.3078,1.3078,1.2448,1.0674,1.131,1.1808,1.1808,1.3324,1.471,1.5602,1.6367,1.7244,1.8117,1.8128,1.8501,1.9393,1.7754,1.7754,1.9393,1.8525,1.8654,1.9786,2.0836,2.1659,1.3136,1.2929,1.2596,1.1311,1.0879,1.0398,0.9117,0.7679,0.0,0.2962,-0.059,-0.3405,-0.4151,-0.4958,-0.5881,-0.7001,-0.8147,-0.923,-1.027,-1.2129,-1.4099,0.0,-1.7505,-1.9022,-2.0529,-2.0652,0.0,0.0,-2.0652,-2.0652,-2.0652,-2.0652,-2.0024,-1.8525,-1.8525,-1.6994,-1.395,-1.395,-1.307,-1.131,-1.131,-1.131,-1.131,-1.131,-1.131,-1.131,-1.1053,-1.0925,-1.0932,-1.0565,-1.0449,-1.0449,-1.0469,-1.0489,-1.0379,-0.9846,-1.0007,-0.964,-0.3805,-0.1048,-0.0,-0.0,-0.0,-0.0,-0.0,0.4977,1.0528,1.0561,1.0772,1.1179,1.1293,1.1583,1.1867,1.2111,1.2321,1.2321,1.2321,1.1972,1.1801,1.1801,1.1755,1.1623,1.1326,1.1234,1.1109,1.0832,1.0581,1.0552,1.0552,1.0552,1.0552,1.0552,1.0552,1.0552,1.0552,1.1808,1.2687,1.3061,1.433,1.5224,1.5602,1.5602,1.6231,1.7641,1.598,1.598,1.7641,1.738,1.7633,1.8368,2.029,2.1664,1.1769,1.2343,1.2807,1.2586,1.1628,1.0485,0.9602,0.8841,0.71,0.2734,-0.0204,-0.2614,-0.4707,-0.599,-0.7028,-0.7839,0.0,-1.2059,-1.2542,-1.5388,-1.7438,-1.7754,-1.927,-2.0406,-2.0529,-2.0652,-2.0652,-2.0652,-2.0652,-2.0652,-2.0652,-2.0652,-2.0529,-2.027,-2.027,-1.9393,-1.7391,-1.738,-1.6503,-1.4845,-1.4845,-1.4845,-1.4845,-1.4845,-1.4845,-1.4845,-1.3324,-1.2679,-1.256,-1.1053,-1.0552,-1.0552,-1.0559,-1.0443,-1.0068,-0.7037,-0.7845,-1.0398,-0.9366,-0.5124,-0.0,-0.0,-0.0,-0.0,-0.0,0.4977,1.0444,1.0551,1.0821,1.1372,1.1479,1.1913,1.2144,1.2163,1.2321,1.2321,1.2321,1.2137,1.2111,1.2111,1.19,1.1623,1.1326,1.1076,1.0819,1.0522,1.0572,1.0552,1.0552,1.0552,1.0552,1.0552,1.0552,1.0552,1.0552,1.0674,1.1431,1.2934,1.3188,1.4077,1.5476,1.5602,1.5602,1.5854,1.4204,1.4204,1.5854,1.4457,1.454,1.6407,1.8792,2.0113,1.0088,1.038,1.0585,1.0585,1.0045,0.9516,0.9199,0.8915,0.7273,0.188,-0.0575,-0.2324,-0.4345,-0.6279,-0.8095,0.0,0.0,0.0,-1.4303,-1.6492,-1.8027,0.0,-1.9529,0.0,-2.0652,-2.0652,-2.0652,-2.0652,-2.0652,-2.0652,-2.0652,-2.0652,-2.0652,-2.0652,-2.0652,-2.0283,-1.9517,-1.8525,-1.7255,-1.5602,-1.5602,-1.5602,-1.5602,-1.5602,-1.5088,-1.4077,-1.3316,-1.2432,-1.1552,-1.0803,-1.0552,-1.0552,-1.0552,-1.0436,-1.032,-0.8737,-0.916,-1.0522,-1.0548,-0.8412,-0.5895,-0.5895,-0.3272,-0.0,-0.0,0.2144,0.5394,0.9444,1.1136,1.1374,0.9082,1.0322,1.2203,1.219,1.2183,1.2321,1.2321,1.2321,1.2321,1.2321,1.2065,1.1933,1.1801,1.1537,1.1247,1.0944,1.0772,1.0608,1.0572,1.0552,1.0552,1.0552,1.0552,1.0552,1.0552,1.0552,1.0803,1.1552,1.1552,1.1937,1.2703,1.2703,1.3205,1.4077,1.244,1.244,1.4077,1.3443,1.3742,1.4998,1.7082,1.8389,0.8414,0.8467,0.8503,0.8737,0.8797,0.8797,0.8709,0.7632,0.5266,0.0923,-0.1064,-0.2568,-0.4787,-0.6913,-0.8806,-1.0125,-1.2292,0.0,-1.535,-1.738,0.0,-1.8773,0.0,-2.0652,-2.0652,-2.0652,0.0,0.0,-2.1239,-2.1239,-2.1239,-2.0762,-2.0652,-2.0652,-2.0652,-2.0652,-2.0652,-1.9406,-1.8128,-1.6858,-1.6858,-1.6858,-1.6858,-1.6858,-1.6095,-1.4953,-1.4068,-1.2942,-1.1688,-1.0803,-1.0552,-1.0552,-1.0552,-1.0559,-1.0449,-1.0449,-1.0476,-1.0515,-1.0594,-1.0621,-1.0515,-1.0859,-0.6017,-0.0,-0.0,-0.0,0.1109,0.6401,0.8437,0.887,0.7862,0.9937,1.2229,1.2216,1.2196,1.2183,1.2183,1.2177,1.2321,1.2321,1.2321,1.2321,1.2321,1.1854,1.1511,1.1214,1.0931,1.0674,1.0579,1.0552,1.0552,1.0552,1.0552,1.0552,1.0552,1.0552,1.0552,1.0552,1.0552,1.0552,1.0552,1.0552,1.1053,1.2312,1.1182,1.1182,1.2432,1.2398,1.275,1.3474,1.5365,1.6636,0.6701,0.7308,0.7647,0.8518,0.8722,0.8709,0.8735,0.4447,0.034,0.0113,-0.132,-0.3572,-0.6947,-0.8373,-0.9164,-0.9564,-1.2816,-1.5476,-1.5602,-1.8377,-2.0529,0.0,0.0,0.0,0.0,0.0,0.0,-2.2762,-2.2883,-2.2883,-2.2883,-2.1348,-2.0652,-2.0652,-2.0652,-2.0652,-2.0652,-2.0529,-2.0406,-2.0406,-2.0406,-2.0406,-2.0406,-2.0406,-2.027,-2.0024,-1.6858,-1.535,-1.5098,-1.1816,-1.0552,-1.0552,-1.0552,-1.0552,-1.0552,-1.0449,-1.0456,-1.0502,-1.0919,-1.0769,-1.0711,-1.1852,-0.6641,-0.0,-0.0,-0.0,0.0142,0.0438,0.0588,0.2366,0.9889,1.213,1.2289,1.2249,1.2216,1.2203,1.2203,1.2183,1.2321,1.2321,1.2321,1.2321,1.2321,1.1682,1.1208,1.0931,1.0634,1.0565,1.0552,1.0552,1.0552,1.0552,1.0552,1.0552,1.0552,1.0552,1.0552,1.0552,1.0552,1.0552,1.0552,1.0552,1.0552,1.0674,1.0552,1.0552,1.0674,1.0832,1.1126,1.142,1.368,1.4895,0.627,0.5889,0.5888,0.8189,0.7294,0.5423,0.358,0.1559,-0.0,-0.0,-0.3504,-0.7037,-0.8599,-0.935,-1.0078,-1.1255,-1.3746,-1.598,-1.7005,-1.9134,-2.0652,-2.0652,-2.0652,-2.0652,0.0,0.0,0.0,-2.2883,-2.3003,-2.3003,-2.3003,-2.2414,-2.1592,-2.0652,-2.0652,-2.0652,-2.0652,-2.0652,-2.0652,-2.0652,-2.0652,-2.0652,-2.0652,-2.0652,-2.0226,-1.94,-1.8227,-1.6568,-1.4561,-1.3372,-1.2175,-1.097,-1.097,-1.097,-1.095,-1.0779,-1.0866,-1.0919,-1.1186,-1.1168,-1.0924,-0.89,-0.8085,-0.6834,-0.1589,-0.0,-0.0,-0.0,-0.0,0.0604,0.3656,0.8269,1.2302,1.2282,1.023,0.8972,1.1737,1.2196,1.219,1.2177,1.2321,1.2321,1.2321,1.1992,1.1689,1.1201,1.0891,1.0706,1.0706,1.0542,1.0552,1.0552,1.0552,1.0552,1.0552,1.0552,1.0552,1.0552,1.0552,1.0552,1.0552,1.0552,1.0552,1.0552,1.0552,1.0552,1.0552,1.0528,1.0819,1.128,1.2075,1.2693,0.4116,0.4102,0.448,0.554,0.4344,0.2386,0.0435,-0.0,-0.0,-0.0,-0.4965,-0.9019,-0.8231,-0.9146,-1.0522,-1.1611,-1.3414,-1.535,-1.7005,-1.8637,-2.0024,-2.0529,-2.0652,0.0,0.0,0.0,-2.2549,-2.3604,-2.4187,-2.4544,-2.4544,-2.3948,-2.3018,-2.1483,-2.1348,-2.1117,-2.0652,-2.0652,-2.0652,-2.0652,-2.0652,-2.0652,-2.0652,-2.0724,-2.0607,-1.9939,-1.9403,-1.7982,-1.5934,-1.4699,-1.3466,-1.2234,-1.1552,-1.1273,-1.1254,-1.1069,-1.1082,-1.1339,-1.1372,-1.1586,-1.1336,-0.8959,-0.9011,-0.9352,-0.5338,-0.4172,-0.3588,-0.076,-0.0,-0.0,-0.0,0.3971,0.8112,0.8112,0.8094,0.8845,1.1617,1.2229,1.221,1.2196,1.219,1.2183,1.2183,1.2177,1.1999,1.1504,1.1267,1.1122,1.1166,1.0812,1.0443,1.0436,1.0559,1.0559,1.0552,1.0552,1.0552,1.0552,1.0552,1.0552,1.0552,1.0552,1.0552,1.0552,1.0552,1.0552,1.0552,1.0614,1.0904,1.128,1.1484,1.1788,0.0292,0.2041,0.3468,0.0722,-0.0,-0.0,-0.0,-0.0,-0.0,-0.0,-0.5415,-0.9152,-0.596,-0.8208,-1.0449,-1.0552,-1.1937,-1.357,-1.5224,-1.7005,-1.8649,-2.027,-2.0529,-2.0652,0.0,-2.3379,-2.5287,-2.5287,-2.6797,-2.7628,-2.7628,-2.6213,-2.4678,-2.2989,-2.2989,-2.2293,-2.0652,-2.0652,-2.0652,-2.0652,-2.0652,-2.0652,-2.0691,-2.1114,-2.1685,-2.2097,-2.0477,-1.9669,-1.941,-1.5834,-1.432,-1.4052,-1.2131,-1.13,-1.1306,-1.1306,-1.1484,-1.1735,-1.1735,-1.1748,-1.1814,-1.2104,-0.9582,-0.6991,-1.1041,-1.2302,-1.0584,-0.2289,-0.0,-0.0,-0.0,-0.0,-0.0,-0.0,0.6115,1.1991,1.215,1.2269,1.2236,1.2078,1.2065,1.2045,1.2203,1.219,1.2071,1.1781,1.1735,1.1636,1.1486,1.0838,1.0366,1.0327,1.0456,1.0449,1.0552,1.0552,1.0552,1.0552,1.0552,1.0552,1.0552,1.0552,1.0552,1.0552,1.0552,1.0552,1.0552,1.0977,1.1254,1.1273,1.1867,1.215,0.0072,0.0592,0.099,0.0186,-0.0,-0.0,-0.0,-0.0,-0.0,-0.0,-0.1574,-0.4151,-0.8263,-0.9832,-1.0469,-1.0449,-1.1944,-1.3188,-1.3697,-1.6241,-1.8276,-1.8773,-1.99,-2.1007,-2.2172,-2.3124,-2.4544,-2.6797,-2.7379,-2.7628,-2.7628,-2.7164,-2.6213,-2.4678,-2.4678,-2.3844,-2.2293,-2.2293,-2.17,-2.0652,-2.0652,-2.075,-2.114,-2.1295,-2.1906,-2.2828,-2.2417,-2.151,-2.0561,-1.9552,-1.7399,-1.4824,-1.424,-1.323,-1.192,-1.192,-1.1979,-1.2045,-1.2045,-1.2051,-1.2071,-1.217,-1.1429,-1.0673,-1.1972,-1.2302,-1.0584,-0.2289,-0.0,-0.0,-0.0,-0.0,-0.0,-0.0,0.1679,0.5041,1.09,1.2295,1.1339,0.8371,0.7752,0.8669,1.1756,1.2223,1.2183,1.2084,1.2084,1.0783,0.747,0.689,0.6672,0.6669,0.9013,1.0476,1.0469,1.0469,1.0463,1.0449,1.0443,1.0436,1.0552,1.0552,1.0552,1.0552,1.0552,1.0552,1.0552,1.0581,1.0766,1.099,1.1353,1.1643,-0.0,-0.0,-0.0,-0.0,-0.0,-0.0,-0.0,-0.0,-0.0,-0.0,-0.0,-0.2194,-0.9176,-1.0492,-1.0492,0.0,-1.1332,-1.2192,-1.2934,-1.535,-1.7255,-1.8027,-1.9529,-2.1239,-2.2762,-2.3469,-2.49,-2.7379,-2.8205,-2.855,-2.855,-2.855,-2.7842,-2.6347,-2.6213,-2.5137,-2.3003,-2.3003,-2.2298,-2.088,-2.088,-2.1179,-2.1724,-2.1971,-2.2438,-2.3087,-2.3321,-2.3027,-2.2142,-2.0391,-1.8501,-1.616,-1.454,-1.3208,-1.2321,-1.3208,-1.2908,-1.2321,-1.2321,-1.2321,-1.2177,-1.219,-1.219,-1.2203,-1.2249,-1.1017,-0.9016,-0.5956,-0.2594,-0.0,-0.0,-0.0,-0.0,-0.0,-0.0,0.1374,0.6115,0.7189,0.6416,0.3956,0.624,0.9466,1.1794,1.0848,1.0219,1.1933,0.9384,0.618,0.3473,0.3049,0.4246,0.7104,0.9313,0.9963,0.8489,0.8359,0.8354,0.8343,0.9661,1.0449,1.0436,1.0552,1.0552,1.0552,1.0552,1.0552,1.0552,1.0548,1.0693,1.0871,1.1148,1.1306,-0.0223,-0.0092,-0.0,-0.0,-0.0,-0.0,0.0,0.0,-0.0,-0.0,-0.0,-0.1922,-0.8112,-0.9998,-1.0393,-0.9922,-1.0255,-1.1039,-1.256,-1.433,-1.6105,-1.7641,-1.9393,-2.1239,-2.3003,-2.444,-2.5978,-2.7744,-2.9141,-2.9955,-2.9955,-2.9955,-2.9255,-2.7975,-2.7842,-2.643,-2.3469,-2.3469,-2.2835,-2.1616,-2.1616,-2.1815,-2.2321,-2.2841,-2.3113,-2.3191,-2.3698,-2.3918,-2.3619,-2.0122,-1.8658,-1.807,-1.4532,-1.2908,-1.2758,-1.4492,-1.3912,-1.2307,-1.2098,-1.2117,-1.2163,-1.213,-1.2144,-1.2177,-1.2196,-0.9582,-0.745,-1.1199,-0.7033,-0.1221,-0.0305,-0.0,-0.0,-0.0,-0.0,-0.0,-0.0,-0.0,-0.0,-0.0,0.5959,1.09,1.09,0.7778,0.6537,1.0387,0.4618,-0.0,-0.0,-0.0,0.2434,0.8601,0.9342,0.812,0.4948,0.4686,0.4948,0.5731,0.8748,1.0463,1.0456,1.0436,1.0559,1.0559,1.0559,1.0552,1.0552,1.0687,1.0812,1.0819,1.1102,1.1095,0.0,0.0,0.0,0.0,0.0,0.0,0.0,0.0,-0.0,-0.0,-0.0,-0.0452,-0.1762,-0.6679,-0.9603,-0.6732,-0.8692,-1.0557,-1.0897,-1.3578,-1.5728,-1.599,-1.875,-2.1727,-2.4559,-2.505,-2.6447,-2.9255,-2.9728,-2.9955,-2.9955,-2.9955,-2.9842,-2.9482,-2.9501,-2.855,-2.6664,-2.6664,-2.5488,-2.3324,-2.3324,-2.3172,-2.2906,-2.3022,-2.3321,-2.3763,-2.3866,-2.3918,-2.3918,-2.3044,-2.1853,-2.0391,-1.9651,-1.7315,-1.4649,-1.4645,-1.3708,-1.2104,-1.1616,-1.1761,-1.213,-1.1887,-1.1972,-1.2177,-1.2196,-1.1737,-1.1133,-1.1978,-1.1059,-0.8269,-0.1679,-0.0,-0.0,-0.0,-0.0,-0.0,-0.0,-0.0,-0.0,-0.0,0.1221,0.2442,0.2442,0.1678,0.1515,0.223,0.1015,-0.0,-0.0,-0.0,0.0541,0.184,0.2096,0.1702,0.1046,0.1046,0.3401,0.9183,1.0112,1.0502,1.0482,1.0476,1.0476,1.0476,1.0456,1.0449,1.0449,1.0489,1.0639,1.0515,1.0805,1.0917,0.0,0.0,0.0,0.0,0.0,0.0,0.0,0.0,0.0,0.0,0.0,-0.0,0.0,0.0,-0.5162,-0.4957,-0.788,-1.0147,-1.0159,-1.3169,-1.5265,-1.5265,-1.846,-2.1835,-2.4931,-2.5287,-2.6581,-2.9728,-2.9955,-2.9955,-2.9955,-2.9955,-2.9955,-2.9955,-2.9955,-2.9141,-2.7628,-2.7628,-2.6506,-2.4208,-2.4208,-2.3961,-2.349,-2.349,-2.3646,-2.3918,-2.3918,-2.3918,-2.3918,-2.3918,-2.2731,-2.1117,-2.1997,-1.9957,-1.6424,-1.6206,-1.429,-1.1682,-1.1379,-1.1471,-1.1722,-1.1722,-1.1827,-1.1979,-1.2137,-1.2091,-1.1992,-1.22,-1.1766,-0.9638,-0.1949,-0.0,-0.0,-0.0,-0.0,-0.0,-0.0,-0.0,-0.0,-0.0,-0.0,-0.0,-0.0,-0.0,-0.0,-0.0,-0.0,-0.0,-0.0,-0.0,-0.0,-0.0,-0.0,-0.0,-0.0,-0.0,0.1547,0.497,0.8532,1.0515,1.0502,0.8765,0.783,0.783,0.7825,0.8737,1.0456,1.0443,1.0559,1.0552,1.0601,1.068,0.0,0.0,0.0,0.0,0.0,0.0,0.0,0.0,0.0,0.0,0.0,0.0,0.0,0.0,0.0,-0.4694,-0.7728,-0.9776,-0.9849,-1.2708,-1.474,-1.4899,-1.8212,-2.1711,-2.4916,-2.5287,-2.6581,-2.9728,-2.9955,-2.9955,-2.9955,-2.9955,-2.9955,-2.9955,-2.9955,-2.9369,-2.809,-2.809,-2.7152,-2.5363,-2.4784,0.0,-2.3918,-2.3918,-2.3918,-2.3918,-2.3918,-2.3918,-2.3918,-2.3918,-2.3031,-2.1696,-2.3205,-2.1744,-1.8663,-1.7786,-1.5045,-1.1671,-1.1286,-1.1181,-1.1306,-1.1498,-1.159,-1.1682,-1.192,-1.184,0.0,-1.1873,-1.0705,-0.8049,-0.1606,-0.0,-0.0,-0.0,-0.0,-0.0,-0.0,-0.0,-0.0,-0.0,-0.0,-0.0,-0.0,-0.0,-0.0,-0.0,-0.0,-0.0,-0.0,-0.0,-0.0,-0.0,-0.0,-0.0,-0.0,-0.0,-0.0,-0.0,0.5388,0.8505,0.8505,0.5682,0.4271,0.4246,0.5627,0.7597,1.0519,1.0512,1.0525,1.0423,0.9819,0.9503,0.0,0.0,0.0,0.0,0.0,0.0,0.0,0.0,0.0,0.0,0.0,0.0,0.0,0.0,0.0,0.0,-0.8132,-0.8992,-0.9533,-1.2127,-1.42,-1.484,-1.7762,-2.124,-2.4868,-2.5287,-2.6581,-2.9728,-2.9955,-2.9955,-2.9955,-2.9955,0.0,0.0,0.0,-2.9842,-2.9728,-2.9615,-2.8995,-2.7528,-2.5094,-2.3931,-2.3918,-2.3918,-2.3918,-2.3918,-2.3918,-2.3918,-2.3918,-2.3918,-2.3762,-2.3567,-2.336,-2.2988,-2.1967,-1.8014,-1.5268,-1.3266,-1.1222,0.0,0.0,-1.103,-1.1128,-1.1333,-1.1366,-1.1353,-1.1199,-1.0828,-0.8392,-0.4967,-0.0995,-0.0,-0.0,-0.0,-0.0,-0.0,-0.0,-0.0,-0.0,-0.0,-0.0,-0.0,-0.0,-0.0,-0.0,-0.0,-0.0,-0.0,-0.0,-0.0,-0.0,-0.0,-0.0,0.0,-0.0,-0.0,-0.0,-0.0,0.0712,0.1225,0.1225,0.078,0.0549,0.0639,0.6731,1.0138,1.0536,1.0495,1.0485,1.0423,0.7258,0.5839,0.0,0.0,0.0,0.0,0.0,0.0,0.0,0.0,0.0,0.0,0.0,0.0,0.0,0.0,0.0,0.0,-0.7259,-0.8399,-0.9758,-1.2605,-1.4719,-1.549,-1.8731,-2.204,-2.4546,-2.5864,-2.7495,-2.9728,-3.0724,-3.1171,-3.1171,-3.1171,-3.1263,-3.1596,-3.05,-2.9955,-2.9955,-2.9955,-2.9121,-2.7463,-2.6311,-2.5031,-2.3918,-2.3918,-2.3918,-2.3918,-2.3918,-2.3918,-2.3918,-2.3918,-2.3918,-2.3815,0.0,0.0,0.0,0.0,-1.5945,-1.309,-1.1144,-1.0581,-1.0792,-1.0845,-1.0944,-1.1069,-1.1227,-1.1161,-1.1043,-1.0808,-0.9554,-0.7457,-0.4001,-0.4513,-0.6034,-0.6113,-0.2966,-0.0,-0.0,-0.1644,-0.2984,-0.2984,-0.2984,0.0,-0.3104,-0.473,-0.6051,-0.6051,-0.2673,-0.0,-0.0,-0.0,-0.0,-0.0,-0.0,-0.0,-0.0,-0.0,0.0,0.0,0.0,-0.0,-0.0,-0.0,0.0,0.0,0.0,0.6433,1.0468,1.0526,0.0,0.0,0.2934,0.2202,0.0,0.0,0.0,0.0,0.0,0.0,0.0,0.0,0.0,0.0,0.0,0.0,0.0,0.0,0.0,0.0,-0.6643,-0.7952,-0.9404,-1.2296,-1.4522,-1.5196,-1.8885,-2.2112,-2.3814,-2.5752,-2.7651,-2.9482,-3.0926,-3.1884,-3.2039,-3.2059,-3.2259,-3.2786,-3.0929,-2.9955,-2.9955,-2.9955,-2.9247,-2.7794,-2.7794,-2.6422,-2.3918,-2.3918,-2.3802,-2.3607,-2.3607,-2.3542,-2.3438,-2.3438,-2.3438,-2.3347,-2.236,-2.1984,-2.1774,-2.0051,-1.6903,-1.3443,-1.131,-1.0552,-1.0585,-1.0674,-1.0746,-1.0779,-1.0983,-1.0904,-1.0753,-1.0906,-1.0772,-0.996,-0.739,-0.8529,-1.0254,-0.9329,-0.5222,-0.1495,-0.1484,-0.345,-0.5241,-0.5241,-0.6033,-0.6669,-0.6713,-0.8799,-1.0472,-1.0451,-0.6115,-0.2169,-0.0253,-0.0,-0.0,-0.0,-0.0,-0.0,-0.0,-0.0,-0.0,-0.0,-0.0,-0.0,-0.0,-0.0,-0.0,-0.0,-0.0,0.2017,0.0,0.0,0.0,0.0,0.0,0.0,0.0,0.0,0.0,0.0,0.0,0.0,0.0,0.0,0.0,0.0,0.0,0.0,0.0,0.0,0.0,0.0,0.0,0.0,-0.7825,-1.0521,-1.2798,-1.3604,-1.7459,-2.0768,-2.2459,-2.4182,-2.6147,-2.8593,-3.01,-3.1317,-3.1998,-3.2059,-3.2259,-3.2786,-3.0929,-2.9955,-2.9955,-2.9955,-2.9861,-2.9804,-2.9804,-2.7744,-2.3918,-2.3918,-2.3503,-2.2815,-2.2815,-2.2607,-2.2256,-2.2256,-2.2256,-2.2204,-2.162,-2.1399,-2.1321,-2.0763,-1.8389,-1.4972,-1.1688,-1.0552,-1.0552,-1.0559,-1.0565,-1.0565,-1.0572,-1.0572,-1.0565,-1.0463,-1.0469,-1.0476,-1.0359,-1.0448,-0.9629,-0.6179,-0.5191,-0.5118,-0.5111,-0.5208,-0.5205,-0.5205,-0.7964,-1.0397,-1.0363,-1.044,-1.0507,-1.0532,-1.0357,0.0,-0.0924,-0.0,-0.0,-0.0,-0.0,-0.0,-0.0,-0.0,-0.0,-0.0,-0.0,-0.0,-0.0,-0.0,-0.0,-0.0,-0.0,-0.1554,-0.4774,0.0,0.0,0.0,0.0,0.0,0.0,0.0,0.0,0.0,0.0,0.0,0.0,0.0,0.0,0.0,0.0,0.0,0.0,0.0,0.0,0.0,0.0,0.0,0.0,-1.2139,-1.4585,-1.4433,-1.8218,-2.0436,-1.9651,-2.3417,-2.6072,-2.6577,-3.0213,-3.2895,-3.379,-3.3835,-3.381,-3.3718,-3.3091,-3.1908,-2.9955,-2.9955,-2.9955,-2.9955,-2.9955,-2.9211,-2.7835,-2.5098,-2.3776,-2.3503,-2.2996,-2.2711,-2.2568,-2.2308,-2.1763,-2.1075,-2.088,-2.0802,-2.0789,-2.0718,-1.8501,-1.5098,-1.1695,-1.0552,-1.0552,-1.0552,-1.0552,-1.0552,-1.0552,-1.0552,-1.0552,-1.0559,-1.0559,-1.0436,-1.0443,-1.0528,-1.0188,-0.9024,-0.8678,-0.8727,-0.8776,-0.8754,-0.8754,-0.8754,-0.9514,-0.9994,-0.9631,-1.0051,-1.0185,-0.9411,-1.0026,-0.8768,-0.4126,-0.14,-0.0903,-0.3214,-0.1427,-0.0913,-0.3258,-0.3521,-0.3502,-0.3511,-0.3518,-0.3504,-0.3514,-0.3516,-0.4555,-0.6922,-0.4634,-0.4096,-0.5292,0.0,0.0,0.0,0.0,0.0,0.0,0.0,0.0,0.0,0.0,0.0,0.0,0.0,0.0,0.0,0.0,0.0,0.0,0.0,0.0,0.0,0.0,0.0,0.0,0.0,0.0,-1.5703,-1.9071,0.0,-1.8257,-2.1799,-2.3897,-2.3071,-2.7333,-3.0702,-3.2448,-3.2768,-3.3399,-3.4563,-3.3375,-3.1798,-2.9955,-2.9955,-2.9955,-2.9955,-2.9955,-2.9955,-2.9785,-2.7227,-2.4803,-2.2685,-2.2191,-2.1971,-2.2089,-2.2966,-2.2164,-2.0652,-2.0652,-2.0652,-2.0652,-2.0652,-1.8501,-1.5098,-1.1695,-1.0552,-1.0552,-1.0552,-1.0265,-1.0039,-1.0644,-1.0171,-0.9381,-0.9592,-0.9724,-0.9991,-1.0179,-1.035,-1.0443,-1.0443,-1.0456,-1.0463,-1.0463,-1.0377,-1.0337,-1.0443,-1.0786,-1.0601,-0.9204,-1.0101,-1.0339,-0.8741,-0.9342,-0.8728,-0.5706,-0.4307,-0.4179,-0.5075,-0.4296,-0.4689,-0.6907,-0.7171,-0.7171,-0.7171,-0.7171,-0.7171,-0.7171,-0.7171,-0.8248,-1.044,-0.7091,-0.5219,0.0,0.0,0.0,0.0,0.0,0.0,0.0,0.0,0.0,0.0,0.0,0.0,0.0,0.0,0.0,0.0,0.0,0.0,0.0,0.0,0.0,0.0,0.0,0.0,0.0,0.0,0.0,-1.7217,-1.9662,0.0,0.0,0.0,0.0,-1.8502,-2.1716,-2.5042,-2.7966,-2.8838,-3.0947,-3.4588,-3.1935,-3.0275,-2.9955,-2.9955,-2.9955,-2.9955,-2.9955,-2.9955,-2.9955,-2.9955,-2.6664,-2.1007,-2.0775,-2.0652,-2.0898,-2.3859,-2.3499,-2.0968,-2.0447,-2.0223,-2.0066,-2.0066,-1.8259,-1.535,-1.2064,-1.106,-1.106,-1.106,-1.0143,-0.9404,-1.1012,-0.9578,0.0,0.0,-0.8373,-0.8897,-0.9678,-1.012,-1.0479,-1.0539,-1.0552,-1.0552,-1.0552,-1.0199,-1.006,-1.0398,-1.1793,-1.1938,-0.9112,0.0,-1.0678,-0.8358,-0.8415,-0.7869,-0.5757,-0.8338,-0.9154,-0.5857,-0.8489,-1.0482,-1.0482,-1.0482,-1.0482,-1.0482,-1.0482,-1.0482,-1.0482,-1.0443,-1.0399,-1.0332,-0.7039,0.0,0.0,0.0,0.0,0.0,0.0,0.0,0.0,0.0,0.0,0.0,0.0,0.0,0.0,0.0,0.0,0.0,0.0,0.0,0.0,0.0,0.0,0.0,0.0,0.0,0.0,-1.2325,-1.4856,-1.628,-1.6514,-1.5827,0.0,0.0,0.0,0.0,0.0,0.0,-2.394,-2.6664,-2.7455,-2.5868,-3.2651,-3.4232,-2.9955,-2.9955,-2.9955,-2.9955,-2.9955,-2.9955,-2.9955,-2.9955,-2.9026,-2.7246,-2.2656,-2.0652,-2.0652,-2.1483,-2.4083,-2.6805,-1.9037,-1.4654,-1.2648,-1.2648,-1.548,-1.9134,-1.8377,-1.7992,-1.7992,-1.7992,-1.6158,-1.3841,-1.4335,0.0,0.0,0.0,0.0,-0.7647,-0.8729,-0.9177,-0.9457,-1.0338,-1.0552,-1.0552,-1.0552,-1.0357,-1.0131,-0.9326,-1.0309,-1.0302,-0.6971,-0.7375,0.0,-0.6694,-0.7595,-0.8284,-0.819,-0.9556,-1.0204,-0.9243,-0.9919,-1.0456,-1.0443,-1.0436,-1.0436,-1.0436,-1.0436,-1.0436,-1.0436,-0.9816,-0.917,-0.832,0.0,0.0,0.0,0.0,0.0,0.0,0.0,0.0,0.0,0.0,0.0,0.0,0.0,0.0,0.0,0.0,0.0,0.0,0.0,0.0,0.0,0.0,0.0,0.0,0.0,0.0,0.0,-1.1443,-1.462,-1.6583,-1.5938,-1.4606,0.0,0.0,0.0,0.0,0.0,0.0,0.0,0.0,0.0,-1.8327,-2.7566,-3.1739,-2.9955,-2.9955,-2.9955,-2.9955,-2.9955,-2.9955,-2.9955,-2.9955,-2.9955,-2.9728,-2.6196,-2.3873,-2.2653,-2.406,-2.4147,-2.2626,0.0,0.0,0.0,0.0,-1.1302,-1.6133,-1.6133,-1.7452,-1.9205,-2.0326,0.0,0.0,0.0,0.0,0.0,0.0,0.0,-0.7168,-0.8129,-0.8867,-0.9724,-1.0392,-1.0552,-1.0552,-1.0552,-0.9638,-0.8877,-0.857,-0.9537,-0.9183,-0.5509,-0.6407,0.0,0.0,0.0,-0.9249,-1.0329,-1.1135,-1.1589,-1.156,-1.0938,-1.0436,-1.0552,-1.0552,-1.0552,-1.0552,-1.0552,-1.0378,-0.9869,-0.9137,-0.8067,0.0,0.0,0.0,0.0,0.0,0.0,0.0,0.0,0.0,0.0,0.0,0.0,0.0,0.0,0.0,0.0,0.0,0.0,0.0,0.0,0.0,0.0,0.0,0.0,0.0,0.0,0.0,0.0,0.0,-1.4008,-1.6728,0.0,0.0,0.0,0.0,0.0,0.0,0.0,0.0,0.0,0.0,0.0,0.0,0.0,-2.4431,-2.7297,-2.7772,-2.8664,-2.9955,-2.9955,-2.9955,-2.9955,-2.9955,-2.9955,-2.9936,-2.9499,0.0,-2.5817,-2.7354,0.0,0.0,0.0,0.0,0.0,0.0,0.0,0.0,0.0,0.0,0.0,0.0,0.0,0.0,0.0,0.0,0.0,0.0,0.0,0.0,0.0,0.0,-0.9876,-1.0118,-1.008,-1.0218,-1.0058,-0.8575,-0.739,-0.7759,-0.8834,-0.8436,0.0,0.0,0.0,0.0,0.0,0.0,-1.1822,-1.2544,-1.3061,-1.3061,-1.156,-1.0552,-1.0552,-1.0552,-1.0552,-1.0552,-1.0245,-0.9797,-0.9032,-0.8412,0.0,0.0,0.0,0.0,0.0,0.0,0.0,0.0,0.0,0.0,0.0,0.0,0.0,0.0,0.0,0.0,0.0,0.0,0.0,0.0,0.0,0.0,0.0,0.0,0.0,0.0,0.0,0.0,0.0,0.0,0.0,0.0,0.0,0.0,0.0,0.0,0.0,0.0,0.0,0.0,0.0,0.0,0.0,0.0,0.0,0.0,0.0,0.0,0.0,0.0,-2.9955,-2.9955,-2.9955,-2.9955,-2.9955,-2.9803,-2.7069,-2.7126,-2.8512,-2.0786,0.0,0.0,0.0,0.0,0.0,0.0,0.0,0.0,0.0,0.0,0.0,0.0,0.0,0.0,0.0,0.0,0.0,0.0,0.0,0.0,0.0,0.0,-0.7008,-0.7727,-0.8274,-0.8366,-0.7756,0.0,0.0,0.0,0.0,0.0,0.0,0.0,0.0,0.0,0.0,0.0,-1.1455,-1.2381,-1.3061,-1.3061,-1.156,-1.0552,-1.0552,-1.0552,-1.0552,-1.0552,-0.9296,-0.8458,0.0,0.0,0.0,0.0,0.0,0.0,0.0,0.0,0.0,0.0,0.0,0.0,0.0,0.0,0.0,0.0,0.0,0.0,0.0,0.0,0.0,0.0,0.0,0.0,0.0,0.0,0.0,0.0,0.0,0.0,0.0,0.0,0.0,0.0,0.0,0.0,0.0,0.0,0.0,0.0,0.0,0.0,0.0,0.0,0.0,0.0,0.0,0.0,0.0,0.0,0.0,0.0,0.0,0.0,0.0,0.0,0.0,0.0,-2.3444,-2.3535,0.0,0.0,0.0,0.0,0.0,0.0,0.0,0.0,0.0,0.0,0.0,0.0,0.0,0.0,0.0,0.0,0.0,0.0,0.0,0.0,0.0,0.0,0.0,0.0,0.0,0.0,0.0,0.0,0.0,0.0,0.0,0.0,0.0,0.0,0.0,0.0,0.0,0.0,0.0,0.0,-1.2818,-1.376,-1.433,-1.433,-1.2064,-1.0552,-1.0552,-1.0552,-1.01,-0.9348,-0.8536,0.0,0.0,0.0,0.0,0.0,0.0,0.0,0.0,0.0,0.0,0.0,0.0,0.0,0.0,0.0,0.0,0.0,0.0,0.0,0.0,0.0,0.0,0.0,0.0,0.0,0.0,0.0,0.0,0.0,0.0,0.0,0.0,0.0,0.0,0.0,0.0,0.0,0.0,0.0,0.0,0.0,0.0,0.0,0.0,0.0,0.0,0.0,0.0,0.0,0.0,0.0,0.0,0.0,0.0,0.0,0.0,0.0,0.0,0.0,-1.7554,-1.7971,0.0,0.0,0.0,0.0,0.0,0.0,0.0,0.0,0.0,0.0,0.0,0.0,0.0,0.0,0.0,0.0,0.0,0.0,0.0,0.0,0.0,0.0,0.0,0.0,0.0,0.0,0.0,0.0,0.0,0.0,0.0,0.0,0.0,0.0,0.0,0.0,0.0,0.0,0.0,0.0,-1.4457,-1.5481,-1.598,-1.5602,-1.2823,-1.0932,-1.0552,-1.0552,-0.9803,-0.825,-0.7865,0.0,0.0,0.0,0.0,0.0,0.0,0.0,0.0,0.0,0.0,0.0,0.0,0.0,0.0,0.0,0.0,0.0,0.0,0.0,0.0,0.0,0.0,0.0,0.0,0.0,0.0,0.0,0.0,0.0,0.0,0.0,0.0,0.0,0.0,0.0,0.0,0.0,0.0,0.0,0.0,0.0,0.0,0.0,0.0,0.0,0.0,0.0,0.0,0.0,0.0,0.0,0.0,0.0,0.0,0.0,0.0,0.0,0.0,0.0,0.0,0.0,0.0,0.0,0.0,0.0,0.0,0.0,0.0,0.0,0.0,0.0,0.0,0.0,0.0,0.0,0.0,0.0,0.0,0.0,0.0,0.0,0.0,0.0,0.0,0.0,0.0,0.0,0.0,0.0,0.0,0.0,0.0,0.0,0.0,0.0,0.0,0.0,0.0,0.0,0.0,0.0,-1.5045,-1.6798,-1.7255,-1.5728,-1.395,-1.2185,-1.0674,-1.0552,-0.9803,-0.825,0.0,0.0,0.0,0.0,0.0,0.0,0.0,0.0,0.0,0.0,0.0,0.0,0.0,0.0,0.0,0.0,0.0,0.0,0.0,0.0,0.0,0.0,0.0,0.0,0.0,0.0,0.0,0.0,0.0,0.0,0.0,0.0,0.0,0.0,0.0,0.0,0.0,0.0,0.0,0.0,0.0,0.0,0.0,0.0,0.0,0.0,0.0,0.0,0.0,0.0,0.0,0.0,0.0,0.0,0.0,0.0,0.0,0.0,0.0,0.0,0.0,0.0,0.0,0.0,0.0,0.0,0.0,0.0,0.0,0.0,0.0,0.0,0.0,0.0,0.0,0.0,0.0,0.0,0.0,0.0,0.0,0.0,0.0,0.0,0.0,0.0,0.0,0.0,0.0,0.0,0.0,0.0,0.0,0.0,0.0,0.0,0.0,0.0,0.0,0.0,0.0,0.0,-1.5139,-1.6027,-1.6241,-1.5602,-1.307,-1.1175,-1.0552,-1.0552,-0.95,-0.7253,0.0,0.0,0.0,0.0,0.0,0.0,0.0,0.0,0.0,0.0,0.0,0.0,0.0,0.0,0.0,0.0,0.0,0.0,0.0,0.0,0.0,0.0,0.0,0.0,0.0,0.0,0.0,0.0,0.0,0.0,0.0,0.0,0.0,0.0,0.0,0.0,0.0,0.0,0.0,0.0,0.0,0.0,0.0,0.0,0.0,0.0,0.0,0.0,0.0,0.0,0.0,0.0,0.0,0.0,0.0,0.0,0.0,0.0,0.0,0.0,0.0,0.0,0.0,0.0,0.0,0.0,0.0,0.0,0.0,0.0,0.0,0.0,0.0,0.0,0.0,0.0,0.0,0.0,0.0,0.0,0.0,0.0,0.0,0.0,0.0,0.0,0.0,0.0,0.0,0.0,0.0,0.0,0.0,0.0,0.0,0.0,0.0,0.0,0.0,0.0,0.0,0.0,-1.5124,-1.592,-1.6105,-1.5602,-1.295,-1.1053,-1.0552,-1.0337,-0.921,-0.6672,0.0,0.0,0.0,0.0,0.0,0.0,0.0,0.0,0.0,0.0,0.0,0.0,0.0,0.0,0.0,0.0,0.0,0.0,0.0,0.0,0.0,0.0,0.0,0.0,0.0,0.0,0.0,0.0,0.0,0.0,0.0,0.0,0.0,0.0,0.0,0.0,0.0,0.0,0.0,0.0,0.0,0.0,0.0,0.0,0.0,0.0,0.0,0.0,0.0,0.0,0.0,0.0,0.0,0.0,0.0,0.0,0.0,0.0,0.0,0.0,0.0,0.0,0.0,0.0,0.0,0.0,0.0,0.0,0.0,0.0,0.0,0.0,0.0,0.0,0.0,0.0,0.0,0.0,0.0,0.0,0.0,0.0,0.0,0.0,0.0,0.0,0.0,0.0,0.0,0.0,0.0,0.0,0.0,0.0,0.0,0.0,0.0,0.0,0.0,0.0,0.0,0.0,-1.503,-1.6904,-1.738,-1.5728,-1.4077,-1.2305,-1.0674,-1.0146,-0.8986,0.0,0.0,0.0,0.0,0.0,0.0,0.0,0.0,0.0,0.0,0.0,0.0,0.0,0.0,0.0,0.0,0.0,0.0,0.0,0.0,0.0,0.0,0.0,0.0,0.0,0.0,0.0,0.0,0.0,0.0,0.0,0.0,0.0,0.0,0.0,0.0,0.0,0.0,0.0,0.0,0.0,0.0,0.0,0.0,0.0,0.0,0.0,0.0,0.0,0.0,0.0,0.0,0.0,0.0,0.0,0.0,0.0,0.0,0.0,0.0,0.0,0.0,0.0,0.0,0.0,0.0,0.0,0.0,0.0,0.0,0.0,0.0,0.0,0.0,0.0,0.0,0.0,0.0,0.0,0.0,0.0,0.0,0.0,0.0,0.0,0.0,0.0,0.0,0.0,0.0,0.0,0.0,0.0,0.0,0.0,0.0,0.0,0.0,0.0,0.0,0.0,0.0,0.0,-1.4907,-1.4491,-1.441,0.0,-1.295,-1.1053,-1.0552,-1.0337,-0.9512,-0.7535,0.0,0.0,0.0,0.0,0.0,0.0,0.0,0.0,0.0,0.0,0.0,0.0,0.0,0.0,0.0,0.0,0.0,0.0,0.0,0.0,0.0,0.0,0.0,0.0,0.0,0.0,0.0,0.0,0.0,0.0,0.0,0.0,0.0,0.0,0.0,0.0,0.0,0.0,0.0,0.0,0.0,0.0,0.0,0.0,0.0,0.0,0.0,0.0,0.0,0.0,0.0,0.0,0.0,0.0,0.0,0.0,0.0,0.0,0.0,0.0,0.0,0.0,0.0,0.0,0.0,0.0,0.0,0.0,0.0,0.0,0.0,0.0,0.0,0.0,0.0,0.0,0.0,0.0,0.0,0.0,0.0,0.0,0.0,0.0,0.0,0.0,0.0,0.0,0.0,0.0,0.0,0.0,0.0,0.0,0.0,0.0,0.0,0.0,0.0,0.0,0.0,0.0,0.0,-1.4595,-1.4636,0.0,-1.3078,-1.1182,-1.0552,-1.0318,-0.9532,-0.7598,0.0,0.0,0.0,0.0,0.0,0.0,0.0,0.0,0.0,0.0,0.0,0.0,0.0,0.0,0.0,0.0,0.0,0.0,0.0,0.0,0.0,0.0,0.0,0.0,0.0,0.0,0.0,0.0,0.0,0.0,0.0,0.0,0.0,0.0,0.0,0.0,0.0,0.0,0.0,0.0,0.0,0.0,0.0,0.0,0.0,0.0,0.0,0.0,0.0,0.0,0.0,0.0,0.0,0.0,0.0,0.0,0.0,0.0,0.0,0.0,0.0,0.0,0.0,0.0,0.0,0.0,0.0,0.0,0.0,0.0,0.0,0.0,0.0,0.0,0.0,0.0,0.0,0.0,0.0,0.0,0.0,0.0,0.0,0.0,0.0,0.0,0.0,0.0,0.0,0.0,0.0,0.0,0.0,0.0,0.0,0.0,0.0,0.0,0.0,0.0,0.0,0.0,0.0,-1.6381,-1.7102,-1.5718,-1.395,-1.2185,-1.0674,-1.0166,-0.9131,-0.7175,-0.6158,0.0,0.0,0.0,0.0,0.0,0.0,0.0,0.0,0.0,0.0,0.0,0.0,0.0,0.0,0.0,0.0,0.0,0.0,0.0,0.0,0.0,0.0,0.0,0.0,0.0,0.0,0.0,0.0,0.0,0.0,0.0,0.0,0.0,0.0,0.0,0.0,0.0,0.0,0.0,0.0,0.0,0.0,0.0,0.0,0.0,0.0,0.0,0.0,0.0,0.0,0.0,0.0,0.0,0.0,0.0,0.0,0.0,0.0,0.0,0.0,0.0,0.0,0.0,0.0,0.0,0.0,0.0,0.0,0.0,0.0,0.0,0.0,0.0,0.0,0.0,0.0,0.0,0.0,0.0,0.0,0.0,0.0,0.0,0.0,0.0,0.0,0.0,0.0,0.0,0.0,0.0,0.0,0.0,0.0,0.0,0.0,0.0,0.0,0.0,0.0,0.0,0.0,-1.4904,-1.4022,-1.5454,-1.2823,-1.0925,-1.0545,-1.0357,-0.958,-0.7686,-0.6557,0.0,0.0,0.0,0.0,0.0,0.0,0.0,0.0,0.0,0.0,0.0,0.0,0.0,0.0,0.0,0.0,0.0,0.0,0.0,0.0,0.0,0.0,0.0,0.0,0.0,0.0,0.0,0.0,0.0,0.0,0.0,0.0,0.0,0.0,0.0,0.0,0.0,0.0,0.0,0.0,0.0,0.0,0.0,0.0,0.0,0.0,0.0,0.0,0.0,0.0,0.0,0.0,0.0,0.0,0.0,0.0,0.0,0.0,0.0,0.0,0.0,0.0,0.0,0.0,0.0,0.0,0.0,0.0,0.0,0.0,0.0,0.0,0.0,0.0,0.0,0.0,0.0,0.0,0.0,0.0,0.0,0.0,0.0,0.0,0.0,0.0,0.0,0.0,0.0,0.0,0.0,0.0,0.0,0.0,0.0,0.0,0.0,0.0,0.0,0.0,0.0,0.0,-1.3253,-1.35,-1.5325,-1.3197,-1.1303,-1.0552,-1.0552,-0.9661,-0.7518,-0.6681,0.0,0.0,0.0,0.0,0.0,0.0,0.0,0.0,0.0,0.0,0.0,0.0,0.0,0.0,0.0,0.0,0.0,0.0,0.0,0.0,0.0,0.0,0.0,0.0,0.0,0.0,0.0,0.0,0.0,0.0,0.0,0.0,0.0,0.0,0.0,0.0,0.0,0.0,0.0,0.0,0.0,0.0,0.0,0.0,0.0,0.0,0.0,0.0,0.0,0.0,0.0,0.0,0.0,0.0,0.0,0.0,0.0,0.0,0.0,0.0,0.0,0.0,0.0,0.0,0.0,0.0,0.0,0.0,0.0,0.0,0.0,0.0,0.0,0.0,0.0,0.0,0.0,0.0,0.0,0.0,0.0,0.0,0.0,0.0,0.0,0.0,0.0,0.0,0.0,0.0,0.0,0.0,0.0,0.0,0.0,0.0,0.0,0.0,0.0,0.0,0.0,0.0,0.0,-1.442,-1.4999,-1.3557,-1.2057,-1.0674,-1.0552,-0.9551,-0.7107,0.0,0.0,0.0,0.0,0.0,0.0,0.0,0.0,0.0,0.0,0.0,0.0,0.0,0.0,0.0,0.0,0.0,0.0,0.0,0.0,0.0,0.0,0.0,0.0,0.0,0.0,0.0,0.0,0.0,0.0,0.0,0.0,0.0,0.0,0.0,0.0,0.0,0.0,0.0,0.0,0.0,0.0,0.0,0.0,0.0,0.0,0.0,0.0,0.0,0.0,0.0,0.0,0.0,0.0,0.0,0.0,0.0,0.0,0.0,0.0,0.0,0.0,0.0,0.0,0.0,0.0,0.0,0.0,0.0,0.0,0.0,0.0,0.0,0.0,0.0,0.0,0.0,0.0,0.0,0.0,0.0,0.0,0.0,0.0,0.0,0.0,0.0,0.0,0.0,0.0,0.0,0.0,0.0,0.0,0.0,0.0,0.0,0.0,0.0,0.0,0.0,0.0,0.0,0.0,-1.6049,-1.2884,-1.1512,-1.0803,-1.0552,-1.0552,-0.9551,-0.7107,0.0,0.0,0.0,0.0,0.0,0.0,0.0,0.0,0.0,0.0,0.0,0.0,0.0,0.0]}],[{"header":{"parameterUnit":"kt","parameterCategory":2,"dx":1,"dy":1,"la1":29.285339999999998,"la2":30.599998999999997,"lo1":-89.70041500000002,"lo2":-87.6738589999976,"nx":112,"ny":82,"refTime":"2022-10-30T06:00:00:Z","depth":0,"parameterNumber":2,"parameterNumberName":"V-component_of_WINDS"},"data":[-2.8505,-2.9833,-2.9479,-2.1559,-2.1417,0.0,-0.5476,0.0,-1.1968,0.0,0.0,0.0,0.0,0.1696,0.2293,0.207,0.1238,0.1241,0.0,0.1739,0.0,0.0,0.0,0.0,0.0,0.0,0.0,0.0,0.0,0.0,0.0,0.0,0.1865,0.0109,0.0,-0.1838,-0.5596,-0.3667,-0.1887,-0.0,-0.4386,-0.7815,-1.0463,-1.0436,-1.1053,-1.2185,-1.2185,-1.307,-1.471,-1.471,-1.4962,-1.5602,-1.5602,-1.5602,-1.5854,-1.7992,-1.9134,-1.9777,-2.0393,-2.1239,-2.2186,-2.2471,-2.3062,-2.4039,-2.5944,-2.3769,-2.0569,-2.0569,-2.0622,-2.1512,-2.5599,-2.6664,-2.6597,-2.6597,-2.6664,-2.555,-2.1519,-2.3796,-2.6648,-2.6598,-2.8429,-2.9964,-2.9973,-2.9898,-2.9974,-2.9974,-2.9955,-2.9917,-2.9915,-2.9941,-3.036,-3.1585,-3.3634,-3.4941,-3.5045,-3.3941,-3.2814,-3.1792,-3.3803,-3.4932,-3.4962,-3.4967,-3.505,-3.505,-3.505,-3.4943,-3.5004,-3.4997,-3.5016,-3.4985,-3.5001,-3.3828,-2.3437,-2.4951,-2.5199,-1.823,0.0,0.0,0.0,0.0,0.0,0.0,0.0,0.0,0.0,0.2539,0.1614,0.1216,0.1137,0.2381,0.0,0.0,0.0,0.0,0.0,0.0,0.0,0.0,0.0,0.0,0.0,0.0,0.0,0.367,0.1992,0.0108,-0.1885,-0.4858,-0.8735,-0.5774,-0.3959,-0.3252,-0.6551,-0.8979,-1.0552,-1.1053,-1.2312,-1.3823,-1.3823,-1.4836,-1.6367,-1.6367,-1.6743,-1.7233,-1.7233,-1.7233,-1.7619,-2.0954,-2.22,-2.22,-2.22,-2.2897,-2.3844,-2.4144,-2.4891,-2.6159,-2.8242,-2.6462,-2.372,-2.372,-2.3777,-2.4678,-2.8914,-2.9898,-2.9922,-2.9922,-2.9898,-2.876,-2.4653,-2.7034,-2.988,-2.9894,-2.9952,-2.9992,-2.9879,-2.9955,-2.9955,-2.9955,-2.9954,-2.9971,-2.9971,-2.9974,-2.9877,-2.9968,-3.1891,-3.3815,-3.4947,-3.5006,-3.3613,-3.009,-3.2035,-3.3754,-3.4927,-3.7137,-3.8347,-3.8347,-3.6127,-3.4971,-3.498,-3.4982,-3.4426,-3.3312,-3.3315,-3.2047,0.0,0.0,0.0,-1.8087,0.0,0.0,0.0,0.0,-0.5028,0.0,0.0,0.0,0.0,0.2465,0.1321,0.018,0.1881,0.0,0.0,0.0,0.0,0.0,0.0,0.0,0.0,0.0,0.0,0.0,0.0,0.0,0.8221,0.3099,-0.0105,-0.0325,-0.5764,-0.8764,-0.8704,-0.5882,-0.6188,-0.955,-1.019,-1.0539,-1.0613,-1.2281,-1.4077,-1.5602,-1.5602,-1.6618,-1.8151,-1.8151,-1.9146,-2.0652,-2.0652,-2.0639,-2.113,-2.4217,-2.5287,-2.5287,-2.5287,-2.5287,-2.5287,-2.5287,-2.6126,-2.6868,-2.6868,-2.8342,-2.9884,-2.9884,-2.988,-2.9987,-2.9987,-2.9973,-2.9955,-2.9955,-2.9973,-2.9894,-2.9917,-2.9992,-2.9894,-2.9917,-2.9955,-2.9955,-2.9955,-2.9955,-2.9955,-2.9936,-2.9948,-3.0049,-3.0198,-3.0242,-3.0203,-3.0152,-3.0164,-3.1563,-3.5005,-3.5288,-3.3803,-3.0444,-3.0238,-3.17,-3.4962,-4.1342,-4.4799,-4.4847,-3.8563,-3.5268,-3.5309,-3.5107,-3.331,-2.9985,-3.0087,-3.0063,-1.33,0.0,0.0,0.0,0.0,0.0,0.0,0.0,0.0,0.0,0.0,0.0,0.0,0.0,0.0372,0.0051,0.0,0.5259,0.0,0.0,0.0,0.0,0.0,0.0,0.0,0.0,0.0,0.0,0.0,0.5511,0.2579,0.0844,-0.193,-0.6202,-0.7948,-0.8755,-0.8725,-0.8077,-0.8457,-0.9851,-1.1206,-1.207,-1.2416,-1.4077,-1.5728,-1.738,-1.738,-1.8389,-1.99,-1.99,-2.0147,-2.0762,-2.1822,-2.3018,-2.4098,-2.4931,-2.5287,-2.5287,-2.5287,-2.5287,-2.5523,-2.6564,-2.7895,-2.9118,-2.9118,-2.944,-2.9896,-2.9896,-2.9935,-2.9974,-2.9974,-2.9917,-2.9955,-2.9955,-2.9917,-2.9955,-2.9974,-2.9917,-2.9955,-2.9974,-2.9955,-2.9955,-2.9955,-2.9955,-2.9973,-2.991,-2.9886,-3.1425,-3.5623,-3.6184,-3.6184,-3.6148,-3.609,-3.7804,-4.1871,-4.2142,-4.0445,-3.6436,-3.613,-3.651,-3.7507,-3.9229,-4.1762,-4.4851,-4.3155,-4.2189,-4.2191,-3.9046,-3.4869,-3.0034,-3.4223,-3.3908,0.0,0.0,0.0,0.0,0.0,0.0,-0.5504,0.0,0.6807,0.0,0.0,0.0,0.0,0.0,0.0,0.0,0.492,0.0,0.0,0.0,0.0,0.0,0.0,0.0,0.0,0.0,0.0,0.0,0.6863,0.4853,0.021,-0.1179,-0.3899,-0.8614,-0.8702,-0.9011,-0.9533,-0.9845,-1.0627,-1.168,-1.2845,-1.3948,-1.5214,-1.6116,-1.7505,-1.9146,-1.985,-2.071,-2.1592,-2.2321,-2.2564,-2.267,-2.4306,-2.5491,-2.633,-2.703,-2.728,-2.728,-2.728,-2.728,-2.7379,-2.8321,-2.9141,-2.9955,-2.9955,-2.9955,-2.9955,-2.9955,-2.9955,-2.9955,-2.9955,-2.9955,-2.9955,-2.9955,-2.9955,-2.9955,-2.9955,-2.9955,-2.9955,-2.9955,-2.9955,-2.9954,-2.9925,-2.9978,-2.99,-2.9886,-3.1984,-3.4793,-3.8018,-3.8497,-3.8459,-3.8459,-3.8524,-3.954,-4.1961,-4.2182,-4.1158,-3.8692,-3.8474,-3.8489,-3.8473,-3.8474,-3.9705,-4.2133,-4.2213,-4.3107,-4.4894,-4.0633,-3.6755,-3.3647,-3.6877,-3.6671,0.0,0.0,0.0,0.0,-0.5264,0.0,0.0,0.0,1.4681,0.3906,0.0,0.0,0.0,0.0,0.0,0.0,0.0,0.0,0.0,0.0,0.0,0.0,0.0,0.0,0.0,0.8904,0.7451,0.8106,0.56,0.2943,0.0108,-0.3029,-0.5963,-0.8702,-0.9005,-0.9725,-1.0667,-1.1211,-1.2364,-1.4169,-1.4562,-1.6112,-1.8389,-1.84,-1.9393,-2.1252,-2.2414,-2.3003,-2.3364,-2.4678,-2.5287,-2.5405,-2.7164,-2.7859,-2.809,-2.9596,-3.0068,-2.9955,-3.0181,-3.0068,-2.9955,-3.0181,-3.0181,-3.0181,-3.0387,-3.0387,-3.0387,-3.0387,-3.0387,-3.0368,-3.0066,-2.9935,-2.9935,-2.9935,-2.9935,-2.9935,-2.9935,-2.9935,-2.9935,-2.9935,-2.9935,-3.019,-3.0782,-3.0915,-3.0895,-3.0941,-3.5223,-3.8523,-3.8475,-3.8474,-3.8485,-3.8485,-3.8488,-3.8515,-3.8515,-3.8515,-3.8515,-3.8515,-3.8499,-3.8485,-3.8485,-3.8536,-3.8515,-3.8515,-3.85,-4.0329,-4.4172,-4.0315,-3.8545,-3.8509,-3.8464,-3.8475,-0.7738,-0.7385,-0.7787,0.0,0.0,-0.2337,0.0,0.0,0.0,0.0,0.0,0.0,0.0,0.0,0.0,0.0,0.0,0.0,0.0,0.0,0.0,0.0,0.0,0.0,1.6065,1.3457,1.1009,0.8063,0.4984,0.221,0.0108,-0.5064,-0.8108,-0.8709,-1.0912,-1.1637,-1.0667,-1.1921,-1.3085,-1.4169,-1.5667,-1.7563,-1.991,-2.0109,-2.17,-2.4337,-2.3364,-2.3604,-2.4797,-2.5168,-2.5287,-2.5523,-2.8435,-2.9501,-2.9709,-3.1152,-3.0948,-3.0068,-3.1283,-3.0948,-3.0181,-3.1283,-3.1727,-3.1928,-3.3091,-3.3416,-3.3416,-3.3416,-3.3416,-3.2815,-3.0518,-2.9928,-2.9928,-2.9928,-2.9928,-2.9928,-2.9928,-2.9928,-2.9928,-2.9928,-2.9928,-3.1368,-3.5986,-3.6877,-3.6846,-3.6876,-3.7815,-3.8506,-3.8503,-3.8458,-3.8485,-3.8485,-3.8506,-3.8479,-3.8479,-3.8479,-3.8479,-3.8479,-3.8458,-3.8485,-3.8485,-3.8506,-3.8479,-3.8479,-3.8491,-3.8866,-3.97,-3.8842,-3.8499,-3.8485,-3.8506,-3.847,-0.6672,-0.6317,-0.6725,-0.5157,0.0,0.0,0.0,0.9361,1.6312,0.0,2.8854,3.4689,3.3584,2.8374,2.5865,3.0894,3.3052,3.4818,0.0,0.0,0.0,0.0,0.0,0.0,1.7468,1.4126,1.1432,0.9244,0.5193,0.0755,-0.4125,-0.712,-0.9057,-0.974,-1.1752,-1.2797,-1.2892,-1.3531,-1.493,-1.7072,-1.7625,-1.932,-2.2256,-2.1911,-2.3018,-2.5287,-2.5255,-2.5726,-2.6447,-2.7263,-2.8055,-2.8839,-3.0368,-3.1485,-3.2128,-3.2895,-3.2676,-3.2218,-3.2895,-3.2656,-3.2218,-3.2895,-3.3112,-3.335,-3.4579,-3.4966,-3.5246,-3.6093,-3.6398,-3.6071,-3.462,-3.4276,-3.4276,-3.4276,-3.4276,-3.4276,-3.4276,-3.4276,-3.4276,-3.4276,-3.42,-3.5116,-3.8045,-3.8443,-3.8451,-3.8518,-3.847,-3.8474,-3.8509,-3.8485,-3.8485,-3.8485,-3.8485,-3.8485,-3.8485,-3.8485,-3.8485,-3.8485,-3.8485,-3.8485,-3.8485,-3.8485,-3.8485,-3.8485,-3.8499,-3.8499,-3.8485,-3.8523,-3.8499,-3.8485,-3.8485,-3.8531,-0.5473,-0.5183,-0.5498,-0.329,0.1507,0.0,0.4099,1.6556,2.8821,0.0,4.0192,4.7239,4.304,3.8009,3.658,4.301,4.1664,4.0835,4.3723,4.1995,3.8161,3.2102,2.7368,2.2784,1.7984,1.3649,1.0943,1.0423,0.5672,-0.0535,-0.8373,-0.9809,-1.0618,-1.1091,-1.3291,-1.4563,-1.5013,-1.5714,-1.7426,-2.005,-1.9828,-2.1455,-2.4503,-2.3777,-2.4425,-2.6213,-2.7164,-2.7744,-2.8205,-2.9369,-3.0948,-3.2478,-3.2478,-3.3221,-3.4276,-3.4467,-3.4489,-3.4276,-3.4467,-3.4489,-3.4276,-3.4595,-3.4573,-3.4852,-3.599,-3.6292,-3.6617,-3.8124,-3.8476,-3.8476,-3.8476,-3.8476,-3.8476,-3.8476,-3.8476,-3.8476,-3.8476,-3.8476,-3.8476,-3.8476,-3.8458,-3.8485,-3.8485,-3.8485,-3.8485,-3.8485,-3.8485,-3.8485,-3.8485,-3.8485,-3.8485,-3.8485,-3.8485,-3.8485,-3.8485,-3.8485,-3.8485,-3.8485,-3.8485,-3.8485,-3.8485,-3.8485,-3.8485,-3.8485,-3.8485,-3.8485,-3.8485,-3.8485,-3.8485,-3.8485,-3.8485,-3.8485,-0.3759,-0.2997,-0.1901,0.0665,0.1885,0.0,1.5006,2.0184,2.5773,0.0,4.0993,4.3684,4.4568,4.3392,4.304,4.541,4.5084,4.4784,4.5514,4.1635,3.7491,3.4193,2.7804,2.2294,1.8684,1.429,1.1378,1.0895,0.556,-0.0834,-0.839,-1.3314,-1.4921,-1.2692,-1.7466,-1.8416,-1.5013,-1.8516,-2.018,-2.005,-2.1836,-2.3835,-2.619,-2.5316,-2.6681,-2.9369,-2.809,-2.8435,-2.9709,-2.9842,-3.1576,-3.3955,-3.3955,-3.4062,-3.4382,-3.5627,-3.5313,-3.4361,-3.5627,-3.5313,-3.4382,-3.5732,-3.6067,-3.6378,-3.7804,-3.8131,-3.8256,-3.843,-3.8454,-3.8454,-3.8454,-3.8454,-3.8454,-3.8454,-3.8454,-3.8454,-3.8454,-3.8454,-3.8454,-3.8454,-3.8458,-3.8485,-3.8485,-3.8485,-3.8485,-3.8485,-3.8485,-3.8485,-3.8485,-3.8485,-3.8485,-3.8485,-3.8485,-3.8485,-3.8485,-3.8485,-3.8485,-3.8485,-3.8485,-3.8485,-3.8485,-3.8485,-3.8485,-3.8485,-3.8485,-3.8485,-3.8485,-3.8485,-3.8485,-3.8485,-3.8485,-3.8485,-0.2094,-0.1437,-0.0379,0.2397,0.0,0.0,1.3496,2.2159,0.0,0.0,4.0404,4.4016,4.4915,4.5292,4.5798,4.6902,4.6014,4.5433,4.6223,4.1807,3.7397,3.4573,2.8196,2.2898,2.0217,1.5681,1.2423,1.1259,0.1631,-0.5043,-0.6843,-1.3263,-1.636,-1.5254,-1.9004,-2.0214,-1.8516,-2.013,-2.1278,-2.1769,-2.2174,-2.4068,-2.7042,-2.7096,-2.8605,-3.1171,-3.1425,-3.1847,-3.2437,-3.2437,-3.3611,-3.5418,-3.5418,-3.594,-3.6791,-3.7326,-3.7224,-3.6814,-3.7428,-3.7224,-3.6791,-3.7428,-3.7631,-3.7756,-3.8284,-3.8485,-3.8485,-3.8485,-3.8485,-3.8485,-3.8485,-3.8485,-3.8485,-3.8485,-3.8485,-3.8485,-3.8485,-3.8485,-3.8485,-3.8485,-3.8485,-3.8485,-3.8485,-3.8485,-3.8485,-3.8485,-3.8485,-3.8485,-3.8485,-3.8489,-3.8488,-3.8488,-3.8488,-3.8535,-3.845,-3.846,-3.8488,-3.8488,-3.8488,-3.8538,-3.8485,-3.8485,-3.8485,-3.8485,-3.8485,-3.8485,-3.8485,-3.8485,-3.8485,-3.8485,-3.8485,-3.8485,-0.0625,0.0,0.0,0.0,0.0,0.0,0.0,0.0,3.4654,3.6514,4.1055,4.483,4.5291,4.5912,4.6685,4.7612,4.6639,4.5926,4.6291,4.137,3.6508,3.3287,2.7482,2.2764,2.0191,1.6071,1.2421,0.0,-0.1851,-0.8785,-0.8779,-1.425,-1.7668,-1.7985,-2.1053,-2.2255,-2.1477,-2.2527,-2.3391,-2.398,-2.4098,-2.5732,-2.8582,-2.9373,-3.0782,-3.2676,-3.374,-3.468,-3.544,-3.544,-3.6252,-3.7404,-3.7098,-3.8011,-3.9524,-3.9156,-3.9082,-3.9082,-3.9082,-3.8784,-3.8485,-3.8485,-3.8485,-3.8485,-3.8485,-3.8485,-3.8485,-3.8485,-3.8485,-3.8485,-3.8485,-3.8485,-3.846,-3.8488,-3.8439,-3.8439,-3.8439,-3.8514,-3.8858,-4.0218,-4.0541,-4.007,-3.8685,-3.8488,-3.8488,-3.8488,-3.8488,-3.8488,-3.8488,-3.8504,-3.9053,-4.0427,-4.0504,-3.9971,-3.8587,-3.9765,-4.0504,-4.0504,-3.9249,-3.8525,-3.8464,-3.8488,-3.8464,-3.8439,-3.8439,-3.8537,-3.8485,-3.8464,-3.8464,-3.8485,-3.8537,-3.8537,0.0,0.0,0.0,1.0892,1.3062,1.6947,2.8455,0.0,3.4762,4.1367,4.394,4.5291,4.5894,4.5558,4.5726,4.7339,4.7599,4.7067,4.572,3.9946,3.4292,2.9978,2.5328,2.1066,1.7607,1.4552,1.051,0.493,-0.3485,-1.0733,-1.6248,-1.7961,-1.9443,-2.0822,-2.466,-2.539,-2.2747,-2.6479,-2.77,-2.655,-2.8538,-3.0201,-3.139,-3.2201,-3.3153,-3.4169,-3.4169,-3.5755,-3.8385,-3.8385,-3.9156,-4.0134,-3.8859,-3.996,-4.1898,-4.0781,-4.0327,-4.0327,-4.0327,-3.9549,-3.8485,-3.8485,-3.8485,-3.8485,-3.8485,-3.8485,-3.8485,-3.8485,-3.8485,-3.8485,-3.8485,-3.8485,-3.8438,-3.8485,-3.8433,-3.8433,-3.8433,-3.8528,-3.9945,-4.4734,-4.5694,-4.4154,-3.929,-3.8443,-3.8443,-3.8443,-3.8443,-3.8443,-3.8443,-3.8536,-4.0286,-4.5111,-4.5666,-4.3724,-3.8848,-4.292,-4.5666,-4.5666,-4.1142,-3.8536,-3.8443,-3.8443,-3.847,-3.8529,-3.8433,-3.8512,-3.8485,-3.8465,-3.849,-3.8485,-3.8512,-3.8439,0.3873,0.6378,0.9322,1.3677,1.8281,2.3171,2.8732,3.3921,3.829,4.1239,4.3759,4.5349,4.4856,4.5219,4.6059,4.7401,4.615,4.5524,4.6846,3.9761,3.2521,2.7135,1.8602,1.2759,1.1537,0.7095,0.2753,-0.084,-0.9179,0.0,-2.0251,-2.1993,-2.3415,-2.466,-2.5278,-2.5854,-2.6661,-2.7901,-2.8392,-2.7901,-2.8605,-2.9899,-3.1565,-3.2754,-3.4187,-3.565,-3.6688,-3.8562,-4.0893,-4.0893,-4.1177,-4.1579,-4.1082,-4.1432,-4.2109,-4.1739,-4.1579,-4.1579,-4.1579,-4.1271,-4.0893,-4.0893,-4.0893,-4.0893,-4.0893,-4.0893,-4.104,-4.1707,-4.1907,-4.1733,-4.1066,-4.0893,-4.1334,-4.2953,-4.3396,-4.3396,-4.3396,-4.0798,-3.9966,-4.489,-4.5842,-4.5379,-4.3669,-4.3349,-4.3349,-4.3349,-4.3349,-4.3349,-4.3349,-4.3359,-4.401,-4.5711,-4.5914,-4.5171,-4.3585,-4.4973,-4.5914,-4.5914,-4.4356,-4.3394,-4.3413,-4.3349,-4.3365,-4.3396,-4.0149,-4.0107,-4.341,-4.0087,-4.0232,-4.3261,-3.9988,-3.8452,0.7108,0.9582,1.2481,1.7923,2.2661,2.7129,3.1576,3.6138,4.0119,4.2488,4.4307,4.5306,4.4902,4.4879,4.5416,4.7027,4.5386,4.4344,4.5634,3.447,2.3901,1.7939,1.0231,0.392,0.0102,-0.278,-0.56,-0.8327,-1.6105,-2.142,-2.3069,-2.5091,-2.6753,-2.7906,-2.7144,-2.7547,-2.9168,-2.9629,-2.9803,-2.9803,-2.9803,-3.1095,-3.3493,-3.4058,-3.5839,-3.8513,-3.9474,-4.0703,-4.2175,-4.2175,-4.2477,-4.2841,-4.2385,-4.2723,-4.3471,-4.3049,-4.2868,-4.2868,-4.2868,-4.2568,-4.2175,-4.2175,-4.2175,-4.2175,-4.2175,-4.2175,-4.232,-4.2893,-4.3094,-4.2974,-4.2747,-4.2693,-4.3267,-4.5407,-4.5885,-4.5842,-4.5886,-4.3376,-4.208,-4.5227,-4.5829,-4.5829,-4.5829,-4.5829,-4.5829,-4.5829,-4.5829,-4.5829,-4.5829,-4.587,-4.5903,-4.5903,-4.5903,-4.5903,-4.5923,-4.5902,-4.5903,-4.5903,-4.5903,-4.5901,-4.589,-4.5829,-4.5853,-4.5898,-4.2696,-4.2696,-4.5898,-4.2721,-4.2768,-4.5814,-4.2632,-4.1087,1.0251,1.2694,1.556,2.3495,2.6303,2.9073,3.6824,3.8769,4.0235,4.496,4.5514,4.5302,4.5943,4.4573,4.3994,4.5823,4.5047,4.3242,4.0396,2.3522,0.9046,0.24,-0.0589,-0.5989,-1.5834,-1.4514,-1.4362,-1.7506,-2.3845,-2.6794,-2.5113,-2.7531,-2.9409,-3.0534,-3.0418,-3.0418,-3.0534,-3.1708,-3.2258,-3.2258,-3.2258,-3.3909,-3.7085,-3.5992,-3.806,-4.2369,-4.2331,-4.2358,-4.2358,-4.245,-4.314,-4.4114,-4.2868,-4.3826,-4.5696,-4.4639,-4.423,-4.423,-4.423,-4.3436,-4.2358,-4.2358,-4.2358,-4.2358,-4.2358,-4.2358,-4.2358,-4.2358,-4.2358,-4.2558,-4.3451,-4.3651,-4.4027,-4.5562,-4.5881,-4.5844,-4.5841,-4.5864,-4.5864,-4.5919,-4.609,-4.6178,-4.6178,-4.6007,-4.5864,-4.5864,-4.5864,-4.5864,-4.5864,-4.5864,-4.5864,-4.5864,-4.5864,-4.5864,-4.5864,-4.5864,-4.5864,-4.5864,-4.5864,-4.5864,-4.5864,-4.5864,-4.5901,-4.5927,-4.5839,-4.5839,-4.5839,-4.593,-4.5874,-4.585,-4.5918,-4.5857,1.3739,1.8827,2.313,2.7175,3.0512,3.3779,3.7155,3.9594,4.1675,4.3656,4.4868,4.5592,4.5864,4.6214,4.4772,3.9387,4.2492,3.7426,1.403,0.3823,-0.5348,-1.659,-2.54,-2.9279,-2.5775,-2.3069,-2.3726,-2.8833,-2.924,-3.01,-3.1907,-3.2695,-3.332,-3.3947,-3.3661,-3.3635,-3.3947,-3.4235,-3.4419,-3.4419,-3.4419,-3.5234,-3.6847,-3.7549,-4.0315,-4.4514,-4.4753,-4.4843,-4.5014,-4.5803,-4.5832,-4.5413,-4.5043,-4.5328,-4.5864,-4.5527,-4.5442,-4.5442,-4.5442,-4.5243,-4.4957,-4.4957,-4.4957,-4.4957,-4.4957,-4.4957,-4.4957,-4.4957,-4.4957,-4.4957,-4.5186,-4.5329,-4.5358,-4.5759,-4.5902,-4.5899,-4.5923,-4.5864,-4.5886,-4.5851,-4.8303,-5.0335,-5.0335,-4.7913,-4.5864,-4.5864,-4.5864,-4.5864,-4.5864,-4.5864,-4.5864,-4.5864,-4.5864,-4.5864,-4.5864,-4.5864,-4.5864,-4.5864,-4.5864,-4.5864,-4.5864,-4.5864,-4.5867,-4.5872,-4.5872,-4.5872,-4.5872,-4.5867,-4.587,-4.5903,-4.5844,-4.5873,1.4349,2.1152,2.7727,3.1892,3.4539,3.6622,3.847,4.0119,4.1767,4.3374,4.2871,4.2395,4.3319,4.0757,3.624,2.9435,2.5432,1.6011,-0.4493,-1.7648,-2.7239,-3.2775,-3.6543,-3.7081,-3.2871,-3.1024,-3.1115,-3.358,-3.4079,-3.4526,-3.5167,-3.5969,-3.6353,-3.6253,-3.6493,-3.6565,-3.6281,-3.6719,-3.6719,-3.6281,-3.6281,-3.7144,-3.871,-3.9104,-4.1103,-4.4231,-4.4908,-4.5684,-4.6331,-4.6922,-4.6897,-4.6634,-4.7009,-4.6959,-4.6552,-4.6552,-4.6552,-4.65,-4.6032,-4.5864,-4.5948,-4.6417,-4.6552,-4.6552,-4.6552,-4.6552,-4.647,-4.6032,-4.6169,-4.65,-4.6032,-4.6552,-4.709,-4.6634,-4.6552,-4.6715,-4.717,-4.748,-4.7639,-4.7668,-4.9933,-5.1595,-5.0801,-4.9471,-4.8511,-4.8511,-4.7031,-4.5832,-4.5871,-4.5923,-4.5858,-4.5885,-4.5855,-4.5855,-4.5855,-4.588,-4.5923,-4.5923,-4.5857,-4.5864,-4.5864,-4.5864,-4.5864,-4.5864,-4.5864,-4.5864,-4.5864,-4.5864,-4.5864,-4.5864,-4.5864,-4.5864,1.5216,2.2479,3.0576,3.6524,3.8232,3.889,4.0305,4.0673,4.1302,4.3537,4.0823,3.864,4.0365,3.3395,2.529,1.8836,0.4831,-0.8456,-1.7794,-3.694,-4.8544,-4.4736,-4.0031,-3.7417,-3.8315,-3.7814,-3.6994,-3.5902,-3.838,-3.9131,-3.7207,-3.8549,-3.9053,-3.841,-3.9387,-3.9322,-3.8268,-3.9121,-3.9151,-3.8123,-3.8123,-3.9182,-4.1122,-4.0833,-4.1616,-4.3263,-4.4628,-4.5926,-4.7137,-4.7281,-4.745,-4.7725,-4.865,-4.8422,-4.7646,-4.7646,-4.7646,-4.7488,-4.6634,-4.6252,-4.6417,-4.733,-4.7646,-4.7646,-4.7646,-4.7646,-4.7409,-4.6552,-4.6959,-4.7409,-4.647,-4.7646,-4.877,-4.7881,-4.7725,-4.8084,-4.9025,-4.9561,-4.9886,-5.0034,-5.096,-5.1224,-4.9635,-5.0799,-5.1939,-5.1939,-4.8897,-4.6493,-4.5945,-4.6361,-4.6644,-4.6647,-4.6661,-4.6661,-4.6661,-4.6678,-4.6481,-4.5896,-4.5894,-4.5861,-4.5864,-4.5864,-4.5919,-4.5915,-4.5919,-4.5864,-4.5864,-4.5864,-4.5864,-4.5864,-4.5864,-4.5864,2.4084,2.8778,3.3211,3.8338,4.1079,4.2389,4.186,4.1742,4.2079,4.3246,4.1584,4.0362,4.1644,3.5629,2.6496,1.4228,0.4778,-0.8159,-2.8649,-4.2177,-4.8789,-4.5621,-4.4375,-4.356,-4.2915,-4.1205,-4.1302,-4.4145,-4.2433,-4.177,-4.2958,-4.3005,-4.2611,-4.1776,-4.2644,-4.2471,-4.1101,-4.1283,-4.0985,-4.0269,-4.0269,-4.0487,-4.0955,-4.3088,-4.4576,-4.5563,-4.6994,-4.7975,-4.8683,-4.9515,-4.9425,-4.8725,-4.8951,-4.8876,-4.8725,-4.8725,-4.8725,-4.8725,-4.8498,-4.8467,-4.8498,-4.8619,-4.8725,-4.8725,-4.8725,-4.8725,-4.865,-4.8467,-4.8574,-4.865,-4.8498,-4.8725,-4.8951,-4.877,-4.9395,-5.0078,-5.0252,-4.9709,-4.9447,-5.0276,-5.0649,-5.0912,-5.1342,-5.1709,-5.194,-5.194,-5.1323,-4.9621,-4.633,-4.8756,-5.0851,-5.0832,-5.0875,-5.0875,-5.0875,-5.0851,-4.9437,-4.6064,-4.5826,-4.5828,-4.5835,-4.5864,-4.5852,-4.5834,-4.5906,-4.5864,-4.5864,-4.5864,-4.5864,-4.5864,-4.5864,-4.5864,2.433,2.9824,3.5138,3.8353,4.2052,4.4815,4.4195,4.3687,4.2657,4.0064,3.5638,3.2312,3.258,2.2542,1.0481,-0.0972,-1.114,-2.3181,-3.9149,-4.586,-4.8701,-4.7539,-4.6916,-4.6533,-4.6307,-4.5132,-4.4991,-4.6455,-4.5604,-4.5173,-4.5514,-4.5621,-4.5292,-4.4501,-4.4708,-4.4501,-4.3844,-4.3628,-4.3366,-4.3081,-4.3081,-4.3081,-4.3081,-4.4413,-4.569,-4.6799,-4.7135,-4.8349,-4.9985,-5.0115,-4.9997,-4.9863,-5.0361,-5.022,-4.9791,-4.9791,-4.9791,-4.9718,-4.9174,-4.9025,-4.91,-4.9646,-4.9791,-4.9791,-4.9791,-4.9791,-4.9718,-4.9174,-4.9395,-4.9646,-4.91,-4.9759,-5.0431,-4.9935,-5.0533,-5.1253,-5.1253,-5.0848,-5.0641,-5.1185,-5.1253,-5.135,-5.1811,-5.1932,-5.1875,-5.1872,-5.19,-5.1224,-4.9258,-5.0714,-5.192,-5.1881,-5.1918,-5.1918,-5.1918,-5.1855,-5.1127,-4.9131,-4.703,-4.5899,-4.5915,-4.7888,-4.8064,-4.5933,-4.5893,-4.5836,-4.5836,-4.5902,-4.5917,-4.5835,-4.5857,-4.5864,2.4033,3.0128,3.637,3.8218,4.1998,4.5185,4.5159,4.4325,4.2119,3.7026,3.0247,2.4684,2.2528,0.9163,-0.4867,-1.5138,-2.6276,-3.672,-4.5735,-4.7784,-4.8564,-4.9073,-4.8485,-4.819,-4.8626,-4.8275,-4.7802,-4.7324,-4.793,-4.7918,-4.7038,-4.7274,-4.7226,-4.6703,-4.6376,-4.6109,-4.5907,-4.5557,-4.5312,-4.5075,-4.5075,-4.5075,-4.5075,-4.5312,-4.6015,-4.7122,-4.6955,-4.8628,-5.1297,-5.052,-5.0475,-5.0912,-5.162,-5.1454,-5.0843,-5.0843,-5.0843,-5.0673,-4.9903,-4.9614,-4.9759,-5.0603,-5.0843,-5.0843,-5.0843,-5.0843,-5.0673,-4.9831,-5.022,-5.0603,-4.9831,-5.0779,-5.1752,-5.0981,-5.1387,-5.1883,-5.1883,-5.1883,-5.1883,-5.1883,-5.1883,-5.1883,-5.1883,-5.1883,-5.1916,-5.1867,-5.1894,-5.188,-5.1891,-5.1895,-5.1906,-5.1884,-5.1883,-5.1883,-5.1883,-5.1876,-5.1858,-5.1881,-4.8903,-4.7216,-4.7222,-5.0234,-5.0444,-4.7259,-4.716,-4.7147,-4.7147,-4.7162,-4.672,-4.5896,-4.5894,-4.5881,2.8781,3.2718,3.6453,3.9349,4.0941,4.2016,4.272,4.1266,3.9037,3.6482,3.1364,2.5144,1.7804,0.6615,-0.5907,-1.9169,-2.7888,-3.5717,-4.3837,-4.6834,-4.8423,-4.8958,-4.9238,-4.9415,-4.9439,-4.9317,-4.9232,-4.9294,-4.8967,-4.8754,-4.8774,-4.8331,-4.8097,-4.8029,-4.7991,-4.7525,-4.6591,-4.6554,-4.6048,-4.5075,-4.5075,-4.5075,-4.5121,-4.6089,-4.6389,-4.6278,-4.7773,-5.0086,-5.2811,-5.2039,-5.1687,-5.1818,-5.1883,-5.1818,-5.1752,-5.1752,-5.1752,-5.1752,-5.1653,-5.1653,-5.1653,-5.1752,-5.1752,-5.1752,-5.1752,-5.1752,-5.1752,-5.1653,-5.1752,-5.1752,-5.1653,-5.1752,-5.1883,-5.1818,-5.1818,-5.1883,-5.1883,-5.1883,-5.1883,-5.1883,-5.1883,-5.1883,-5.1883,-5.1883,-5.1916,-5.1884,-5.1883,-5.1916,-5.1916,-5.1916,-5.1884,-5.1883,-5.1883,-5.1883,-5.1883,-5.1884,-5.188,-5.1918,-5.1547,-5.1352,-5.1371,-5.1712,-5.1708,-5.138,-5.1381,-5.1371,-5.1371,-5.1377,-4.9508,-4.5896,-4.5876,-4.5905,2.4708,2.9585,3.4456,3.4886,3.839,4.1571,4.085,3.8726,3.5267,2.9419,2.1872,1.3918,0.6036,-0.6504,-1.7956,-2.5244,-3.2393,-3.8762,-4.3665,-4.582,-4.7142,-4.7611,-4.8349,-4.8841,-4.9177,-4.9364,-4.9489,-4.9564,-4.9376,-4.9266,-4.9334,-4.9145,-4.8977,-4.8903,-4.8656,-4.8325,-4.7845,-4.7429,-4.7026,-4.6623,-4.6623,-4.6737,-4.6989,-4.713,-4.7671,-4.8527,-4.9871,-5.141,-5.2959,-5.3163,-5.3279,-5.3279,-5.3279,-5.3013,-5.2583,-5.2583,-5.2302,-5.1883,-5.1883,-5.1883,-5.1883,-5.1883,-5.1883,-5.1883,-5.1883,-5.1883,-5.1883,-5.1883,-5.1883,-5.1883,-5.1883,-5.1883,-5.1883,-5.1883,-5.1883,-5.1883,-5.1883,-5.1883,-5.1883,-5.1883,-5.1883,-5.1883,-5.1883,-5.1883,-5.1883,-5.1883,-5.1883,-5.1883,-5.1883,-5.1883,-5.1883,-5.1883,-5.1883,-5.1883,-5.1883,-5.1883,-5.1916,-5.1913,-5.1946,-5.1909,-5.1895,-5.1909,-5.1946,-5.1946,-5.1903,-5.1895,-5.1895,-5.1904,-4.9814,-4.5883,-4.583,-4.7167,2.1746,2.6313,3.1153,3.0319,3.4262,3.8281,3.7955,3.4451,2.921,2.2134,1.2248,0.2457,-0.5614,-1.6527,-2.5835,-3.0509,-3.5903,-4.0604,-4.3662,-4.5143,-4.6249,-4.6986,-4.7738,-4.8402,-4.882,-4.9131,-4.935,-4.9503,-4.9533,-4.9536,-4.9566,-4.9563,-4.9535,-4.944,-4.9126,-4.8876,-4.8644,-4.8178,-4.7857,-4.777,-4.777,-4.7924,-4.8215,-4.8007,-4.8732,-5.0176,-5.1376,-5.236,-5.32,-5.4123,-5.4412,-5.4228,-5.4228,-5.3892,-5.3396,-5.3396,-5.3073,-5.2583,-5.2583,-5.2583,-5.2554,-5.2302,-5.2238,-5.2174,-5.1949,-5.1883,-5.1883,-5.1883,-5.1883,-5.1883,-5.1883,-5.2078,-5.2302,-5.2521,-5.2583,-5.2583,-5.2583,-5.2428,-5.2238,-5.2238,-5.2078,-5.1883,-5.1883,-5.1883,-5.1883,-5.1883,-5.1883,-5.1883,-5.1883,-5.1883,-5.1883,-5.1883,-5.1883,-5.1883,-5.1883,-5.1883,-5.1883,-5.1883,-5.1883,-5.1883,-5.1883,-5.1883,-5.1883,-5.1883,-5.1883,-5.1883,-5.1883,-5.1903,-5.0399,-4.7622,-4.7696,-4.9134,2.2127,2.4098,2.656,2.6787,2.8394,3.0648,3.3588,2.764,2.0246,1.5768,0.4526,-0.716,-1.5778,-2.0442,-2.5781,-3.4318,-3.7501,-4.0056,-4.3478,-4.4946,-4.6141,-4.7479,-4.7954,-4.8315,-4.8569,-4.8617,-4.8804,-4.9334,-4.9353,-4.9414,-4.9574,-4.956,-4.9583,-4.9583,-4.9441,-4.9173,-4.8781,-4.8657,-4.8485,-4.8215,-4.8215,-4.8215,-4.8215,-4.8485,-4.9309,-5.0607,-5.1773,-5.2779,-5.3721,-5.4751,-5.4836,-5.4228,-5.4228,-5.4228,-5.4228,-5.4228,-5.4228,-5.4228,-5.4228,-5.4228,-5.4083,-5.3279,-5.304,-5.2891,-5.211,-5.1883,-5.1883,-5.1883,-5.1883,-5.1883,-5.1883,-5.2491,-5.3219,-5.4027,-5.4228,-5.4228,-5.4228,-5.3605,-5.304,-5.304,-5.2395,-5.1883,-5.1883,-5.1883,-5.1883,-5.1883,-5.1883,-5.1883,-5.1883,-5.1883,-5.1883,-5.1883,-5.1883,-5.1883,-5.1883,-5.1883,-5.1883,-5.1883,-5.1883,-5.1883,-5.1883,-5.1883,-5.1883,-5.1883,-5.1883,-5.1883,-5.1883,-5.1903,-5.1881,-5.1848,-5.1848,-5.1848,2.0021,2.2294,2.5147,2.6391,2.8027,2.8847,2.6931,2.1517,1.6209,1.4034,0.4484,-0.6613,-1.682,-2.5024,-3.1668,-3.587,-3.8242,-4.0636,-4.3662,-4.5401,-4.6481,-4.6918,-4.786,-4.8497,-4.8593,-4.8811,-4.9069,-4.9222,-4.9316,-4.9372,-4.9414,-4.9535,-4.9564,-4.9583,-4.9511,-4.9409,-4.9194,-4.8978,-4.8715,-4.8473,-4.8811,-4.9012,-4.9049,-4.9925,-5.1138,-5.2569,-5.3473,-5.4708,-5.6063,-5.6038,-5.5884,-5.5693,-5.5693,-5.5329,-5.4888,-5.4888,-5.4626,-5.4228,-5.4228,-5.4228,-5.4173,-5.3949,-5.3858,-5.3721,-5.2919,-5.2707,-5.2583,-5.2078,-5.1883,-5.2143,-5.3219,-5.3721,-5.3915,-5.4173,-5.4228,-5.4228,-5.4228,-5.4061,-5.3858,-5.3858,-5.3253,-5.2707,-5.2707,-5.2238,-5.1883,-5.1883,-5.1883,-5.1883,-5.1883,-5.1883,-5.1883,-5.1883,-5.1883,-5.1883,-5.1883,-5.1883,-5.1883,-5.1883,-5.1883,-5.1883,-5.1883,-5.1883,-5.1883,-5.1883,-5.1883,-5.1883,-5.1883,-5.1883,-5.1914,-5.1914,-5.1914,-5.1914,2.0085,2.2014,2.4387,2.5818,2.459,2.2423,2.0023,1.39,0.8063,0.5599,-0.2501,-1.1774,-2.0401,-2.82,-3.4016,-3.6145,-3.8615,-4.1301,-4.419,-4.5786,-4.6738,-4.6954,-4.7748,-4.8215,-4.8215,-4.8435,-4.8644,-4.8797,-4.9003,-4.9103,-4.9103,-4.9333,-4.9499,-4.95,-4.9531,-4.9515,-4.9439,-4.9272,-4.9139,-4.896,-4.9335,-4.9802,-5.0343,-5.1073,-5.2582,-5.464,-5.5018,-5.605,-5.7587,-5.7065,-5.6814,-5.6675,-5.6675,-5.6252,-5.5658,-5.5658,-5.5379,-5.5061,-5.5061,-5.5061,-5.4975,-5.4679,-5.4573,-5.4466,-5.3744,-5.3547,-5.3396,-5.2919,-5.2769,-5.304,-5.4303,-5.4573,-5.4679,-5.4975,-5.5061,-5.5061,-5.5061,-5.4819,-5.4573,-5.4573,-5.4027,-5.3547,-5.3547,-5.2891,-5.2365,-5.2365,-5.2078,-5.1883,-5.1883,-5.1883,-5.2014,-5.2302,-5.2365,-5.2365,-5.2365,-5.2078,-5.1883,-5.1883,-5.1883,-5.1883,-5.1883,-5.1883,-5.1883,-5.1883,-5.1883,-5.1883,-5.1883,-5.1883,-5.1883,-5.1883,-5.1883,-5.1883,2.1573,2.2527,2.3805,2.4735,1.8818,1.278,1.2711,0.5224,-0.3016,-0.742,-1.4259,-2.0821,-2.5259,-2.9354,-3.2908,-3.5432,-3.8765,-4.2047,-4.4943,-4.6222,-4.7098,-4.7581,-4.7719,-4.7788,-4.7679,-4.7679,-4.7801,-4.8187,-4.8435,-4.8569,-4.8569,-4.9024,-4.9315,-4.9352,-4.9493,-4.9581,-4.9583,-4.9598,-4.9601,-4.9611,-4.9709,-5.0512,-5.195,-5.2062,-5.3707,-5.6569,-5.6275,-5.697,-5.8284,-5.7887,-5.7516,-5.7176,-5.7173,-5.685,-5.6448,-5.6404,-5.6359,-5.6359,-5.6359,-5.6359,-5.6233,-5.5526,-5.5294,-5.5194,-5.4466,-5.4338,-5.4283,-5.4228,-5.4283,-5.4554,-5.5144,-5.5294,-5.5477,-5.6187,-5.6359,-5.6359,-5.6359,-5.5836,-5.5294,-5.5294,-5.4732,-5.4338,-5.4338,-5.3629,-5.316,-5.316,-5.2554,-5.2078,-5.2078,-5.2078,-5.2365,-5.304,-5.316,-5.316,-5.316,-5.2458,-5.2078,-5.2078,-5.2014,-5.2014,-5.2014,-5.1949,-5.1883,-5.1883,-5.1883,-5.1883,-5.1883,-5.1883,-5.1883,-5.1883,-5.1883,-5.1883,1.9451,1.9775,2.0201,2.0373,1.54,0.9053,0.3477,-0.2779,-0.8262,-1.1221,-1.6215,-2.058,-2.2381,-2.3868,-2.7369,-3.5231,-3.9377,-4.2607,-4.5509,-4.777,-4.8781,-4.7759,-4.8956,-4.9366,-4.8182,-4.8072,-4.8101,-4.8215,-4.8261,-4.8288,-4.8288,-4.8583,-4.8834,-4.8927,-4.9333,-4.9564,-4.9583,-4.9756,-4.9851,-4.9875,-4.9803,-5.0606,-5.2254,-5.3333,-5.4903,-5.6756,-5.7439,-5.798,-5.8284,-5.7887,-5.769,-5.7551,-5.7292,-5.7094,-5.6932,-5.6501,-5.6359,-5.6359,-5.6359,-5.6359,-5.6323,-5.6187,-5.6105,-5.5966,-5.5194,-5.4991,-5.4888,-5.4392,-5.5061,-5.5919,-5.6059,-5.6105,-5.6151,-5.6359,-5.6359,-5.6359,-5.6359,-5.6233,-5.6105,-5.6105,-5.5477,-5.4991,-5.4991,-5.4412,-5.3949,-5.3949,-5.3801,-5.3687,-5.3687,-5.3687,-5.3778,-5.3949,-5.3949,-5.3949,-5.3949,-5.3801,-5.3687,-5.3687,-5.31,-5.2769,-5.2769,-5.2238,-5.1883,-5.1883,-5.1883,-5.1883,-5.1883,-5.1883,-5.1883,-5.1883,-5.1883,-5.1883,2.005,1.9146,1.6413,0.9575,0.4751,0.0367,-0.466,-0.9424,-1.2994,-1.3997,-1.7426,-2.0757,-2.2513,-2.3673,-2.6566,-3.3165,-3.7297,-4.0527,-4.3101,-4.6076,-4.7884,-4.7647,-4.8534,-4.907,-4.8767,-4.8078,-4.7679,-4.7679,-4.7832,-4.7924,-4.7924,-4.8347,-4.863,-4.867,-4.9194,-4.9498,-4.9578,-4.9775,-4.9875,-4.9884,-5.0649,-5.1851,-5.3483,-5.5068,-5.6525,-5.7953,-5.8511,-5.8733,-5.867,-5.8444,-5.8204,-5.7983,-5.7792,-5.7587,-5.7406,-5.7101,-5.7022,-5.6982,-5.6808,-5.6589,-5.6359,-5.6359,-5.6359,-5.6278,-5.5884,-5.5754,-5.5658,-5.5314,-5.5741,-5.6359,-5.6359,-5.6359,-5.6359,-5.6359,-5.6359,-5.6359,-5.6359,-5.6359,-5.6359,-5.6359,-5.6059,-5.5754,-5.5754,-5.5179,-5.4679,-5.4679,-5.4412,-5.4228,-5.4228,-5.4228,-5.4338,-5.4626,-5.4679,-5.4679,-5.4679,-5.4679,-5.452,-5.4228,-5.4104,-5.3767,-5.31,-5.3013,-5.283,-5.2491,-5.2428,-5.2428,-5.2428,-5.2078,-5.1883,-5.1883,-5.1883,-5.1883,1.954,1.6591,1.0432,-0.265,-0.7258,-0.9271,-1.1798,-1.4672,-1.6612,-1.5998,-1.8018,-2.0576,-2.285,-2.4667,-2.6787,-2.9794,-3.3305,-3.6704,-3.9621,-4.3419,-4.6254,-4.7075,-4.7587,-4.828,-4.9275,-4.8163,-4.7485,-4.7735,-4.785,-4.7876,-4.7876,-4.8307,-4.8546,-4.8546,-4.9082,-4.9435,-4.9523,-4.9623,-4.9839,-5.0158,-5.1689,-5.3448,-5.5291,-5.6719,-5.8065,-5.9318,-5.9284,-5.9224,-5.9089,-5.9089,-5.8834,-5.8434,-5.8341,-5.8107,-5.7789,-5.7758,-5.7724,-5.769,-5.7369,-5.6937,-5.6553,-5.6501,-5.6457,-5.6457,-5.6404,-5.6359,-5.6359,-5.6359,-5.6359,-5.6359,-5.6359,-5.6359,-5.6359,-5.6359,-5.6359,-5.6359,-5.6359,-5.6359,-5.6359,-5.6359,-5.6359,-5.6359,-5.6359,-5.5836,-5.5343,-5.5343,-5.4923,-5.4554,-5.4554,-5.4554,-5.4767,-5.5294,-5.5343,-5.5343,-5.5343,-5.5343,-5.5144,-5.4608,-5.5128,-5.4802,-5.3455,-5.4027,-5.4027,-5.3219,-5.3219,-5.3219,-5.3219,-5.2583,-5.2238,-5.2238,-5.2141,-5.2077,1.037,0.3411,-0.2994,-0.8321,-1.1026,-1.3404,-1.7262,-1.7586,-1.7108,-1.7333,-1.7901,-1.847,-1.8652,-2.0102,-2.2193,-2.5236,-2.7678,-3.1345,-3.7452,-4.3396,-4.6687,-4.5308,-4.749,-4.917,-4.9343,-4.9165,-4.9554,-5.091,-4.9811,-4.9101,-4.9101,-4.8592,-4.8261,-4.8261,-4.8975,-4.9391,-4.9425,-4.9428,-5.027,-5.1899,-5.2193,-5.401,-5.715,-5.7293,-5.8144,-5.9431,-5.9305,-5.9224,-5.9089,-5.9089,-5.9066,-5.892,-5.8489,-5.8284,-5.8197,-5.7854,-5.7724,-5.7724,-5.7656,-5.7586,-5.748,-5.7137,-5.7014,-5.6932,-5.6501,-5.6359,-5.6359,-5.6359,-5.6359,-5.6359,-5.6359,-5.6359,-5.6359,-5.6359,-5.6359,-5.6359,-5.6359,-5.6359,-5.6359,-5.6359,-5.6359,-5.6359,-5.6359,-5.6278,-5.6187,-5.6187,-5.6105,-5.6013,-5.6013,-5.6013,-5.6059,-5.6187,-5.6187,-5.6187,-5.6187,-5.6187,-5.6141,-5.6095,-5.6141,-5.5836,-5.4905,-5.4956,-5.4732,-5.4061,-5.4061,-5.4061,-5.4061,-5.3949,-5.3892,-5.3858,-5.3227,-5.2923,0.4482,-0.5081,-1.3413,-1.4428,-1.5335,-1.6407,-1.8096,-1.7871,-1.7424,-1.7823,-1.8119,-1.8505,-1.9227,-2.0124,-2.1805,-2.5009,-2.7056,-3.0032,-3.5179,-4.1213,-4.5395,-4.6193,-4.8136,-4.9736,-5.0553,-5.0624,-5.091,-5.1659,-5.1052,-5.0268,-4.9415,-4.9248,-4.8867,-4.8252,-4.8681,-4.9476,-5.0624,-5.0717,-5.1671,-5.3582,-5.4534,-5.5917,-5.7556,-5.8449,-5.9117,-5.957,-5.9522,-5.9373,-5.9187,-5.9187,-5.9187,-5.9164,-5.8871,-5.8759,-5.8833,-5.8573,-5.8481,-5.8416,-5.8137,-5.8045,-5.7983,-5.7623,-5.7443,-5.7406,-5.6932,-5.6802,-5.685,-5.7061,-5.6772,-5.6413,-5.6718,-5.6589,-5.6359,-5.6359,-5.6359,-5.6359,-5.6359,-5.6359,-5.6359,-5.6359,-5.6359,-5.6359,-5.6359,-5.6359,-5.6359,-5.6359,-5.6359,-5.6359,-5.6359,-5.6359,-5.6359,-5.6359,-5.6359,-5.6359,-5.6359,-5.6359,-5.6359,-5.6359,-5.6359,-5.6233,-5.5836,-5.5428,-5.5244,-5.5364,-5.4975,-5.4784,-5.4784,-5.4446,-5.4234,-5.4243,-5.3835,-5.3495,-0.4089,0.0,-2.1567,-2.0973,-2.016,-1.9392,0.0,-1.8265,-1.7736,-1.8012,-1.833,-1.892,-2.0029,-2.0469,-2.1613,-2.4616,-2.5809,-2.8074,-3.2924,-3.7226,-4.1338,-4.5437,-4.7313,-4.9019,-5.0981,-5.1837,-5.2408,-5.2801,-5.2479,-5.1776,-5.0682,-5.0297,-4.9716,-4.8913,-4.9496,-5.0574,-5.2307,-5.2399,-5.3354,-5.5132,-5.66,-5.7557,-5.8075,-5.9449,-5.9941,-5.9673,-5.9673,-5.9537,-5.9343,-5.9306,-5.9336,-5.9336,-5.9206,-5.9222,-5.9261,-5.9187,-5.9089,-5.9028,-5.867,-5.8489,-5.8434,-5.8144,-5.7988,-5.7789,-5.7406,-5.7332,-5.7443,-5.7656,-5.7257,-5.6772,-5.7215,-5.7018,-5.6688,-5.6688,-5.6596,-5.6545,-5.6545,-5.6457,-5.6359,-5.6359,-5.6359,-5.6359,-5.6359,-5.6359,-5.6359,-5.6359,-5.6359,-5.6359,-5.6359,-5.6359,-5.6359,-5.6359,-5.6359,-5.6359,-5.6359,-5.6359,-5.6359,-5.6359,-5.6359,-5.6359,-5.6359,-5.5801,-5.5754,-5.6359,-5.5754,-5.5477,-5.5477,-5.4975,-5.4732,-5.4759,-5.4534,-5.4114,0.0,-2.4776,-2.6962,-2.8101,-2.5741,-2.3051,-2.279,-2.0298,0.0,-1.8083,-1.8483,-1.8776,-1.8657,-1.8856,-1.9591,-2.1442,-2.069,-2.2691,-3.0713,-3.0852,-3.2823,0.0,-4.3367,-4.6236,-4.9272,-5.2158,-5.4477,-5.5895,-5.4691,-5.3979,-5.4239,-5.1867,-5.0622,-5.0904,-5.2473,-5.3536,-5.4027,-5.4064,-5.4924,-5.6591,-5.6976,-5.7994,-5.9526,-5.9872,-5.9941,-5.9673,-5.9673,-5.959,-5.947,-5.9475,-5.9448,-5.9456,-5.9472,-5.9393,-5.9299,-5.9261,-5.9187,-5.9089,-5.9028,-5.9028,-5.9028,-5.9005,-5.867,-5.8197,-5.7825,-5.7951,-5.8167,-5.7858,-5.769,-5.7656,-5.769,-5.7656,-5.7656,-5.7656,-5.7369,-5.7094,-5.7094,-5.6718,-5.6359,-5.6359,-5.6359,-5.6359,-5.6359,-5.6359,-5.6359,-5.6359,-5.6359,-5.6359,-5.6359,-5.6359,-5.6359,-5.6359,-5.6359,-5.6359,-5.6359,-5.6359,-5.6359,-5.6359,-5.6359,-5.6359,-5.6359,-5.6323,-5.6278,-5.6359,-5.6278,-5.6314,-5.6314,-5.6233,-5.6233,-5.6161,-5.5466,-5.5111,-2.4205,-2.7153,-2.8502,-2.8836,-2.784,-2.6208,-2.3907,-2.2276,-2.0727,-1.892,-1.858,-1.8648,-1.8695,-1.886,-1.9901,-2.2632,-2.268,-2.4612,-3.1044,-3.2977,-3.5863,-4.1452,-4.6233,0.0,-5.2051,-5.3336,-5.4691,-5.6216,-5.5833,-5.5135,-5.4312,-5.3516,-5.3409,-5.4127,-5.408,-5.4539,-5.5672,-5.5672,-5.6569,-5.8327,-5.8442,-5.8873,-5.9554,-5.9669,-5.9683,-5.9663,-5.9663,-5.9658,0.0,-5.9612,-5.9606,-5.9583,-5.9515,-5.9485,-5.9523,-5.9448,-5.9373,-5.9336,-5.9261,-5.9224,-5.9224,-5.9089,-5.8944,-5.8747,-5.8617,-5.867,-5.8784,-5.8617,-5.8181,-5.7792,-5.8045,-5.7919,-5.7724,-5.7724,-5.7621,-5.7443,-5.7176,-5.7014,-5.6724,-5.6413,-5.6359,-5.6359,-5.6359,-5.6359,-5.6359,-5.6359,-5.6359,-5.6359,-5.6359,-5.6359,-5.6359,-5.6359,-5.6359,-5.6359,-5.6359,-5.6359,-5.6359,-5.6359,-5.6359,-5.6359,-5.6359,-5.6359,-5.6359,-5.6359,-5.6359,-5.6359,-5.6359,-5.6359,-5.6359,-5.6359,-5.6074,-5.5708,-2.7809,-2.9852,-3.1263,-3.1813,-3.1113,-2.9339,-2.5923,-2.4158,-2.2404,-1.9408,-1.872,-1.8705,-1.8875,-1.9006,-2.0072,-2.2975,-2.3514,-2.5708,-3.1918,-3.5017,0.0,-4.2858,-4.7675,-5.1196,0.0,-5.3998,-5.5226,-5.6288,-5.6359,-5.5949,-5.5055,-5.489,-5.5356,-5.6512,-5.604,-5.6308,-5.7354,-5.7354,-5.799,-5.9224,-5.9261,-5.9305,-5.9434,-5.951,-5.9608,-5.9658,-5.9739,-5.981,-5.9781,-5.9781,-5.9792,-5.9795,-5.9701,-5.9681,-5.9635,-5.956,-5.9522,-5.9439,-5.9364,-5.9339,-5.9261,-5.9187,-5.9126,-5.9089,-5.9089,-5.9089,-5.9089,-5.9089,-5.9026,-5.8899,-5.861,-5.8758,-5.8808,-5.8291,-5.8457,-5.8516,-5.7697,-5.7844,-5.7834,-5.6789,-5.6632,-5.6545,-5.6368,-5.6359,-5.6359,-5.6359,-5.6359,-5.6359,-5.6359,-5.6359,-5.6359,-5.6359,-5.6359,-5.6359,-5.6359,-5.6359,-5.6359,-5.6359,-5.6359,-5.6359,-5.6359,-5.6359,-5.6359,-5.6359,-5.6359,-5.6359,-5.6359,-5.6359,-5.6359,-5.6359,-5.6359,-5.6109,-3.1785,-3.4145,-3.6009,-3.8319,-3.62,-3.2637,-2.9359,-2.598,-2.2659,-1.9346,-1.8874,-1.9046,-1.9046,-1.9172,-1.9848,-2.1667,-2.1985,-2.4948,-3.3239,-3.5879,-3.8733,0.0,-4.6503,-4.8731,-4.9885,-5.3882,-5.6359,-5.6359,-5.6359,-5.6589,-5.7134,-5.5912,-5.6002,-5.7722,-5.8654,-5.9089,-5.9089,-5.9089,-5.9089,-5.9089,-5.9224,-5.9299,-5.9299,-5.956,-5.9673,-5.9703,-5.9941,-6.0061,-6.0061,-6.0061,-6.0061,-6.0062,-6.0062,-5.9906,-5.9658,-5.9658,-5.9608,-5.9493,-5.9481,-5.9393,-5.9299,-5.9299,-5.9224,-5.9089,-5.9089,-5.9089,-5.9089,-5.9089,-6.0308,-6.1243,-5.956,-6.0383,-6.1243,-5.9537,-6.0025,-6.0417,-5.8749,-5.9373,-5.9633,-5.758,-5.7173,-5.6973,-5.6457,-5.6404,-5.6359,-5.6359,-5.6359,-5.6359,-5.6359,-5.6359,-5.6359,-5.6359,-5.6404,-5.6404,-5.6404,-5.6404,-5.6359,-5.6359,-5.6359,-5.6359,-5.6359,-5.6359,-5.6359,-5.6359,-5.6359,-5.6359,-5.6359,-5.6359,-5.6359,-5.6359,-5.6359,-5.6359,-3.3898,-3.7202,-4.0318,-4.1565,-4.0322,-3.7318,-3.1771,-2.8725,-2.5525,-2.0064,-1.9006,-1.9046,-1.9046,-1.923,-1.9939,-2.1677,-2.4959,-2.898,-3.3725,-3.8722,-4.3515,-4.7893,0.0,-5.156,-5.2733,-5.4956,-5.6359,-5.6359,-5.6359,-5.6413,-5.6589,-5.686,-5.734,-5.81,-5.8759,-5.9089,-5.9089,-5.9089,-5.9089,-5.9089,-5.9126,-5.9126,-5.9126,-5.9224,-5.9299,-5.9396,-5.9477,-5.9598,-5.9802,-5.9802,-5.9896,-6.0062,-6.0062,-6.0009,-5.9941,-5.9941,-5.9934,-5.9869,-5.9667,-5.9601,-5.9523,-5.9336,-5.9261,-5.9224,-5.9224,-5.9187,-5.9089,-5.9089,-6.0308,-6.1505,-6.1019,-6.2065,-6.315,-6.2626,-6.2777,-6.2834,-6.2062,-6.1247,-6.0401,-5.9522,-5.8169,-5.7094,-5.6932,-5.6632,-5.6359,-5.6359,-5.6359,-5.6359,-5.6359,-5.6359,-5.6359,-5.6359,-5.6718,-5.6932,-5.6932,-5.6589,-5.6359,-5.6359,-5.6359,-5.6359,-5.6359,-5.6359,-5.6359,-5.6359,-5.6359,-5.6359,-5.6359,-5.6359,-5.6359,-5.6359,-5.6359,-5.6359,-3.6321,-3.9249,-4.2069,-4.3064,-4.265,-4.0136,-3.3264,-3.0766,-2.7892,-2.074,-1.9281,-1.9476,-2.0109,-1.9808,-2.0918,-2.5305,-2.7997,-3.1855,-3.845,-4.323,-4.766,-5.2097,-5.3674,0.0,0.0,0.0,-5.6359,-5.6359,-5.6359,-5.6359,-5.6359,-5.7101,-5.769,-5.8076,-5.8526,-5.8896,-5.9089,-5.9089,-5.9089,-5.9089,-5.9089,-5.9089,-5.9089,-5.9126,-5.9224,-5.9299,-5.9336,-5.9448,-5.9598,-5.9635,-5.9756,-5.9933,-6.0015,-6.0062,-6.0062,-6.0062,-6.0062,-6.0058,-5.9904,-5.9739,-5.9635,-5.9486,-5.9448,-5.9411,-5.9373,-5.9261,-5.9187,-5.9187,-5.9897,-6.0944,-6.2215,-6.2776,-6.3187,-6.3785,-6.4458,-6.4707,-6.3813,-6.2827,-6.1748,-6.0728,-5.9477,-5.8355,-5.7515,-5.7647,-5.77,-5.7009,-5.6901,-5.6901,-5.6901,-5.6901,-5.6901,-5.6901,-5.7217,-5.7369,-5.7369,-5.6937,-5.6675,-5.6675,-5.6457,-5.6359,-5.6359,-5.6359,-5.6359,-5.6359,-5.6359,-5.6359,-5.6359,-5.6359,-5.6359,-5.6359,-5.6359,-5.668,-3.8651,-4.062,-4.2284,-4.3582,-4.3739,-4.1602,-3.4063,-3.2094,-2.955,-2.1324,-1.9633,-2.0124,-2.1677,-2.1056,-2.2948,-3.0995,-3.1631,-3.4921,-4.5781,-4.8886,-5.1542,-5.5646,0.0,0.0,-5.7098,-5.6675,-5.6359,-5.6359,-5.6359,-5.6359,-5.6359,-5.685,-5.7332,-5.7724,-5.8076,-5.8526,-5.9005,-5.9028,-5.9066,-5.9089,-5.9089,-5.9089,-5.9089,-5.9224,-5.9261,-5.9261,-5.9411,-5.9448,-5.9486,-5.9598,-5.9681,-5.968,-5.991,-6.002,-6.0017,-6.0017,-6.0059,-6.0062,-6.0062,-5.9915,-5.9714,-5.9681,-5.9673,-5.9635,-5.9523,-5.9411,-5.9299,-5.9299,-5.9411,-6.0233,-6.3187,-6.315,-6.2664,-6.4084,-6.558,-6.629,-6.4757,-6.4309,-6.3636,-6.1748,-6.1077,-6.0254,-5.8332,-5.9113,-5.9517,-5.7978,-5.7724,-5.7724,-5.7724,-5.7724,-5.7758,-5.7858,-5.7825,-5.7792,-5.7792,-5.7407,-5.7176,-5.7173,-5.6682,-5.6448,-5.6359,-5.6359,-5.6359,-5.6359,-5.6413,-5.6413,-5.6359,-5.6413,-5.6413,-5.6359,-5.6501,-5.7367,-3.946,-4.2204,-4.5308,-4.6094,-4.5741,-4.31,-3.4993,-3.2478,-2.9535,-2.1189,-1.9549,-2.0124,-2.1677,-2.3862,-2.7283,-3.2977,-3.9124,-4.4921,-4.9951,-5.3955,-5.6618,0.0,-5.7297,0.0,-5.6589,-5.6413,0.0,-5.6359,-5.6359,-5.6359,-5.6359,-5.685,-5.7332,-5.7724,-5.7789,-5.8045,-5.8462,-5.8489,-5.8696,-5.9089,-5.9089,-5.9089,-5.9089,-5.9089,-5.9126,-5.9126,-5.9187,-5.9224,-5.9336,-5.9373,-5.9439,-5.9506,-5.9574,-5.9659,-5.9758,-5.9758,-5.9876,-6.0062,-6.0062,-6.0015,-5.9941,-5.9741,-5.9673,-5.9673,-5.9635,-5.9448,-5.9299,-5.9299,-6.1056,-6.3075,-6.3785,-6.5692,-6.7524,-6.7861,-6.8235,-6.8384,-6.801,-6.6851,-6.5804,-6.5354,-6.2874,-6.0714,-6.0254,-5.9093,-5.8162,-5.7761,-5.7724,-5.7724,-5.7724,-5.7724,-5.7988,-5.8733,-5.8407,-5.8197,-5.8197,-5.7822,-5.748,-5.7173,-5.7054,-5.6766,-5.6404,-5.6359,-5.6359,-5.6359,-5.6802,-5.6766,-5.6359,-5.6766,-5.6802,-5.6395,-5.7652,-5.8402,-4.1099,-4.4013,-4.7165,-4.7661,-4.7426,-4.5396,-3.9007,-3.6561,-3.3237,-2.4865,-2.2632,-2.2128,-2.2053,-2.5449,-3.0124,-3.5893,-4.249,-4.8549,-5.3354,-5.588,-5.7317,-5.7682,-5.7406,-5.6932,-5.6448,-5.6359,-5.6359,-5.6359,-5.6359,-5.6359,-5.6359,-5.6632,-5.6978,-5.7407,-5.748,-5.7724,-5.8313,-5.8313,-5.858,-5.9089,-5.9089,-5.9089,-5.9089,-5.9089,-5.9089,-5.9089,-5.9089,-5.9126,-5.9187,-5.9261,-5.9322,-5.9397,-5.9472,-5.9552,-5.9673,-5.9673,-5.9852,-6.0076,-6.005,-6.0062,-6.0058,-5.9906,-5.9885,-5.9885,-5.9885,-5.9661,-5.9448,-5.9411,-6.1093,-6.3051,-6.3785,-6.5842,-6.801,-6.8833,-6.8993,-6.8993,-6.8993,-6.7674,-6.6477,-6.6477,-6.489,-6.3264,-6.2482,-6.1423,-6.0454,-5.9721,-5.8906,-5.8387,-5.8387,-5.8387,-5.8563,-5.9028,-5.8871,-5.8696,-5.8696,-5.8293,-5.7919,-5.7724,-5.7552,-5.7295,-5.7025,-5.7061,-5.6941,-5.6724,-5.7179,-5.7179,-5.6724,-5.7014,-5.7411,-5.7874,-5.8432,-5.9508,-4.2632,-4.5464,-4.827,-4.851,-4.8569,-4.7393,-4.2892,-4.0934,0.0,-3.0075,-2.7025,-2.5438,-2.448,-2.8116,-3.3351,-3.9707,-4.5056,-5.0416,-5.6092,-5.6458,-5.6546,0.0,-5.7256,-5.685,-5.6404,-5.6359,0.0,0.0,-5.6359,-5.6359,-5.6359,-5.6359,-5.6545,-5.7014,-5.7014,-5.737,-5.8107,-5.8107,-5.835,-5.8871,-5.8871,-5.8871,-5.8871,-5.8871,-5.8871,-5.8871,-5.892,-5.8944,-5.8981,-5.9164,-5.9261,-5.9261,-5.9373,-5.9486,-5.9621,-5.9634,-5.98,-6.0014,-6.0055,-6.0052,-6.0062,-6.0062,-6.0062,-6.0062,-6.0062,-5.9893,-5.971,-5.9897,-6.1093,-6.2602,-6.4047,-6.5692,-6.73,-6.8683,-6.8993,-6.8993,-6.8993,-6.7898,-6.6926,-6.6926,-6.6664,-6.5917,-6.4234,-6.3711,-6.3,-6.143,-6.0009,-5.9089,-5.9089,-5.9089,-5.9089,-5.9089,-5.9089,-5.9089,-5.9089,-5.8696,-5.8434,-5.8313,-5.8014,-5.7825,-5.7724,-5.7724,-5.7551,-5.7254,-5.7621,-5.7621,-5.7254,-5.7294,-5.8129,-5.9612,-5.9347,-6.0757,-4.2438,-4.5666,-4.8215,-4.8234,-4.8435,-4.7296,-4.2436,-4.1592,-4.0268,-3.4745,-3.1207,-2.9879,-3.2463,-3.5797,-3.9857,-4.5033,0.0,-5.554,-5.7767,-5.7428,-5.7038,-5.7179,-5.6766,-5.6448,-5.6404,-5.6359,-5.6359,-5.6359,-5.6359,-5.6359,-5.6359,-5.6359,-5.6404,-5.6457,-5.6457,-5.6724,-5.733,-5.7294,-5.7552,-5.7924,-5.7924,-5.7924,-5.7924,-5.7924,-5.7924,-5.7924,-5.8293,-5.8397,-5.8462,-5.892,-5.9089,-5.9089,-5.9126,-5.9224,-5.9366,-5.9457,-5.9585,-5.9733,-5.998,-6.0071,-6.0062,-6.0062,-6.0062,-6.0062,-6.0062,-5.9893,-5.9995,-6.1402,-6.2973,-6.4496,-6.5942,-6.7562,-6.887,-6.8982,-6.8993,-6.8993,-6.8993,-6.8833,-6.8683,-6.8683,-6.7487,-6.5917,-6.4234,-6.2813,-6.1355,-5.9673,-5.9201,-5.9089,-5.9089,-5.9089,-5.9089,-5.9089,-5.9089,-5.9089,-5.9089,-5.9028,-5.8809,-5.8341,-5.8284,-5.8076,-5.7758,-5.7724,-5.7724,-5.7656,-5.8045,-5.8045,-5.7656,-5.7983,-5.8862,-6.0181,-6.0991,-6.2365,-4.162,-4.5413,-4.8751,-4.8751,-4.8826,-4.8391,-4.6247,-4.5336,-4.4051,-4.0998,-3.7658,-3.546,-3.6034,-4.0212,-4.4216,0.0,0.0,0.0,-5.7904,-5.7516,-5.7173,0.0,-5.6718,0.0,-5.6359,-5.6359,-5.6359,-5.6359,-5.6359,-5.6359,-5.6359,-5.6359,-5.6359,-5.6359,-5.6359,-5.6493,-5.6682,-5.7014,-5.7332,-5.7724,-5.7724,-5.7724,-5.7724,-5.7724,-5.7822,-5.8076,-5.8255,-5.8489,-5.8747,-5.9005,-5.9089,-5.9089,-5.9089,-5.9187,-5.9284,-5.9346,-5.9513,-5.9673,-5.9822,-5.9853,-5.9848,-5.9848,-5.9934,-6.0251,-6.1201,-6.1391,-6.1648,-6.3194,-6.4807,-6.6191,-6.6736,-6.8053,-6.9207,-6.9132,-6.9095,-6.8993,-6.8993,-6.8993,-6.8993,-6.8993,-6.8422,-6.7674,-6.6926,-6.543,-6.3785,-6.2065,-6.1093,-6.0159,-5.9201,-5.9089,-5.9089,-5.9089,-5.9089,-5.9089,-5.9089,-5.9089,-5.9005,-5.8747,-5.8747,-5.867,-5.8509,-5.8509,-5.8358,-5.8076,-5.8526,-5.8526,-5.8076,-5.8226,-5.9521,-6.1877,-6.2122,-6.3607,-4.0014,-4.4069,-4.7615,-4.8923,-4.9259,-4.9259,-4.9391,-4.8877,-4.8081,-4.6992,-4.4331,-4.1987,-4.1219,-4.4916,-4.81,-4.815,-5.3777,0.0,-5.7792,-5.7294,0.0,-5.6932,0.0,-5.6359,-5.6359,-5.6359,0.0,0.0,-5.6059,-5.6059,-5.6059,-5.6278,-5.6359,-5.6359,-5.6359,-5.6359,-5.6359,-5.676,-5.7061,-5.737,-5.737,-5.737,-5.737,-5.737,-5.755,-5.7818,-5.8039,-5.8378,-5.8759,-5.9005,-5.9089,-5.9089,-5.9089,-5.9126,-5.9261,-5.9261,-5.9411,-5.9635,-6.0084,-6.0233,-6.0406,-6.0808,-6.1095,-6.1542,-6.2795,-6.3213,-6.3507,-6.4986,-6.6323,-6.7377,-6.7693,-6.8533,-6.9356,-6.9282,-6.9169,-6.9095,-6.9095,-6.9057,-6.8993,-6.8993,-6.8993,-6.8993,-6.8993,-6.7225,-6.5281,-6.3598,-6.1991,-6.0533,-5.9238,-5.9089,-5.9089,-5.9089,-5.9089,-5.9089,-5.9089,-5.9089,-5.9089,-5.9089,-5.9089,-5.9089,-5.9089,-5.9089,-5.892,-5.8553,-5.8896,-5.8896,-5.8489,-5.8962,-6.0634,-6.3391,-6.3389,-6.4911,-3.7524,-4.0925,-4.3371,-4.8306,-4.9465,-4.9391,-4.954,-5.0832,-5.2012,-5.1937,-5.0401,-4.953,-5.1049,-5.1411,-5.197,-5.3557,-5.6072,-5.7758,-5.7724,-5.6982,-5.6404,0.0,0.0,0.0,0.0,0.0,0.0,-5.5294,-5.5244,-5.5244,-5.5244,-5.5977,-5.6359,-5.6359,-5.6359,-5.6359,-5.6359,-5.6404,-5.6448,-5.6448,-5.6448,-5.6448,-5.6448,-5.6448,-5.6457,-5.6545,-5.737,-5.7792,-5.7858,-5.8733,-5.9089,-5.9089,-5.9089,-5.9089,-5.9089,-5.9261,-5.9299,-5.956,-6.1144,-6.1865,-6.2337,-6.3946,-6.4542,-6.4693,-6.4769,-6.4807,-6.5149,-6.6856,-6.7386,-6.7765,-6.9268,-6.9682,-6.9693,-6.9468,-6.9282,-6.9207,-6.9207,-6.9095,-6.8993,-6.8993,-6.8993,-6.8993,-6.8993,-6.6253,-6.3561,-6.1991,-6.0308,-5.9164,-5.9089,-5.9089,-5.9089,-5.9089,-5.9089,-5.9089,-5.9089,-5.9089,-5.9089,-5.9089,-5.9089,-5.9089,-5.9089,-5.9089,-5.9089,-5.9028,-5.9089,-5.9089,-5.9028,-6.0659,-6.2303,-6.3948,-6.5055,-6.6501,-3.6019,-4.0002,-4.3262,-4.8286,-4.9543,-4.9515,-4.9644,-5.104,-5.262,-5.3797,-5.3455,-5.345,-5.5066,-5.5136,-5.5046,-5.5322,-5.6711,-5.7621,-5.7406,-5.6772,-5.6359,-5.6359,-5.6359,-5.6359,0.0,0.0,0.0,-5.5244,-5.5194,-5.5194,-5.5194,-5.5477,-5.5884,-5.6359,-5.6359,-5.6359,-5.6359,-5.6359,-5.6359,-5.6359,-5.6359,-5.6359,-5.6359,-5.6359,-5.7118,-5.8404,-5.8702,-5.9743,-6.124,-6.1588,-6.1913,-6.2215,-6.2215,-6.2215,-6.2103,-6.1131,-6.0845,-6.1144,-6.2639,-6.3337,-6.3572,-6.4347,-6.4684,-6.5019,-6.6193,-6.6554,-6.6895,-6.8604,-6.9097,-6.9209,-6.9761,-6.9863,-6.9768,-6.9655,-6.9487,-6.9316,-6.921,-6.9169,-6.9132,-6.9057,-6.8993,-6.8993,-6.8993,-6.801,-6.629,-6.3524,-6.1766,-6.0719,-6.0719,-5.9785,-5.9089,-5.9089,-5.9089,-5.9089,-5.9089,-5.9089,-5.9089,-5.9089,-5.9089,-5.9089,-5.9089,-5.9089,-5.9089,-5.9089,-5.9089,-5.9089,-5.9089,-5.971,-6.1355,-6.3972,-6.4368,-6.6067,-3.2352,-3.6712,-4.091,-4.5947,-4.844,-4.9678,-4.9809,-5.114,-5.2848,-5.4633,-5.5359,-5.6153,-5.7655,-5.7747,-5.7474,-5.707,-5.7531,-5.7792,-5.7406,-5.6937,-5.6545,-5.6404,-5.6359,0.0,0.0,0.0,-5.5463,-5.494,-5.4644,-5.4485,-5.4485,-5.4749,-5.5229,-5.5966,-5.5977,-5.6105,-5.6359,-5.6359,-5.6359,-5.6359,-5.6359,-5.6359,-5.6359,-5.6939,-5.8191,-6.0026,-6.0161,-6.1195,-6.274,-6.304,-6.3354,-6.3681,-6.3885,-6.3935,-6.3823,-6.2776,-6.2851,-6.3499,-6.4496,-6.4882,-6.5119,-6.5833,-6.6209,-6.6545,-6.7825,-6.8211,-6.8472,-6.9663,-6.9971,-6.9971,-6.9971,-6.9934,-6.9843,-6.9843,-6.9692,-6.9524,-6.9423,-6.9356,-6.9244,-6.9169,-6.9132,-6.9095,-6.9095,-6.9057,-6.8048,-6.5244,-6.3898,-6.3075,-6.2527,-6.0546,-5.9224,-5.9187,-5.9126,-5.9126,-5.9089,-5.9089,-5.9089,-5.9089,-5.9089,-5.9089,-5.9089,-5.9089,-5.9089,-5.9089,-5.9089,-5.9089,-5.9089,-6.0196,-6.1841,-6.3972,-6.5131,-6.6851,-2.6764,-3.1141,-3.6015,-4.1338,-4.6128,-4.9583,-4.9773,-5.114,-5.2848,-5.4595,-5.6233,-5.7785,-5.9193,-5.9345,-5.9261,-5.9089,-5.867,-5.8197,-5.7825,-5.7406,-5.6973,-5.6457,-5.6404,-5.6359,0.0,-5.5077,-5.4228,-5.4228,-5.3455,-5.3073,-5.3073,-5.3744,-5.4466,-5.5159,-5.5159,-5.5526,-5.6359,-5.6359,-5.6359,-5.6359,-5.6359,-5.6359,-5.6466,-5.8009,-5.9579,-6.1126,-6.1647,-6.191,-6.2031,-6.2922,-6.3283,-6.3382,-6.3894,-6.4084,-6.4122,-6.4122,-6.5131,-6.6552,-6.6552,-6.6627,-6.7001,-6.8646,-6.9273,-6.943,-6.9709,-6.9768,-6.978,-6.9933,-6.9971,-6.9971,-6.9971,-6.9971,-6.9971,-6.9971,-6.9893,-6.9783,-6.9794,-6.9581,-6.9394,-6.9383,-6.9308,-6.9196,-6.9207,-6.9132,-6.8459,-6.6814,-6.6552,-6.5991,-6.4321,-6.1467,-5.9546,-5.9321,-5.9299,-5.9261,-5.9089,-5.9089,-5.9089,-5.9089,-5.9089,-5.9089,-5.9089,-5.9089,-5.9089,-5.9089,-5.9089,-5.9089,-5.9089,-6.2252,-6.3823,-6.3935,-6.73,-6.8908,-3.284,-3.3936,-3.4914,-4.2521,-4.4458,-4.4875,-4.6128,-4.7685,-4.9659,-5.2582,-5.5483,-5.7558,-5.788,-5.8751,-5.9373,-5.9261,-5.8707,-5.8284,-5.8167,-5.7587,-5.7094,-5.6932,-5.6589,-5.6187,-5.5574,-5.5144,-5.4485,-5.3455,-5.316,-5.3073,-5.3073,-5.3312,-5.3744,-5.4466,-5.4466,-5.4836,-5.5526,-5.5526,-5.5801,-5.6359,-5.6359,-5.701,-5.8081,-5.8509,-6.0185,-6.2718,-6.2867,-6.3824,-6.5211,-6.5481,-6.6086,-6.6866,-6.6993,-6.7277,-6.7599,-6.7599,-6.7936,-6.8309,-6.8309,-6.8347,-6.8459,-6.902,-6.9223,-6.9344,-6.9671,-6.9768,-6.978,-6.9933,-6.9971,-6.9971,-6.9971,-6.9971,-6.9971,-6.9971,-6.995,-6.9903,-6.9808,-6.973,-6.9623,-6.943,-6.9387,-6.9355,-6.9323,-6.9319,-6.9095,-6.8534,-6.8534,-6.7136,-6.3114,-6.2913,-6.2172,-5.969,-5.942,-5.9411,-5.9373,-5.9373,-5.9336,-5.9261,-5.9224,-5.9187,-5.9089,-5.9089,-5.9089,-5.9089,-5.9089,-5.9089,-5.9089,-6.0009,-6.1056,-6.2327,-6.4384,-6.6029,-2.9271,-2.9271,-2.9993,-3.7016,-3.8535,-3.9712,-4.4875,-4.5711,-4.6736,-5.1519,-5.4063,-5.5842,-5.7127,-5.802,-5.8753,0.0,-5.8983,-5.8617,-5.8341,-5.7792,-5.7332,-5.7173,-5.6718,-5.6059,-5.5294,-5.4956,-5.4323,-5.316,-5.2769,-5.2583,-5.2583,-5.2583,-5.2919,-5.3721,-5.3744,-5.4214,-5.5194,-5.5194,-5.5892,-5.7367,-5.7367,-5.8188,-5.9686,-6.0364,-6.1648,-6.3432,-6.4074,-6.5027,-6.6175,-6.6695,-6.7283,-6.7962,-6.8404,-6.8751,-6.8993,-6.8751,-6.8808,-6.8993,-6.8993,-6.8993,-6.9057,-6.9132,-6.9132,-6.9207,-6.9468,-6.9559,-6.9655,-6.9831,-6.9923,-6.9971,-6.9971,-6.9971,-6.9971,-6.9971,-6.9971,-6.9957,-6.9893,-6.9867,-6.9828,-6.9669,-6.9577,-6.9557,-6.9547,-6.9471,-6.9412,-6.9446,-6.8955,-6.7258,-6.3612,-6.3481,-6.2689,-6.0022,-5.9643,-5.9537,-5.9459,-5.9477,-5.944,-5.9364,-5.9318,-5.9261,-5.9187,-5.9089,-5.9089,-5.9089,-5.9089,-5.9089,-5.9089,-5.9822,-6.0645,-6.1654,-6.3225,-6.4122,-2.0462,-2.1109,-2.388,-2.8284,-3.0373,-3.3751,0.0,0.0,-4.2635,-4.8938,-5.0532,-5.1787,-5.5102,-5.5987,-5.6764,-5.8505,-5.891,-5.8845,-5.8462,-5.8014,-5.7586,-5.7254,-5.6724,-5.6059,-5.5194,-5.4573,-5.3858,-5.3013,-5.2302,-5.1883,-5.1883,-5.1883,-5.2238,-5.2891,-5.2919,-5.3595,-5.4956,-5.4956,-5.6166,-5.8593,-5.8593,-5.9532,-6.1327,-6.2754,-6.3503,-6.3717,-6.5109,-6.5715,-6.5783,-6.6856,-6.728,-6.744,-6.8367,-6.8808,-6.8836,-6.8182,-6.838,-6.8918,-6.8609,-6.8721,-6.8982,-6.8795,-6.887,-6.9057,-6.9169,-6.9273,-6.942,-6.9722,-6.9845,-6.996,-6.997,-6.9971,-6.9971,-6.9971,-6.9971,-6.9971,-6.9971,-6.9971,-6.9971,-6.9971,-6.9869,-6.9808,-6.9808,-6.9613,-6.9474,-6.9502,-6.8182,-6.6516,-6.4731,-6.3403,-6.195,-6.0248,-5.983,-5.9663,-5.9553,-5.9536,-5.9553,-5.9521,-5.9421,-5.9336,-5.9299,-5.9187,-5.9126,-5.9126,-5.9126,-5.9089,-5.9089,-6.0607,-6.1318,-6.1355,-6.2963,-6.2925,0.0,0.0,0.0,0.0,0.0,0.0,0.0,0.0,-3.1474,-3.5498,-3.8535,-4.1456,-4.4841,-4.7522,-5.0578,-5.4828,-5.6473,-5.7661,-5.8795,-5.8234,-5.769,-5.7658,-5.686,-5.5872,-5.452,-5.4338,-5.3629,-5.2238,-5.2014,-5.1883,-5.1883,-5.1883,-5.1949,-5.211,-5.2143,-5.2583,-5.3479,-5.3479,-5.4972,-5.773,-5.773,-5.9587,-6.2932,-6.3254,-6.4074,-6.5287,-6.5573,-6.5715,-6.5715,-6.5987,-6.6271,-6.6695,-6.6877,-6.7559,-6.8187,-6.675,-6.7375,-6.8646,-6.5879,-6.6702,-6.8795,-6.7412,-6.7898,-6.9057,-6.9169,-6.921,-6.931,-6.9708,-6.9822,-6.9863,-6.995,-6.9971,-6.9971,-6.9971,-6.9971,-6.9971,-6.9971,-6.9971,-6.9971,-6.9971,-6.996,-6.9928,-6.9928,-6.9913,-6.9423,-6.8112,-6.647,-6.4845,-6.3213,-6.2757,-6.1958,-6.0223,-6.0025,-6.0,-5.9939,-5.9939,-5.9889,-5.9663,-5.9628,-5.956,-5.9448,-5.9411,-5.9411,-5.9411,-5.9299,-5.9261,-5.9261,-5.9486,-5.9575,-5.9635,-6.128,-6.1916,0.0,0.0,0.0,0.0,0.0,0.0,0.0,0.0,0.0,0.0,0.0,-3.6029,0.0,0.0,-4.7137,-5.0327,-5.3524,-5.6114,-5.7616,-5.7043,-5.6478,-5.6478,-5.6396,-5.5789,-5.4392,-5.4228,-5.3605,-5.2014,-5.1883,-5.1883,-5.1883,-5.1883,-5.1883,-5.1883,-5.1883,-5.2302,-5.3073,-5.3073,-5.4952,-5.8805,-5.8805,-6.0828,-6.4538,-6.4538,-6.4966,-6.5715,-6.5715,-6.5715,-6.5715,-6.5715,-6.6015,-6.6469,-6.6223,-6.6311,-6.6492,-6.5607,-6.5818,-6.6253,-6.4533,-6.5057,-6.6477,-6.6477,-6.7076,-6.7936,-6.8833,-6.8571,-6.801,-6.832,-6.8474,-6.8575,-6.869,-6.9325,-6.9971,-6.9971,-6.9325,-6.8718,-6.8718,-6.8072,-6.7465,-6.7465,-6.7465,-6.7731,-6.8566,-6.7996,-6.7161,-6.6326,-6.4807,-6.3479,-6.2681,-6.1846,-6.0365,-5.7822,-5.8277,-5.8467,-5.7632,-5.8315,-5.9092,-5.9818,-5.9759,-5.9635,-5.956,-5.9534,-5.9472,-5.9472,-5.9435,-5.9346,-5.9299,-5.9224,-5.9126,-5.9089,-6.0121,-6.057,0.0,0.0,0.0,0.0,0.0,0.0,0.0,0.0,0.0,0.0,0.0,0.0,0.0,0.0,0.0,-4.5622,-5.0207,-5.406,-5.5859,-5.5045,-5.4536,-5.5122,-5.5638,-5.5471,-5.4358,-5.4228,-5.3605,-5.2014,-5.1883,-5.1883,-5.1883,-5.1883,-5.1883,-5.1883,-5.1883,-5.2174,-5.283,-5.283,-5.5059,-5.9391,-6.0579,0.0,-6.5715,-6.5715,-6.5715,-6.5715,-6.5715,-6.5715,-6.5715,-6.5715,-6.5951,-6.6282,-6.5528,-6.4987,-6.4555,-6.4133,-6.3895,-6.3748,-6.32,-6.3411,-6.4122,-6.5206,-6.573,-6.6253,-6.7599,-6.715,0.0,-6.6489,-6.6649,-6.6754,-6.6914,-6.8224,-6.9401,-6.9097,-6.8224,-6.7351,-6.7009,-6.5908,-6.4921,-6.4921,-6.4921,-6.5339,-6.6744,-6.5035,-6.3516,-6.3516,-6.215,-6.1125,-6.1125,-6.0213,-5.8543,-5.5772,-5.7024,-5.748,-5.6113,-5.6037,-5.7214,-5.9872,-5.8638,-5.7768,-5.7768,-5.7694,-5.7473,-5.7133,-5.7128,-5.7703,-5.8902,-5.8865,-5.8939,-5.9112,-5.6404,-5.6034,0.0,0.0,0.0,0.0,0.0,0.0,0.0,0.0,0.0,0.0,0.0,0.0,0.0,0.0,0.0,0.0,-4.6717,-5.0998,-5.4064,-5.2529,-5.2086,-5.4902,-5.4667,-5.4269,-5.4254,-5.4228,-5.3605,-5.2014,-5.1883,-5.1883,-5.1883,-5.1883,0.0,0.0,0.0,-5.1949,-5.2014,-5.2078,-5.3681,-5.7072,-6.2502,-6.5306,-6.5715,-6.5715,-6.5715,-6.5715,-6.5715,-6.5715,-6.5715,-6.5715,-6.5732,-6.564,-6.4181,-6.3589,-6.3347,-6.1304,-6.1811,-6.3086,-6.0549,0.0,0.0,-6.2552,-6.3112,-6.4271,-6.4458,-6.4384,-6.4333,-6.4705,-6.4836,-6.4921,-6.5141,-6.6478,-6.7351,-6.587,-6.6516,-6.7047,-6.5529,-6.5073,-6.4921,-6.4921,-6.4921,-6.4997,-6.5187,-6.139,-5.8391,-5.8391,-5.6948,-5.5847,-5.5847,-5.7024,-5.767,-5.729,-5.8771,0.0,-5.953,-5.4139,-5.3456,-5.9682,-5.44,-5.1049,-5.1049,-5.1058,-5.0339,-4.882,-4.8664,-5.1557,-5.7548,-5.7324,-5.7982,-5.9112,-4.5823,-4.3613,0.0,0.0,0.0,0.0,0.0,0.0,0.0,0.0,0.0,0.0,0.0,0.0,0.0,0.0,0.0,0.0,-4.1165,-4.5318,-4.6404,-4.7876,-4.9689,-5.1876,-5.2895,-5.321,-5.294,-5.3323,-5.31,-5.2014,-5.1387,-5.1117,-5.1117,-5.1117,-5.1017,-5.0811,-5.1521,-5.1883,-5.1883,-5.1883,-5.3915,-5.7903,-6.0512,-6.314,-6.5715,-6.5715,-6.5715,-6.5715,-6.5715,-6.5715,-6.5715,-6.5715,-6.5715,-6.543,0.0,0.0,0.0,0.0,-6.003,-6.0289,-5.9405,-6.0009,-6.1206,-6.1505,-6.2065,-6.2776,-6.3673,-6.3299,-6.2626,-6.2898,-6.2986,-6.3001,-6.3162,-6.4536,-6.567,-6.4976,-6.4701,-6.4428,-6.3706,-6.2774,-6.2116,-6.2116,-6.2116,0.0,-6.1806,-6.0104,-5.8802,-5.8802,-5.8292,-5.7936,-5.7936,-5.8581,-5.8239,-5.6265,-5.7594,-5.8201,-5.7214,-5.543,0.0,0.0,0.0,-5.5809,-5.5809,-5.5809,0.0,0.0,0.0,-4.97,-5.1452,-4.7481,0.0,0.0,-4.7975,-4.5848,0.0,0.0,0.0,0.0,0.0,0.0,0.0,0.0,0.0,0.0,0.0,0.0,0.0,0.0,0.0,0.0,-3.5412,-3.9528,-3.9169,-4.2882,-4.6057,-4.7117,-4.9846,-5.1159,-4.9927,-5.1091,-5.1731,-5.1323,-5.0466,-5.0047,-5.0533,-5.0565,-5.0393,-5.0006,-5.122,-5.1883,-5.1883,-5.1883,-5.3587,-5.6986,-5.6986,-6.0049,-6.5715,-6.5715,-6.5394,-6.4859,-6.4859,-6.4681,-6.4395,-6.4395,-6.4395,-6.4145,-6.1434,-6.0399,-6.0233,-5.9067,-5.8465,-5.8226,-5.8871,-5.9089,-5.9276,-6.0533,-6.0944,-6.1131,-6.229,-6.1841,-6.0981,-6.107,-6.1093,-6.1154,-6.1288,-6.2673,-6.3837,-6.3365,-6.2844,-6.2284,-6.1828,-6.0761,-5.9909,-5.9909,-5.9911,-5.969,-5.8921,-5.8876,-5.864,-5.7795,-5.8185,-5.8465,-5.8049,-5.8809,-5.8429,-5.5961,-5.7214,-5.7746,-5.6493,-5.5809,-5.6797,-5.9872,-5.8315,-5.8125,-5.9986,-5.8277,-5.729,-5.729,-5.2013,-4.863,0.0,0.0,0.0,0.0,0.0,0.0,0.0,0.0,0.0,0.0,0.0,0.0,0.0,0.0,0.0,0.0,0.0,0.0,0.0,0.0,0.0,0.0,0.0,0.0,-3.4235,-3.7938,-4.059,-4.0367,-4.5189,-4.748,-4.48,-4.7205,-4.9176,-4.9776,-4.8879,-4.8922,-5.0469,-5.0565,-5.0393,-5.0006,-5.122,-5.1883,-5.1883,-5.1883,-5.1982,-5.2145,-5.2145,-5.6884,-6.5715,-6.5715,-6.4574,-6.2683,-6.2683,-6.2112,-6.1149,-6.1149,-6.1149,-6.1006,-5.9401,-5.8794,-5.858,-5.7046,-5.7018,-5.7891,-5.8759,-5.9089,-5.9089,-5.9126,-5.9164,-5.9164,-5.9201,-5.9201,-5.9164,-5.9336,-5.9373,-5.9411,-5.9508,-6.0803,-6.1668,-6.0048,-6.0866,-6.1596,-5.992,-5.9531,-5.9493,-5.9493,-5.9493,-5.8962,-5.731,-5.7026,-5.6009,-5.295,-5.3912,0.0,-5.2916,-5.5582,-5.7594,-5.748,-5.8961,-5.9986,-5.991,-5.3949,-5.3,-5.9644,-5.3911,-5.3228,-5.9796,-5.3759,-5.0266,-5.0266,-4.8444,-4.747,-4.7407,0.0,0.0,0.0,0.0,0.0,0.0,0.0,0.0,0.0,0.0,0.0,0.0,0.0,0.0,0.0,0.0,0.0,0.0,0.0,0.0,0.0,0.0,0.0,0.0,-3.4044,-3.7996,-3.8095,-4.0679,-4.1439,-3.8776,-4.0971,-4.2754,-4.3157,-4.4374,-4.5694,-4.7154,-4.7216,-4.784,-4.929,-4.9759,-5.0571,-5.1883,-5.1883,-5.1883,-5.1883,-5.1883,-5.352,-5.6755,-6.2909,-6.5323,-6.4574,-6.3182,-6.2397,-6.2005,-6.1291,-5.9793,-5.7902,-5.7367,-5.7153,-5.7117,-5.6537,-5.6941,-5.7858,-5.8796,-5.9089,-5.9089,-5.9089,-5.9089,-5.9089,-5.9089,-5.9089,-5.9089,-5.9126,-5.9126,-5.9187,-5.9224,-5.971,-6.0077,-5.9495,-5.9853,-6.0192,-5.9609,-5.9459,-5.9459,-5.9459,-5.8419,-5.6681,-5.3931,-5.6286,-5.7033,-5.2698,-5.5442,-5.7806,-5.7217,-5.8336,-5.9106,-5.8873,-5.9437,-5.9789,-5.9669,-5.7562,-5.7259,-5.9541,-5.7524,-5.7297,-5.9578,-5.7486,-5.6309,-5.6373,-5.5769,-5.0633,-4.089,0.0,0.0,0.0,0.0,0.0,0.0,0.0,0.0,0.0,0.0,0.0,0.0,0.0,0.0,0.0,0.0,0.0,0.0,0.0,0.0,0.0,0.0,0.0,0.0,0.0,0.0,-3.5689,-3.7835,0.0,-3.3979,-3.5399,-3.6449,-3.6214,-3.8143,-4.0375,-4.2672,-4.3287,-4.4523,-4.6497,-4.8789,-5.0641,-5.1883,-5.1883,-5.1883,-5.1883,-5.1883,-5.1883,-5.2112,-5.8057,-6.1391,-6.2326,-6.097,-6.0364,-6.028,-5.9056,-5.7738,-5.6359,-5.6359,-5.6359,-5.6359,-5.6359,-5.6941,-5.7858,-5.8796,-5.9089,-5.9089,-5.9089,-5.7482,-5.5517,-5.5404,-5.4218,-5.3204,-5.4401,-5.5149,-5.5949,-5.7728,-5.87,-5.9224,-5.9224,-5.9299,-5.9336,-5.9336,-5.885,-5.8626,-5.9224,-5.8197,-5.5837,-5.1539,-5.3845,-5.5114,-5.1543,-5.4367,-5.7543,-5.9256,-5.9717,-5.9764,-5.9504,-5.9565,-5.9574,-5.9472,-5.9479,-5.9479,-5.9479,-5.9479,-5.9479,-5.9479,-5.9479,-5.8688,-5.7026,-5.574,-5.072,0.0,0.0,0.0,0.0,0.0,0.0,0.0,0.0,0.0,0.0,0.0,0.0,0.0,0.0,0.0,0.0,0.0,0.0,0.0,0.0,0.0,0.0,0.0,0.0,0.0,0.0,0.0,-3.2898,-3.6025,0.0,0.0,0.0,0.0,-2.9042,-3.0585,-3.3231,-3.7113,-3.8973,-4.0331,-4.1403,-4.802,-5.1653,-5.1883,-5.1883,-5.1883,-5.1883,-5.1883,-5.1883,-5.1883,-5.1883,-5.3479,-5.6187,-5.6314,-5.6359,-5.6268,-5.4871,-5.5026,-5.608,-5.5423,-5.4818,-5.439,-5.439,-5.5782,-5.7792,-5.8644,-5.8957,-5.8957,-5.8957,-5.4726,-4.9534,-4.9162,-4.555,0.0,0.0,-4.7484,-4.982,-5.4887,-5.7392,-5.8678,-5.9014,-5.9089,-5.9089,-5.9089,-5.7841,-5.7055,-5.8229,-5.7963,-5.5567,-4.9163,0.0,-4.9702,-4.8642,-5.0289,-5.3449,-5.845,-5.9327,-5.9475,-5.947,-5.9459,-5.9448,-5.9448,-5.9448,-5.9448,-5.9448,-5.9448,-5.9448,-5.9448,-5.9224,-5.6802,-5.1944,-4.8544,0.0,0.0,0.0,0.0,0.0,0.0,0.0,0.0,0.0,0.0,0.0,0.0,0.0,0.0,0.0,0.0,0.0,0.0,0.0,0.0,0.0,0.0,0.0,0.0,0.0,0.0,-2.4993,-2.8691,-2.9219,-2.8034,-2.57,0.0,0.0,0.0,0.0,0.0,0.0,-2.9564,-3.3074,-3.3753,-3.0828,-4.1604,-4.8889,-5.1883,-5.1883,-5.1883,-5.1883,-5.1883,-5.1883,-5.1883,-5.1883,-5.2365,-5.3185,-5.5379,-5.6359,-5.6359,-5.5966,-5.4732,-5.2046,-4.2017,-3.3703,-2.7279,-2.7279,-3.9807,-5.6772,-5.6982,-5.7065,-5.7065,-5.7065,-5.6348,-5.5515,-5.5429,0.0,0.0,0.0,0.0,-4.3371,-4.9503,-5.139,-5.2959,-5.7893,-5.9089,-5.9089,-5.9089,-5.8738,-5.6734,-5.0938,-4.85,-4.4184,-3.4264,-3.5848,0.0,-3.6561,-4.3072,-4.9502,-5.3209,-5.7104,-5.9381,-5.9192,-5.9275,-5.9299,-5.9224,-5.9187,-5.9187,-5.9187,-5.9187,-5.9187,-5.9187,-5.5672,-5.2008,-4.8418,0.0,0.0,0.0,0.0,0.0,0.0,0.0,0.0,0.0,0.0,0.0,0.0,0.0,0.0,0.0,0.0,0.0,0.0,0.0,0.0,0.0,0.0,0.0,0.0,0.0,0.0,0.0,-2.1864,-2.584,-2.7463,-2.4778,-2.1655,0.0,0.0,0.0,0.0,0.0,0.0,0.0,0.0,0.0,-2.1842,-3.6748,-4.7055,-5.1883,-5.1883,-5.1883,-5.1883,-5.1883,-5.1883,-5.1883,-5.1883,-5.1883,-5.2014,-5.371,-5.2997,-5.088,-5.3412,-4.8964,-3.9587,0.0,0.0,0.0,0.0,-2.6466,-4.4025,-4.4025,-4.7625,-5.2765,-5.5468,0.0,0.0,0.0,0.0,0.0,0.0,0.0,-3.9639,-4.5522,-5.0288,-5.4454,-5.8192,-5.9089,-5.9089,-5.9089,-5.3969,-4.7894,-4.3082,-4.0503,-3.5193,-2.2729,-2.6183,0.0,0.0,0.0,-4.4959,-4.9659,-5.5346,-5.8933,-5.8784,-5.9019,-5.9187,-5.9089,-5.9089,-5.9089,-5.9089,-5.9089,-5.8117,-5.5971,-5.1821,-4.6342,0.0,0.0,0.0,0.0,0.0,0.0,0.0,0.0,0.0,0.0,0.0,0.0,0.0,0.0,0.0,0.0,0.0,0.0,0.0,0.0,0.0,0.0,0.0,0.0,0.0,0.0,0.0,0.0,0.0,-2.3429,-2.5759,0.0,0.0,0.0,0.0,0.0,0.0,0.0,0.0,0.0,0.0,0.0,0.0,0.0,-4.2316,-4.728,-4.8102,-4.9648,-5.1883,-5.1883,-5.1883,-5.1883,-5.1883,-5.1883,-5.185,-5.1094,0.0,-4.4716,-4.7379,0.0,0.0,0.0,0.0,0.0,0.0,0.0,0.0,0.0,0.0,0.0,0.0,0.0,0.0,0.0,0.0,0.0,0.0,0.0,0.0,0.0,0.0,-5.6008,-5.666,-5.7168,-5.722,-5.6323,-4.5711,-3.5922,-3.464,-3.2968,-2.7593,0.0,0.0,0.0,0.0,0.0,0.0,-4.6549,-5.3797,-5.8313,-5.8313,-5.8784,-5.9089,-5.9089,-5.9089,-5.9089,-5.9089,-5.8102,-5.556,-5.1223,-4.7708,0.0,0.0,0.0,0.0,0.0,0.0,0.0,0.0,0.0,0.0,0.0,0.0,0.0,0.0,0.0,0.0,0.0,0.0,0.0,0.0,0.0,0.0,0.0,0.0,0.0,0.0,0.0,0.0,0.0,0.0,0.0,0.0,0.0,0.0,0.0,0.0,0.0,0.0,0.0,0.0,0.0,0.0,0.0,0.0,0.0,0.0,0.0,0.0,0.0,0.0,-5.1883,-5.1883,-5.1883,-5.1883,-5.1883,-5.162,-4.6886,-4.6984,-4.9385,-3.6003,0.0,0.0,0.0,0.0,0.0,0.0,0.0,0.0,0.0,0.0,0.0,0.0,0.0,0.0,0.0,0.0,0.0,0.0,0.0,0.0,0.0,0.0,-3.9744,-4.382,-4.6923,-4.7446,-4.1847,0.0,0.0,0.0,0.0,0.0,0.0,0.0,0.0,0.0,0.0,0.0,-4.1304,-5.1573,-5.8313,-5.8313,-5.8784,-5.9089,-5.9089,-5.9089,-5.9089,-5.9089,-5.2718,-4.8587,0.0,0.0,0.0,0.0,0.0,0.0,0.0,0.0,0.0,0.0,0.0,0.0,0.0,0.0,0.0,0.0,0.0,0.0,0.0,0.0,0.0,0.0,0.0,0.0,0.0,0.0,0.0,0.0,0.0,0.0,0.0,0.0,0.0,0.0,0.0,0.0,0.0,0.0,0.0,0.0,0.0,0.0,0.0,0.0,0.0,0.0,0.0,0.0,0.0,0.0,0.0,0.0,0.0,0.0,0.0,0.0,0.0,0.0,-4.0606,-3.9363,0.0,0.0,0.0,0.0,0.0,0.0,0.0,0.0,0.0,0.0,0.0,0.0,0.0,0.0,0.0,0.0,0.0,0.0,0.0,0.0,0.0,0.0,0.0,0.0,0.0,0.0,0.0,0.0,0.0,0.0,0.0,0.0,0.0,0.0,0.0,0.0,0.0,0.0,0.0,0.0,-3.8308,-5.0042,-5.8014,-5.8014,-5.8644,-5.9089,-5.9089,-5.9089,-5.728,-5.3017,-4.9036,0.0,0.0,0.0,0.0,0.0,0.0,0.0,0.0,0.0,0.0,0.0,0.0,0.0,0.0,0.0,0.0,0.0,0.0,0.0,0.0,0.0,0.0,0.0,0.0,0.0,0.0,0.0,0.0,0.0,0.0,0.0,0.0,0.0,0.0,0.0,0.0,0.0,0.0,0.0,0.0,0.0,0.0,0.0,0.0,0.0,0.0,0.0,0.0,0.0,0.0,0.0,0.0,0.0,0.0,0.0,0.0,0.0,0.0,0.0,-2.9801,-2.7939,0.0,0.0,0.0,0.0,0.0,0.0,0.0,0.0,0.0,0.0,0.0,0.0,0.0,0.0,0.0,0.0,0.0,0.0,0.0,0.0,0.0,0.0,0.0,0.0,0.0,0.0,0.0,0.0,0.0,0.0,0.0,0.0,0.0,0.0,0.0,0.0,0.0,0.0,0.0,0.0,-3.6702,-4.9099,-5.7621,-5.7724,-5.8444,-5.8981,-5.9089,-5.9089,-5.5597,-4.739,-4.5183,0.0,0.0,0.0,0.0,0.0,0.0,0.0,0.0,0.0,0.0,0.0,0.0,0.0,0.0,0.0,0.0,0.0,0.0,0.0,0.0,0.0,0.0,0.0,0.0,0.0,0.0,0.0,0.0,0.0,0.0,0.0,0.0,0.0,0.0,0.0,0.0,0.0,0.0,0.0,0.0,0.0,0.0,0.0,0.0,0.0,0.0,0.0,0.0,0.0,0.0,0.0,0.0,0.0,0.0,0.0,0.0,0.0,0.0,0.0,0.0,0.0,0.0,0.0,0.0,0.0,0.0,0.0,0.0,0.0,0.0,0.0,0.0,0.0,0.0,0.0,0.0,0.0,0.0,0.0,0.0,0.0,0.0,0.0,0.0,0.0,0.0,0.0,0.0,0.0,0.0,0.0,0.0,0.0,0.0,0.0,0.0,0.0,0.0,0.0,0.0,0.0,-3.6547,-4.8784,-5.7332,-5.769,-5.8107,-5.858,-5.9028,-5.9089,-5.5597,-4.739,0.0,0.0,0.0,0.0,0.0,0.0,0.0,0.0,0.0,0.0,0.0,0.0,0.0,0.0,0.0,0.0,0.0,0.0,0.0,0.0,0.0,0.0,0.0,0.0,0.0,0.0,0.0,0.0,0.0,0.0,0.0,0.0,0.0,0.0,0.0,0.0,0.0,0.0,0.0,0.0,0.0,0.0,0.0,0.0,0.0,0.0,0.0,0.0,0.0,0.0,0.0,0.0,0.0,0.0,0.0,0.0,0.0,0.0,0.0,0.0,0.0,0.0,0.0,0.0,0.0,0.0,0.0,0.0,0.0,0.0,0.0,0.0,0.0,0.0,0.0,0.0,0.0,0.0,0.0,0.0,0.0,0.0,0.0,0.0,0.0,0.0,0.0,0.0,0.0,0.0,0.0,0.0,0.0,0.0,0.0,0.0,0.0,0.0,0.0,0.0,0.0,0.0,-3.6549,-4.8963,-5.7587,-5.7724,-5.835,-5.8858,-5.9089,-5.9089,-5.3877,-4.1667,0.0,0.0,0.0,0.0,0.0,0.0,0.0,0.0,0.0,0.0,0.0,0.0,0.0,0.0,0.0,0.0,0.0,0.0,0.0,0.0,0.0,0.0,0.0,0.0,0.0,0.0,0.0,0.0,0.0,0.0,0.0,0.0,0.0,0.0,0.0,0.0,0.0,0.0,0.0,0.0,0.0,0.0,0.0,0.0,0.0,0.0,0.0,0.0,0.0,0.0,0.0,0.0,0.0,0.0,0.0,0.0,0.0,0.0,0.0,0.0,0.0,0.0,0.0,0.0,0.0,0.0,0.0,0.0,0.0,0.0,0.0,0.0,0.0,0.0,0.0,0.0,0.0,0.0,0.0,0.0,0.0,0.0,0.0,0.0,0.0,0.0,0.0,0.0,0.0,0.0,0.0,0.0,0.0,0.0,0.0,0.0,0.0,0.0,0.0,0.0,0.0,0.0,-3.6514,-4.8998,-5.7586,-5.7724,-5.8416,-5.892,-5.9089,-5.8626,-5.2232,-3.7838,0.0,0.0,0.0,0.0,0.0,0.0,0.0,0.0,0.0,0.0,0.0,0.0,0.0,0.0,0.0,0.0,0.0,0.0,0.0,0.0,0.0,0.0,0.0,0.0,0.0,0.0,0.0,0.0,0.0,0.0,0.0,0.0,0.0,0.0,0.0,0.0,0.0,0.0,0.0,0.0,0.0,0.0,0.0,0.0,0.0,0.0,0.0,0.0,0.0,0.0,0.0,0.0,0.0,0.0,0.0,0.0,0.0,0.0,0.0,0.0,0.0,0.0,0.0,0.0,0.0,0.0,0.0,0.0,0.0,0.0,0.0,0.0,0.0,0.0,0.0,0.0,0.0,0.0,0.0,0.0,0.0,0.0,0.0,0.0,0.0,0.0,0.0,0.0,0.0,0.0,0.0,0.0,0.0,0.0,0.0,0.0,0.0,0.0,0.0,0.0,0.0,0.0,-3.6512,-4.8748,-5.7294,-5.769,-5.8076,-5.8516,-5.9028,-5.7541,-5.0961,0.0,0.0,0.0,0.0,0.0,0.0,0.0,0.0,0.0,0.0,0.0,0.0,0.0,0.0,0.0,0.0,0.0,0.0,0.0,0.0,0.0,0.0,0.0,0.0,0.0,0.0,0.0,0.0,0.0,0.0,0.0,0.0,0.0,0.0,0.0,0.0,0.0,0.0,0.0,0.0,0.0,0.0,0.0,0.0,0.0,0.0,0.0,0.0,0.0,0.0,0.0,0.0,0.0,0.0,0.0,0.0,0.0,0.0,0.0,0.0,0.0,0.0,0.0,0.0,0.0,0.0,0.0,0.0,0.0,0.0,0.0,0.0,0.0,0.0,0.0,0.0,0.0,0.0,0.0,0.0,0.0,0.0,0.0,0.0,0.0,0.0,0.0,0.0,0.0,0.0,0.0,0.0,0.0,0.0,0.0,0.0,0.0,0.0,0.0,0.0,0.0,0.0,0.0,-3.5988,-4.527,-5.2855,0.0,-5.8416,-5.892,-5.9089,-5.8626,-5.2602,-3.9223,0.0,0.0,0.0,0.0,0.0,0.0,0.0,0.0,0.0,0.0,0.0,0.0,0.0,0.0,0.0,0.0,0.0,0.0,0.0,0.0,0.0,0.0,0.0,0.0,0.0,0.0,0.0,0.0,0.0,0.0,0.0,0.0,0.0,0.0,0.0,0.0,0.0,0.0,0.0,0.0,0.0,0.0,0.0,0.0,0.0,0.0,0.0,0.0,0.0,0.0,0.0,0.0,0.0,0.0,0.0,0.0,0.0,0.0,0.0,0.0,0.0,0.0,0.0,0.0,0.0,0.0,0.0,0.0,0.0,0.0,0.0,0.0,0.0,0.0,0.0,0.0,0.0,0.0,0.0,0.0,0.0,0.0,0.0,0.0,0.0,0.0,0.0,0.0,0.0,0.0,0.0,0.0,0.0,0.0,0.0,0.0,0.0,0.0,0.0,0.0,0.0,0.0,0.0,-4.5596,-5.3226,0.0,-5.8387,-5.8896,-5.9089,-5.8514,-5.2715,-4.0022,0.0,0.0,0.0,0.0,0.0,0.0,0.0,0.0,0.0,0.0,0.0,0.0,0.0,0.0,0.0,0.0,0.0,0.0,0.0,0.0,0.0,0.0,0.0,0.0,0.0,0.0,0.0,0.0,0.0,0.0,0.0,0.0,0.0,0.0,0.0,0.0,0.0,0.0,0.0,0.0,0.0,0.0,0.0,0.0,0.0,0.0,0.0,0.0,0.0,0.0,0.0,0.0,0.0,0.0,0.0,0.0,0.0,0.0,0.0,0.0,0.0,0.0,0.0,0.0,0.0,0.0,0.0,0.0,0.0,0.0,0.0,0.0,0.0,0.0,0.0,0.0,0.0,0.0,0.0,0.0,0.0,0.0,0.0,0.0,0.0,0.0,0.0,0.0,0.0,0.0,0.0,0.0,0.0,0.0,0.0,0.0,0.0,0.0,0.0,0.0,0.0,0.0,0.0,-4.8605,-5.6823,-5.7654,-5.8107,-5.858,-5.9028,-5.7654,-5.1784,-4.0177,-3.4921,0.0,0.0,0.0,0.0,0.0,0.0,0.0,0.0,0.0,0.0,0.0,0.0,0.0,0.0,0.0,0.0,0.0,0.0,0.0,0.0,0.0,0.0,0.0,0.0,0.0,0.0,0.0,0.0,0.0,0.0,0.0,0.0,0.0,0.0,0.0,0.0,0.0,0.0,0.0,0.0,0.0,0.0,0.0,0.0,0.0,0.0,0.0,0.0,0.0,0.0,0.0,0.0,0.0,0.0,0.0,0.0,0.0,0.0,0.0,0.0,0.0,0.0,0.0,0.0,0.0,0.0,0.0,0.0,0.0,0.0,0.0,0.0,0.0,0.0,0.0,0.0,0.0,0.0,0.0,0.0,0.0,0.0,0.0,0.0,0.0,0.0,0.0,0.0,0.0,0.0,0.0,0.0,0.0,0.0,0.0,0.0,0.0,0.0,0.0,0.0,0.0,0.0,-4.6214,-5.2331,-5.7175,-5.8444,-5.8944,-5.9052,-5.8738,-5.2976,-4.0006,-3.5814,0.0,0.0,0.0,0.0,0.0,0.0,0.0,0.0,0.0,0.0,0.0,0.0,0.0,0.0,0.0,0.0,0.0,0.0,0.0,0.0,0.0,0.0,0.0,0.0,0.0,0.0,0.0,0.0,0.0,0.0,0.0,0.0,0.0,0.0,0.0,0.0,0.0,0.0,0.0,0.0,0.0,0.0,0.0,0.0,0.0,0.0,0.0,0.0,0.0,0.0,0.0,0.0,0.0,0.0,0.0,0.0,0.0,0.0,0.0,0.0,0.0,0.0,0.0,0.0,0.0,0.0,0.0,0.0,0.0,0.0,0.0,0.0,0.0,0.0,0.0,0.0,0.0,0.0,0.0,0.0,0.0,0.0,0.0,0.0,0.0,0.0,0.0,0.0,0.0,0.0,0.0,0.0,0.0,0.0,0.0,0.0,0.0,0.0,0.0,0.0,0.0,0.0,-3.9043,-4.7078,-5.6698,-5.8321,-5.8834,-5.9089,-5.9089,-5.3424,-4.0076,-3.6949,0.0,0.0,0.0,0.0,0.0,0.0,0.0,0.0,0.0,0.0,0.0,0.0,0.0,0.0,0.0,0.0,0.0,0.0,0.0,0.0,0.0,0.0,0.0,0.0,0.0,0.0,0.0,0.0,0.0,0.0,0.0,0.0,0.0,0.0,0.0,0.0,0.0,0.0,0.0,0.0,0.0,0.0,0.0,0.0,0.0,0.0,0.0,0.0,0.0,0.0,0.0,0.0,0.0,0.0,0.0,0.0,0.0,0.0,0.0,0.0,0.0,0.0,0.0,0.0,0.0,0.0,0.0,0.0,0.0,0.0,0.0,0.0,0.0,0.0,0.0,0.0,0.0,0.0,0.0,0.0,0.0,0.0,0.0,0.0,0.0,0.0,0.0,0.0,0.0,0.0,0.0,0.0,0.0,0.0,0.0,0.0,0.0,0.0,0.0,0.0,0.0,0.0,0.0,-4.3096,-5.5016,-5.7576,-5.8606,-5.9028,-5.9089,-5.3483,-4.0305,0.0,0.0,0.0,0.0,0.0,0.0,0.0,0.0,0.0,0.0,0.0,0.0,0.0,0.0,0.0,0.0,0.0,0.0,0.0,0.0,0.0,0.0,0.0,0.0,0.0,0.0,0.0,0.0,0.0,0.0,0.0,0.0,0.0,0.0,0.0,0.0,0.0,0.0,0.0,0.0,0.0,0.0,0.0,0.0,0.0,0.0,0.0,0.0,0.0,0.0,0.0,0.0,0.0,0.0,0.0,0.0,0.0,0.0,0.0,0.0,0.0,0.0,0.0,0.0,0.0,0.0,0.0,0.0,0.0,0.0,0.0,0.0,0.0,0.0,0.0,0.0,0.0,0.0,0.0,0.0,0.0,0.0,0.0,0.0,0.0,0.0,0.0,0.0,0.0,0.0,0.0,0.0,0.0,0.0,0.0,0.0,0.0,0.0,0.0,0.0,0.0,0.0,0.0,0.0,-4.4701,-4.9373,-5.5346,-5.9005,-5.9089,-5.9089,-5.3483,-4.0305,0.0,0.0,0.0,0.0,0.0,0.0,0.0,0.0,0.0,0.0,0.0,0.0,0.0,0.0]}]]]